GFSSGP_500_spd_000.txt.gz
Wind_Speed
26 23 18 12 18 21 24 26 25 23 22 23 25 28 30 33 30 33 34 28 27 20 16 14 18 22 25 24 21 22 26 27 30 30 30 27 34 34 32 33 36 30 32 35 34 33 30 26 33
22 14 11 19 21 23 25 24 21 22 21 23 25 31 34 37 37 37 34 32 32 29 19 19 19 20 26 28 26 29 30 30 34 35 37 40 38 37 31 32 30 33 30 30 30 28 28 31 39
12 12 19 25 22 23 21 17 19 21 23 24 25 26 29 34 37 31 35 30 24 21 17 17 18 23 25 30 31 32 34 35 39 41 42 42 42 40 33 32 28 31 34 33 31 31 29 29 29
12 18 21 24 22 9 9 13 14 20 22 26 26 22 29 28 23 20 25 26 26 26 28 28 25 26 30 33 36 39 40 44 43 43 36 35 34 34 33 31 31 34 37 33 31 32 28 28 22
19 23 22 17 15 1 9 13 16 18 20 22 21 21 20 18 17 26 17 21 27 27 26 27 29 32 35 37 40 40 40 41 39 33 33 32 30 28 28 28 30 30 31 30 27 31 30 30 26
23 22 18 13 7 3 10 15 11 11 12 13 13 14 15 13 13 7 13 20 22 21 21 25 27 29 32 33 34 33 32 31 29 30 32 32 30 27 26 25 23 22 25 25 24 27 28 27 28
20 16 13 11 5 4 7 9 9 9 8 9 9 9 9 8 6 9 14 17 17 19 20 21 24 26 28 27 26 26 25 24 25 27 28 28 27 24 23 22 23 24 25 26 23 23 25 25 25
14 11 9 10 8 5 2 4 6 6 6 11 11 8 8 11 13 16 16 17 15 16 18 21 22 21 21 20 22 24 25 24 27 27 27 26 26 25 22 20 18 17 16 18 18 16 17 19 17
3 6 9 8 6 5 3 2 6 10 8 9 6 3 4 7 7 8 9 7 7 9 14 13 16 18 19 17 18 19 19 18 18 19 20 20 17 16 16 17 18 19 19 20 21 19 19 19 18
6 10 10 5 10 10 14 13 7 11 12 14 14 13 12 11 10 10 12 13 11 11 11 11 4 2 2 6 8 9 9 11 12 12 13 16 18 20 21 21 23 24 26 27 28 28 25 23 22
16 19 16 14 13 15 15 13 13 12 10 10 8 8 8 9 10 11 11 10 7 9 11 12 13 12 12 14 17 19 20 20 22 23 22 24 25 25 27 27 29 28 29 30 32 32 31 30 30
15 12 13 10 9 10 11 10 9 8 9 9 8 8 9 8 10 10 11 12 12 11 13 16 15 16 18 20 21 22 24 24 26 28 28 29 31 30 30 31 32 33 34 34 34 35 36 36 35
11 11 10 9 9 8 7 7 9 10 9 11 13 13 12 13 12 13 16 16 15 15 15 17 20 22 22 25 26 26 27 28 29 31 31 32 34 35 35 35 35 35 36 35 35 35 37 39 39
12 9 7 5 4 5 5 6 6 9 11 9 11 14 16 16 17 16 16 17 18 16 18 20 22 24 27 28 29 30 30 31 32 32 33 34 35 35 36 36 37 38 38 38 38 38 38 39 40
12 7 5 4 2 1 4 4 3 4 7 10 13 13 15 16 18 19 20 21 22 23 23 24 26 25 26 27 30 31 32 34 35 35 35 38 39 40 40 39 40 40 41 42 43 43 43 42 41
4 4 3 4 2 3 5 9 8 5 5 10 10 9 10 13 18 20 21 23 25 24 22 22 23 26 28 30 31 33 35 37 39 41 43 45 45 47 47 46 48 48 48 49 49 49 50 50 50
0 4 7 5 4 3 3 4 7 10 13 14 13 9 9 9 10 12 12 13 17 21 22 23 25 26 30 34 37 38 39 42 46 47 47 49 50 52 53 53 53 55 56 56 56 56 54 56 57
8 9 10 10 7 9 6 8 9 11 13 14 16 15 15 16 17 19 20 21 24 26 28 30 32 36 40 41 41 45 45 46 47 49 51 53 54 56 57 58 57 58 59 59 59 58 60 63 64
9 11 11 13 12 10 13 14 11 14 15 15 16 18 19 22 23 24 27 29 32 34 37 41 43 44 44 45 48 49 51 52 53 55 57 56 55 57 59 61 60 62 62 61 61 63 65 68 70
9 11 13 16 17 13 14 16 17 16 14 19 23 25 26 27 27 28 28 34 35 34 37 40 44 46 48 49 52 55 55 55 56 57 58 60 60 60 60 61 63 63 61 61 63 65 67 69 71
14 13 14 13 14 21 19 19 19 18 17 19 20 20 23 24 30 31 28 28 29 33 33 34 37 44 49 52 54 55 57 56 56 59 59 59 60 61 61 62 63 64 63 63 64 67 69 70 72
14 16 16 14 13 17 19 19 20 20 19 23 26 23 24 26 29 30 31 32 32 32 34 35 38 43 47 49 51 56 58 60 61 60 59 60 61 61 62 62 62 62 65 67 68 69 69 65 64
13 15 16 16 18 17 19 18 19 24 27 28 32 33 33 34 32 33 37 39 40 42 45 46 48 48 52 53 53 57 57 55 56 57 58 59 59 57 58 63 66 67 66 66 70 72 72 67 65
15 13 17 19 20 20 23 23 25 31 32 34 35 38 42 37 39 43 46 49 48 51 48 47 49 52 54 57 58 55 57 59 61 60 59 60 61 64 67 66 65 67 69 69 69 69 69 69 68
14 14 18 22 21 23 25 22 30 32 34 36 35 42 39 38 42 46 51 50 55 54 52 53 54 57 58 60 61 61 59 61 60 61 62 66 68 69 67 68 68 67 67 65 62 68 66 67 70
16 17 18 23 25 22 22 22 27 31 33 33 38 40 43 44 47 49 51 54 54 57 60 59 59 60 61 61 61 62 62 61 61 63 67 67 69 71 71 70 68 65 62 64 65 66 61 65 71
18 20 24 27 30 29 23 16 26 24 26 34 35 42 45 44 44 47 51 51 54 57 58 59 57 56 58 60 62 62 63 64 66 68 70 69 70 70 69 67 60 64 54 62 68 69 69 71 70
22 24 31 32 32 33 32 22 26 24 31 29 42 46 45 47 47 49 52 56 53 53 53 53 57 59 62 64 65 66 68 70 71 72 74 75 76 76 71 62 58 60 65 70 71 69 70 70 67
24 26 30 34 33 35 40 32 28 32 38 42 46 45 48 45 48 53 54 53 55 56 55 57 59 61 63 65 67 69 71 72 74 77 79 79 79 76 68 62 58 59 61 66 68 68 66 65 63
24 24 29 37 38 36 43 43 35 39 40 45 44 45 45 48 51 52 51 52 54 56 60 60 61 65 68 68 68 70 73 76 79 79 80 79 76 70 62 57 55 56 58 59 60 61 61 60 60

GFSSGP_500_spd_006.txt.gz
Wind_Speed
28 30 30 31 30 31 28 27 27 26 25 25 24 25 22 20 20 22 23 25 28 28 30 30 26 24 27 28 21 21 21 25 27 25 28 29 31 31 32 33 35 35 34 31 29 26 22 24 24
29 31 32 30 27 25 23 24 25 24 24 22 19 17 16 20 22 24 27 30 32 36 37 30 28 28 32 23 20 21 28 28 29 29 33 35 37 37 38 36 33 31 28 27 30 26 25 24 26
31 31 27 24 22 22 21 22 23 22 20 18 17 19 21 24 25 26 28 29 28 22 18 18 19 16 19 18 21 26 30 33 33 35 37 39 40 38 36 33 27 28 27 22 24 27 27 28 26
29 28 26 20 20 21 22 23 22 22 21 21 21 20 23 23 24 25 26 26 26 22 21 17 15 17 19 24 31 33 34 34 34 35 35 34 33 31 29 25 25 27 26 25 24 23 24 26 24
23 19 19 20 18 16 15 15 17 18 11 10 10 11 13 14 16 18 20 22 20 24 20 21 23 26 29 33 35 33 29 27 26 26 24 24 25 25 24 24 24 23 23 22 22 21 23 22 21
14 11 13 14 11 9 13 14 9 6 7 8 10 9 11 13 15 13 16 13 14 17 19 23 26 27 27 23 20 19 20 23 24 25 24 23 24 24 24 22 20 20 20 21 21 20 20 20 21
4 6 4 5 10 12 13 11 5 4 7 8 8 9 13 17 16 13 13 15 17 18 19 20 20 21 21 20 20 21 20 18 16 17 18 19 19 19 18 17 16 16 17 16 11 11 12 12 12
7 5 1 8 12 11 10 3 3 3 7 8 8 8 8 12 14 15 15 14 13 13 11 11 12 12 12 12 11 10 11 14 15 15 16 17 17 17 17 19 20 20 20 21 20 19 18 17 17
6 2 5 9 9 4 1 3 7 11 15 16 14 13 12 12 12 12 12 12 13 11 10 12 13 12 13 12 13 15 16 19 21 23 24 23 23 23 24 25 25 24 23 23 23 24 23 22 21
8 7 9 11 12 13 15 15 14 12 11 10 10 10 10 8 8 8 9 9 10 10 11 12 15 17 17 17 19 21 22 23 24 26 25 25 24 24 25 25 26 25 26 26 26 26 26 26 24
17 16 18 17 15 15 14 13 10 7 7 5 6 6 6 6 5 4 6 9 11 14 16 17 16 16 17 18 18 20 22 24 25 27 27 28 28 28 29 29 28 28 27 27 28 28 27 28 26
16 16 14 14 13 12 11 9 9 5 4 5 7 8 9 8 8 7 8 12 14 14 16 17 18 17 16 18 20 23 23 24 25 27 28 29 31 32 32 32 34 36 37 37 37 36 34 33 32
14 15 13 12 9 7 9 6 4 5 6 7 7 8 9 10 8 8 9 12 13 15 17 21 22 23 23 23 23 24 26 27 28 29 32 33 34 36 37 39 40 40 39 38 40 41 42 41 40
7 9 7 7 7 6 5 4 6 7 7 7 10 10 9 11 13 13 12 14 16 19 21 23 23 25 26 28 29 30 31 32 33 36 39 40 40 41 41 42 44 45 44 44 44 43 43 44 45
6 6 4 3 5 5 5 6 5 4 5 7 9 11 12 13 17 17 18 19 20 23 26 28 28 29 31 33 34 35 37 39 40 44 47 47 46 47 48 48 49 47 47 48 49 47 46 47 48
1 2 2 2 4 5 6 3 2 4 7 8 9 11 12 12 15 17 18 16 18 21 24 25 29 33 34 35 37 39 42 43 45 46 47 47 47 48 48 49 50 51 50 51 51 52 53 54 54
2 1 1 5 4 3 6 8 8 9 9 10 11 12 13 16 18 18 19 20 22 26 30 32 35 38 41 42 42 44 45 46 47 47 48 50 51 52 54 55 55 56 56 56 57 58 58 58 58
3 2 3 3 4 4 3 4 8 9 12 16 17 17 19 21 24 25 26 27 26 30 35 36 39 43 44 45 43 41 44 48 50 52 53 53 53 54 56 57 60 61 60 59 59 58 58 58 58
5 6 4 4 3 6 6 9 11 14 17 18 18 22 25 25 24 28 28 29 32 34 33 36 39 39 42 45 46 47 51 51 51 52 53 55 57 59 59 58 58 58 59 59 58 58 59 60 61
7 9 8 10 8 5 9 12 15 17 19 21 22 24 25 26 26 27 29 29 30 30 32 37 40 43 48 49 49 52 52 52 52 53 52 54 56 57 58 59 59 59 61 63 62 59 55 55 55
10 9 10 11 14 11 12 15 16 17 18 20 23 25 26 25 26 29 29 29 32 33 36 40 43 46 52 52 54 56 54 54 54 54 54 55 54 56 58 60 61 62 62 61 62 62 62 61 59
14 15 14 15 14 13 16 19 19 21 24 24 27 29 29 29 30 31 29 33 30 36 40 42 44 51 52 54 55 54 53 53 53 54 55 56 57 59 60 61 63 63 65 65 65 64 66 66 66
17 18 18 17 16 15 16 20 22 25 27 29 32 33 32 32 32 31 33 35 38 42 44 47 50 50 51 53 53 54 56 57 57 57 59 60 62 64 66 67 68 67 68 67 67 67 67 69 70
19 20 19 17 17 17 20 22 24 28 32 35 35 35 34 34 34 36 38 39 43 44 45 49 48 49 53 53 56 58 58 60 61 62 63 64 65 67 69 70 72 73 74 75 76 75 74 72 65
21 20 18 17 18 20 23 26 29 32 34 34 35 35 37 36 38 38 39 42 44 46 48 50 51 52 52 57 58 59 61 65 68 69 70 71 71 70 72 76 78 78 79 79 78 76 73 71 69
17 15 17 20 21 23 28 31 31 31 35 37 39 40 41 41 43 44 46 47 47 49 51 53 53 55 60 61 62 63 65 67 71 73 72 74 77 80 79 76 78 79 79 80 79 76 72 68 65
17 17 19 23 26 27 28 28 32 33 36 38 40 42 43 43 45 46 46 48 50 52 54 57 60 58 62 66 67 65 68 71 76 77 79 82 84 84 86 85 82 84 83 80 75 66 63 59 58
19 22 25 28 31 32 31 21 28 36 38 35 38 40 41 42 44 45 45 47 51 54 55 57 61 63 65 69 73 75 78 82 81 83 85 88 89 89 88 88 85 82 82 73 63 61 59 55 51
24 26 28 30 31 32 36 29 31 34 35 34 34 36 40 43 45 44 45 49 55 54 60 63 64 66 67 69 70 71 74 80 84 86 88 90 90 88 88 84 79 75 65 59 55 54 52 51 53
24 26 30 33 34 34 35 32 34 38 35 35 38 41 44 44 42 46 51 55 59 63 65 67 67 68 70 70 73 76 81 85 89 91 92 91 90 88 84 75 65 56 53 52 49 48 48 49 50

GFSSGP_500_spd_009.txt.gz
Wind_Speed
25 25 25 25 26 26 24 24 24 22 20 21 21 20 21 19 20 20 19 20 24 26 29 33 33 32 31 29 27 26 22 18 27 27 27 27 29 31 32 32 29 30 30 29 29 27 26 25 25
26 26 27 25 23 24 25 24 23 21 21 22 23 23 22 23 23 21 21 23 26 28 27 25 21 20 15 14 16 21 22 24 30 32 32 33 33 31 30 30 29 27 25 24 26 26 24 26 27
26 26 24 21 22 22 20 20 20 20 19 19 20 21 23 23 26 25 25 27 27 25 26 23 20 15 14 17 20 24 26 31 33 31 29 28 28 27 24 22 21 18 20 24 24 24 23 22 26
21 21 19 19 18 16 17 17 16 16 18 19 21 22 21 18 14 15 18 20 20 22 22 23 23 22 23 25 26 30 31 28 25 24 23 23 23 23 22 21 20 20 20 21 21 21 20 20 19
17 17 17 14 11 11 12 11 12 13 14 16 8 6 8 10 11 11 10 13 13 14 17 19 19 21 22 21 21 20 18 18 19 18 17 15 15 16 17 17 17 16 17 18 19 19 19 19 19
11 9 7 7 9 10 11 8 8 8 7 6 5 6 8 11 13 11 12 12 13 14 13 12 14 16 16 15 15 15 15 14 12 12 13 14 15 15 15 14 14 14 13 15 17 18 14 13 13
3 3 2 6 8 8 7 6 5 2 1 2 3 4 5 9 10 7 6 6 8 9 10 11 12 12 12 11 10 9 9 9 12 14 16 18 18 18 18 19 20 19 18 16 14 14 15 16 17
6 8 7 5 2 1 4 3 2 2 4 3 4 9 8 8 8 8 9 9 9 9 10 11 13 15 15 13 11 12 14 16 17 17 18 18 18 17 18 20 21 21 21 20 21 21 19 18 17
9 6 2 5 6 2 6 8 14 17 15 12 10 8 8 8 8 8 10 11 12 12 13 14 14 15 16 17 17 17 17 18 19 19 19 19 18 18 18 19 20 20 21 22 22 22 22 22 22
9 8 10 5 6 13 17 14 10 11 11 10 9 8 6 5 6 9 11 12 12 12 13 14 15 16 17 16 16 18 18 19 20 20 21 22 22 23 23 22 22 22 22 22 22 23 23 23 23
15 16 15 16 16 16 14 13 11 10 10 8 6 4 2 4 6 8 8 9 9 10 10 11 13 13 15 17 17 19 20 20 22 23 23 23 26 28 29 28 28 30 31 30 29 29 28 27 27
20 18 17 16 15 14 11 9 8 6 6 5 5 3 2 3 4 6 8 9 10 11 11 12 13 15 17 19 20 22 24 26 28 29 29 30 32 35 36 37 36 37 37 37 37 36 34 33 32
15 14 13 11 10 9 7 5 2 3 5 5 4 2 4 6 7 10 12 13 13 14 17 18 19 20 21 23 25 28 30 33 35 36 36 37 39 41 41 41 40 40 41 41 41 40 38 38 39
12 12 10 9 9 7 6 4 3 2 2 3 5 6 6 6 8 11 12 14 16 18 21 24 26 28 29 30 32 34 36 38 38 39 39 40 40 41 40 40 40 40 40 41 42 43 43 44 43
9 8 9 10 8 5 4 4 1 5 8 7 8 10 11 10 10 13 16 20 22 24 25 26 29 30 30 31 33 34 37 39 40 39 38 39 40 40 40 42 43 43 43 43 45 46 46 47 48
4 3 2 1 4 3 0 1 4 7 8 9 10 11 12 12 14 17 21 23 25 26 28 29 32 34 35 37 39 40 41 42 42 42 43 43 44 44 44 45 45 46 45 46 48 51 52 52 52
2 1 2 2 4 5 3 4 4 6 7 9 12 15 17 16 17 20 23 25 28 28 27 31 36 40 41 41 42 42 42 44 46 47 49 51 51 51 50 50 50 52 51 52 51 50 50 50 49
1 3 4 4 4 4 4 6 7 9 10 12 14 16 18 18 18 20 24 28 30 32 33 37 39 40 40 42 43 46 45 48 46 49 50 50 50 50 50 49 48 50 50 51 51 52 51 51 52
2 3 4 4 5 8 9 10 11 14 14 14 16 17 18 20 22 26 29 30 32 34 36 38 40 41 42 44 48 48 50 53 52 51 51 50 50 51 53 55 55 55 56 55 56 58 58 58 57
5 6 8 8 7 9 11 12 13 14 15 17 19 20 23 26 28 30 32 33 35 34 36 38 38 41 46 48 49 50 52 52 52 51 51 53 54 55 54 54 56 57 58 58 58 58 60 61 62
9 9 10 11 12 11 13 14 15 16 18 20 22 24 26 28 30 32 32 34 35 35 38 39 41 45 48 49 52 52 51 52 52 53 55 56 56 57 58 59 61 61 62 63 63 64 65 65 65
14 14 13 13 15 15 17 16 16 18 20 20 23 26 28 29 29 30 33 33 35 38 40 42 45 49 50 49 49 51 53 53 54 58 59 60 61 63 63 64 65 66 67 67 69 70 69 70 70
18 17 17 16 17 18 18 19 20 22 23 24 27 29 30 28 28 32 33 35 39 42 43 45 47 48 49 50 52 54 56 57 60 62 63 64 65 66 67 68 68 69 70 70 72 74 73 70 72
19 20 21 20 18 19 19 22 22 24 26 30 30 29 29 30 33 34 36 40 42 44 45 46 47 49 51 54 56 57 59 62 65 67 69 70 71 71 74 77 75 75 76 77 76 76 77 75 74
19 18 20 20 19 19 20 24 24 28 30 31 31 31 32 34 37 39 41 42 41 42 44 47 48 50 53 56 58 61 65 68 69 71 73 75 76 77 79 80 82 81 80 79 78 77 76 76 77
16 16 16 18 19 20 23 28 27 28 29 31 33 35 38 39 40 40 42 44 47 48 50 51 52 56 60 61 65 69 71 73 74 75 75 76 79 81 84 86 87 87 83 81 82 81 81 80 77
14 15 17 20 22 23 24 27 27 28 31 33 36 39 39 42 42 43 45 48 49 51 53 55 60 63 65 67 70 73 74 76 78 78 79 81 85 87 88 88 89 90 90 90 92 90 85 76 72
18 20 22 24 26 27 24 22 27 30 33 35 34 37 38 38 41 44 48 50 51 55 57 60 65 67 69 72 73 75 77 78 79 80 83 85 81 85 89 90 92 94 97 98 91 79 70 63 56
21 23 25 26 28 31 33 20 31 32 34 35 35 35 38 40 45 48 50 51 54 58 63 66 69 71 73 75 76 77 79 80 81 84 86 82 87 89 92 97 100 103 89 72 67 62 54 49 48
23 25 28 30 32 33 36 31 32 37 38 37 37 41 43 47 50 50 50 54 59 63 66 70 72 75 76 76 77 78 81 85 85 85 86 87 86 94 97 93 89 76 59 52 45 46 48 49 47

GFSSGP_500_spd_012.txt.gz
Wind_Speed
22 21 21 20 21 22 23 23 23 23 21 20 20 20 21 23 24 23 22 23 24 26 28 28 26 27 28 27 27 27 23 23 23 24 26 25 25 25 25 26 27 26 26 23 22 20 21 21 21
22 22 20 21 20 21 23 24 23 22 20 19 19 20 20 20 21 22 24 26 27 27 28 25 25 27 27 26 27 24 24 23 24 23 23 22 21 19 19 18 18 18 18 18 19 21 23 23 22
22 22 22 20 18 21 23 22 21 18 18 18 18 17 18 19 19 18 19 20 19 19 20 21 21 19 19 19 19 21 22 19 17 15 15 16 16 16 16 16 16 17 17 17 18 21 21 22 22
23 20 19 17 17 19 20 17 15 15 14 13 13 14 14 9 6 8 10 11 12 13 14 13 14 15 16 16 17 15 13 13 13 14 15 15 14 12 12 12 12 13 14 15 15 17 18 18 18
18 16 14 15 16 17 12 11 10 9 8 9 9 5 6 8 9 11 11 11 12 11 11 12 12 13 14 14 13 13 12 11 11 10 10 12 13 13 13 13 13 13 13 12 12 13 14 14 15
11 11 8 12 12 9 8 6 4 4 4 4 5 4 5 8 10 7 6 5 6 7 8 9 10 11 11 10 9 8 9 10 9 11 13 14 15 16 16 16 15 14 13 13 11 10 10 10 11
9 7 9 7 7 7 4 5 3 5 6 4 3 2 4 7 10 11 11 9 9 8 7 6 5 7 8 7 8 8 8 7 9 11 13 14 14 15 15 16 18 17 17 16 15 15 14 12 13
9 8 8 6 3 5 5 4 5 7 6 7 7 7 4 4 4 5 8 7 7 6 5 4 6 6 6 5 6 6 8 10 11 13 14 14 13 13 13 13 14 14 16 17 17 16 17 17 17
14 7 5 6 7 8 9 10 16 14 14 12 10 9 9 8 8 9 7 5 5 3 3 5 6 8 10 11 12 13 14 15 16 17 17 17 17 17 17 18 18 17 17 18 20 21 20 19 19
12 10 11 10 11 13 18 18 13 13 13 11 8 7 5 4 5 4 2 2 3 4 5 7 9 11 13 14 17 18 19 20 20 21 21 21 21 21 22 24 25 25 24 24 24 23 23 24 23
15 15 15 15 18 18 15 14 12 10 9 8 7 3 1 1 1 3 5 7 9 10 12 14 15 16 17 17 18 18 19 21 23 25 27 29 29 30 32 33 34 33 32 32 32 31 31 31 30
18 19 16 16 14 12 10 8 8 6 6 6 5 4 1 3 6 8 9 11 12 14 15 15 15 15 16 18 21 24 25 27 29 30 31 32 34 35 35 36 37 37 36 35 35 35 35 35 34
14 13 13 12 11 8 7 7 7 7 6 3 2 3 4 4 6 8 10 14 16 18 19 19 20 21 22 25 28 30 31 32 32 32 34 35 35 35 35 36 37 38 37 37 38 38 38 37 38
13 14 12 12 13 11 8 8 7 7 6 4 4 3 5 6 8 10 13 15 17 19 21 23 25 26 26 29 31 32 34 35 35 34 35 36 37 39 40 40 41 41 40 41 42 42 42 41 42
10 9 7 9 9 8 9 7 6 7 5 2 6 7 8 10 12 13 15 17 18 21 24 26 27 29 30 32 35 36 36 36 38 39 38 40 42 42 42 42 42 41 40 39 41 41 42 44 45
6 6 8 10 10 7 5 8 5 5 7 6 7 10 11 11 12 14 16 19 21 25 28 28 30 33 35 37 38 38 37 38 40 43 44 46 43 45 44 44 44 44 43 42 41 42 41 42 43
5 3 4 4 3 4 5 8 6 10 8 8 9 10 10 13 15 17 20 23 27 30 31 33 35 35 36 38 40 39 41 44 44 44 47 48 48 47 47 46 45 46 47 47 49 49 48 48 47
6 5 4 5 6 6 9 8 8 8 9 11 13 11 13 14 17 20 23 27 31 33 35 37 38 37 40 42 42 42 45 47 48 50 51 50 50 49 49 49 51 53 54 55 56 56 57 56 55
5 5 6 8 8 9 11 14 12 15 13 12 14 14 15 17 20 24 27 31 33 34 36 39 39 40 43 45 46 48 50 52 51 52 53 52 53 52 53 53 55 57 59 59 60 62 62 62 61
4 5 7 8 9 11 12 12 12 13 14 14 14 17 19 22 25 28 32 34 36 36 38 40 40 42 45 48 50 52 54 53 52 53 54 54 54 56 57 60 62 63 65 66 65 66 66 65 63
8 8 10 12 12 14 15 15 14 13 15 16 19 20 23 26 28 31 34 35 37 38 41 42 43 46 49 52 53 54 54 54 55 56 58 59 62 63 65 67 68 69 70 71 71 71 72 72 69
12 13 12 13 14 15 15 18 15 15 18 20 21 24 26 29 32 33 33 36 38 42 43 44 47 50 52 52 52 53 54 55 58 60 62 63 65 66 69 71 73 73 73 73 74 74 74 75 72
16 16 16 16 16 16 16 16 17 19 21 23 26 28 31 32 32 34 36 38 43 45 46 48 48 48 50 52 53 55 56 59 63 64 65 67 70 72 73 75 76 76 75 74 74 75 77 80 78
19 19 18 20 19 18 17 17 23 21 24 28 31 33 34 34 35 37 39 43 45 45 45 45 47 50 52 53 54 56 61 65 67 68 70 73 75 76 76 76 76 76 78 79 82 81 79 79 80
19 18 18 19 18 18 17 19 22 24 27 30 32 33 34 36 38 41 42 42 43 42 44 47 52 54 54 57 60 63 67 69 70 72 74 75 76 77 79 80 81 83 83 84 83 83 83 82 80
15 13 14 16 17 19 19 22 25 27 29 30 32 35 37 39 41 40 42 41 44 47 51 54 54 55 58 61 65 69 69 71 73 73 73 75 79 81 82 82 84 84 85 82 85 89 92 91 92
12 13 15 18 19 21 22 24 24 27 29 30 33 36 38 39 41 39 43 45 49 53 55 56 56 59 62 65 68 69 71 74 76 76 79 82 82 82 82 84 82 85 84 85 87 93 93 93 88
16 18 19 21 23 23 22 24 25 29 33 34 34 36 38 37 39 43 46 50 53 54 56 57 60 63 66 68 71 73 75 78 80 83 84 83 82 83 84 83 85 84 91 96 91 84 78 63 58
18 21 23 25 25 28 29 23 31 36 36 38 38 34 36 38 41 43 47 50 53 56 58 61 64 67 69 72 74 77 80 82 84 83 82 83 84 86 87 85 86 95 93 80 69 54 50 47 46
21 24 26 29 32 34 34 31 31 39 40 39 38 35 38 41 45 46 49 54 57 59 62 65 67 68 71 75 77 80 84 85 85 83 78 83 88 89 90 90 86 77 65 54 46 44 46 48 47

GFSSGP_500_spd_015.txt.gz
Wind_Speed
15 16 15 15 14 11 22 19 23 23 24 23 21 18 20 18 22 19 24 25 25 25 27 26 24 21 22 21 18 16 12 14 16 16 17 16 16 15 15 16 18 17 17 18 19 19 19 18 20
16 16 16 15 12 9 13 22 15 23 20 19 18 18 18 18 18 20 23 24 24 22 18 17 18 16 14 12 11 13 13 12 12 12 14 16 16 16 15 13 13 15 17 18 18 17 17 19 22
20 17 17 13 3 12 19 18 22 19 17 17 17 18 17 18 19 20 18 15 14 13 14 13 12 12 12 11 10 10 10 11 12 13 14 14 12 12 11 11 11 13 15 16 15 15 16 17 17
19 17 16 12 17 27 21 21 18 15 15 15 16 16 15 13 12 11 13 13 12 11 9 11 10 9 9 9 9 8 9 9 9 10 12 13 13 11 10 11 11 12 13 13 13 14 14 13 12
14 12 6 11 24 22 17 15 13 12 14 12 11 9 8 9 11 11 10 7 6 5 4 4 6 9 9 9 8 7 8 7 6 8 9 10 11 11 10 10 11 11 12 12 11 11 11 12 11
12 9 11 10 17 14 14 12 10 11 9 5 7 8 8 5 4 2 2 1 2 4 6 6 7 7 7 8 7 5 5 4 6 7 8 9 9 9 10 10 12 12 12 13 14 14 14 14 14
13 12 11 19 11 12 9 9 9 9 7 8 8 5 2 4 10 11 10 8 7 6 6 6 5 4 4 5 5 5 6 7 8 10 12 12 13 12 12 12 12 12 12 13 13 14 15 17 17
15 17 17 10 5 9 8 11 10 11 11 9 8 7 5 4 5 7 9 7 5 5 4 3 1 2 4 6 7 8 10 11 13 15 16 16 18 18 16 16 16 17 17 17 17 17 17 17 18
13 11 8 6 6 9 11 10 10 10 12 12 10 7 8 9 8 7 5 4 3 1 2 5 7 10 11 12 14 15 17 18 18 18 19 20 20 21 21 23 24 26 26 27 26 25 24 23 21
12 5 13 13 12 12 12 15 13 12 12 11 11 11 10 9 6 3 1 2 4 8 10 12 13 14 15 16 16 17 18 19 20 21 23 24 24 25 27 27 29 30 31 32 31 31 30 29 29
13 14 13 15 17 16 17 15 12 12 10 10 10 8 7 4 1 4 6 8 9 11 13 14 16 16 18 19 20 20 20 22 24 26 26 27 28 29 31 32 32 32 32 34 33 33 33 33 33
15 16 16 16 17 17 16 12 9 8 9 10 8 6 4 3 5 6 7 7 9 12 13 16 17 19 20 22 22 24 25 27 29 31 31 31 30 31 33 34 35 36 37 37 38 38 37 37 36
14 14 13 13 12 10 9 10 9 10 10 9 6 2 5 6 6 6 8 9 11 14 16 18 19 22 24 27 28 29 30 32 33 33 32 32 33 34 35 39 40 40 39 40 39 39 39 39 40
12 11 9 8 9 9 9 9 9 8 7 4 2 4 5 6 7 8 11 12 15 17 20 22 24 26 28 31 33 33 33 34 35 35 35 36 38 39 39 42 40 41 41 40 38 39 39 40 40
10 8 5 5 7 7 7 9 9 8 6 4 4 5 6 8 11 12 14 15 18 20 23 27 29 29 32 33 34 35 36 38 39 38 38 40 41 40 42 41 40 38 38 38 39 39 39 40 41
8 5 4 6 8 7 5 5 9 9 6 5 6 8 9 11 13 16 18 18 21 24 27 30 31 32 33 35 36 37 39 40 41 42 44 44 46 46 45 45 46 45 45 44 44 45 46 46 46
3 1 6 7 9 9 7 8 10 12 9 9 9 10 12 14 16 19 20 22 25 29 31 34 35 36 38 39 40 42 44 46 47 48 49 50 51 50 50 51 52 52 52 52 53 54 53 52 52
11 7 7 9 9 8 8 10 10 12 12 12 14 14 15 17 21 21 24 27 29 31 35 37 39 41 42 45 45 47 49 52 52 53 53 54 53 52 54 55 56 57 57 58 58 60 60 62 64
10 9 10 12 10 10 11 15 14 16 17 17 17 17 18 21 23 25 27 29 32 35 38 41 42 42 46 48 49 51 54 56 56 57 57 56 55 55 56 59 60 61 62 63 64 66 67 67 68
9 10 11 10 10 12 13 16 14 16 19 17 18 19 21 24 25 27 30 33 36 39 41 43 45 46 49 50 51 54 56 58 58 58 59 60 58 59 62 64 66 66 67 69 71 72 72 71 72
12 13 11 12 12 12 15 20 19 19 20 21 22 23 24 26 28 30 34 37 40 42 43 46 47 48 50 52 54 57 58 58 58 59 59 59 61 64 67 68 68 70 72 74 74 75 74 74 73
15 14 15 14 14 10 10 9 26 21 21 23 24 25 25 29 30 34 37 40 42 42 45 47 50 51 52 53 56 55 56 58 58 60 61 62 66 69 70 71 72 73 74 74 75 75 76 76 75
17 17 17 17 18 17 16 13 30 26 25 24 26 27 29 31 34 37 40 43 43 45 47 51 52 52 51 52 54 56 57 58 60 63 65 68 70 71 72 73 73 74 75 77 79 79 78 78 79
21 20 19 19 19 18 19 13 17 26 23 26 29 31 34 36 39 41 43 44 45 47 49 48 48 48 52 54 56 57 58 60 63 66 69 71 72 73 73 75 76 78 79 78 78 77 77 77 79
19 18 16 16 15 12 15 15 27 26 28 31 33 35 36 39 41 42 44 46 47 45 45 45 48 53 56 56 58 60 63 65 68 71 73 74 73 74 77 79 79 78 78 79 79 80 81 80 81
10 11 11 13 15 14 20 18 28 27 29 31 33 35 38 39 42 42 43 43 43 45 48 49 53 56 58 61 62 65 68 71 72 75 77 76 75 78 82 81 80 81 81 83 84 85 87 87 85
10 11 13 15 17 19 19 26 28 32 31 31 33 36 39 40 40 40 40 44 43 47 51 52 55 58 61 63 65 68 70 72 73 77 81 83 84 85 91 86 84 83 81 82 88 92 93 93 87
14 15 17 17 21 21 13 19 23 32 39 36 37 35 38 38 39 40 41 44 47 50 53 57 58 60 65 69 73 75 75 75 77 77 82 83 84 93 91 87 85 82 83 86 83 77 72 68 63
15 17 19 22 22 25 26 21 31 36 38 38 38 36 35 38 40 43 45 47 48 52 56 59 63 67 71 74 75 76 79 80 82 85 82 85 92 93 92 88 84 80 74 68 64 56 51 50 48
18 22 24 24 27 29 31 27 32 34 38 39 36 36 34 37 41 45 47 51 54 58 60 64 69 74 78 79 80 79 80 81 83 85 99 94 94 91 88 83 75 66 57 50 49 48 47 47 47

GFSSGP_500_spd_018.txt.gz
Wind_Speed
16 15 14 12 11 9 9 18 31 25 24 22 18 18 19 19 19 24 23 22 24 27 24 24 19 16 14 12 9 7 7 6 8 10 12 13 14 14 13 14 14 14 14 14 14 14 14 14 15
14 15 13 11 9 9 13 27 28 26 16 14 16 20 24 16 22 24 23 23 25 20 18 13 10 8 8 7 6 5 5 8 8 9 10 11 10 9 9 10 12 13 15 15 15 15 15 14 15
14 14 13 10 11 10 28 23 25 25 16 19 16 22 21 20 22 18 21 18 15 12 9 6 7 7 6 5 3 4 4 4 5 7 8 11 11 11 11 10 10 10 11 12 12 12 13 14 14
14 12 9 10 8 15 24 29 32 20 19 16 19 20 20 19 11 13 13 11 7 5 3 3 4 3 1 1 1 2 3 5 5 6 8 8 8 9 9 10 10 11 12 13 12 12 12 11 11
9 10 13 8 13 25 31 39 30 15 11 18 14 18 11 10 10 9 7 5 2 2 2 2 3 5 7 9 8 7 6 5 5 5 7 8 8 9 9 10 10 10 11 12 13 14 13 14 12
15 12 9 13 24 32 36 31 11 10 9 8 16 10 7 5 7 7 5 5 6 6 6 5 4 5 7 7 7 6 5 6 8 9 10 10 10 10 11 10 10 10 11 11 11 12 14 15 16
19 15 8 23 27 22 20 13 11 16 15 13 10 5 3 2 9 13 13 12 9 8 6 5 6 5 5 5 6 8 9 10 11 12 13 14 15 15 15 15 15 15 16 16 16 18 18 18 18
22 18 16 26 25 29 11 14 14 13 16 6 11 8 9 7 9 9 8 8 7 5 3 2 4 5 7 8 10 12 13 14 15 16 16 17 18 19 19 20 19 21 24 24 24 24 24 23 22
20 14 13 14 10 23 10 13 15 12 6 11 10 7 5 7 5 6 5 3 1 1 5 8 9 11 10 13 14 14 16 16 18 19 21 21 23 23 20 25 24 25 27 27 26 27 27 26 27
24 11 17 20 21 21 13 13 11 12 12 14 10 8 8 6 5 3 2 2 3 6 8 9 10 11 14 15 17 19 20 21 21 21 23 25 26 25 27 25 27 27 28 29 28 29 30 29 28
11 11 23 22 17 14 13 11 10 10 10 12 11 8 6 5 3 3 5 5 6 8 9 9 12 15 17 18 20 21 23 24 24 25 27 28 27 27 28 29 30 30 31 35 36 36 34 35 34
12 20 23 21 16 14 15 12 9 9 9 6 6 5 3 3 4 5 5 6 7 7 10 11 15 16 21 23 24 25 26 27 28 28 29 30 30 30 32 34 37 39 39 40 40 39 39 38 35
12 11 10 12 13 12 7 8 7 7 5 6 6 3 3 4 4 5 7 10 11 13 14 16 19 22 25 25 28 30 31 32 31 31 32 34 34 34 36 38 39 39 41 41 38 38 37 35 34
10 11 12 11 10 9 6 6 7 7 6 7 5 4 4 5 6 8 11 13 15 17 18 22 34 17 26 28 30 33 34 35 36 36 36 35 36 37 40 40 40 40 38 37 36 36 36 36 36
10 7 5 2 0 2 5 6 9 6 8 6 7 7 8 9 11 12 13 16 19 21 23 20 20 34 31 32 33 36 36 39 41 42 41 41 42 43 43 43 41 40 40 41 41 40 39 39 40
7 4 2 1 3 4 6 9 6 7 7 8 10 9 11 16 17 19 16 21 21 21 19 32 32 32 33 37 38 38 41 44 46 47 48 47 45 46 46 47 46 45 46 48 50 50 49 49 50
6 3 1 11 7 5 5 2 15 10 9 10 11 11 15 16 22 24 23 22 23 27 28 33 38 39 41 40 40 43 47 48 50 52 54 53 52 51 51 50 50 49 50 52 54 56 56 58 58
7 2 11 7 5 7 6 8 11 12 12 11 13 17 19 18 24 27 22 26 28 28 33 37 40 40 42 46 45 49 51 52 53 54 57 55 56 54 55 55 54 54 55 57 59 60 61 62 63
14 15 9 15 7 10 10 11 20 12 17 16 17 18 19 28 27 27 26 28 31 32 35 39 41 45 46 49 51 52 54 56 58 59 59 57 59 57 58 58 59 60 63 64 66 66 65 66 68
15 14 12 15 11 11 14 13 20 12 18 19 19 22 26 28 28 28 30 31 33 36 39 42 44 47 48 51 53 54 56 58 58 58 59 60 61 60 60 61 65 66 67 69 70 70 70 70 71
12 14 13 12 11 10 13 12 23 17 18 23 25 25 28 28 30 30 31 34 36 40 43 45 47 47 49 53 56 55 55 56 57 59 61 63 62 63 65 69 70 70 72 73 73 75 75 76 74
16 9 14 15 15 13 12 8 26 24 26 25 27 28 30 32 32 34 34 37 41 43 45 46 49 51 51 52 53 53 53 57 60 61 62 63 65 68 71 72 73 73 75 75 77 76 75 76 76
17 16 17 17 17 17 16 12 22 29 34 35 26 27 30 34 36 37 39 42 43 43 45 48 50 53 53 51 52 54 57 58 60 62 64 66 68 72 74 76 77 77 79 80 81 81 80 79 78
19 20 20 20 19 18 9 14 20 15 32 22 31 32 33 35 38 41 42 46 45 44 45 48 49 49 53 55 52 53 58 60 61 64 67 70 74 75 76 79 80 80 79 77 79 82 85 83 82
14 13 11 8 9 12 12 11 27 26 28 37 41 39 37 38 39 41 43 45 50 49 46 45 44 48 51 54 58 63 63 65 69 73 76 76 77 78 80 82 84 85 84 81 86 90 89 89 88
8 8 6 8 10 11 18 16 27 23 27 34 37 38 38 38 39 44 45 45 44 45 47 47 48 51 54 57 60 63 67 72 75 77 80 80 80 80 82 83 84 87 92 91 96 93 89 86 85
9 10 11 13 15 16 9 18 29 30 29 34 36 35 44 41 42 44 43 43 42 42 46 49 51 54 56 60 63 67 72 77 79 80 80 80 79 79 83 88 90 91 91 92 89 85 80 75 71
11 13 14 16 19 17 10 17 28 31 33 41 40 44 42 41 41 41 41 40 43 45 47 49 52 57 61 65 71 77 80 83 82 80 79 79 78 81 82 84 88 88 87 84 77 67 58 52 49
14 16 17 19 22 25 24 20 34 36 39 39 39 42 42 34 36 38 42 42 44 47 50 55 59 63 69 76 80 82 83 83 82 79 79 79 80 81 83 84 83 80 73 65 59 53 48 45 45
17 20 22 24 24 28 29 23 30 33 34 35 38 38 37 32 35 37 41 45 49 53 57 62 66 71 76 80 82 84 82 81 80 79 81 81 81 81 82 80 73 64 58 53 48 46 46 47 47

GFSSGP_500_spd_021.txt.gz
Wind_Speed
14 15 14 15 14 20 15 18 25 29 29 24 24 18 24 25 25 25 24 23 23 23 23 22 17 12 10 7 6 4 2 2 3 4 5 7 8 8 7 7 7 8 9 10 10 11 12 13 13
17 16 14 12 12 20 23 21 28 21 19 22 25 27 25 24 24 26 24 21 22 21 17 13 12 9 9 7 4 1 0 1 3 6 7 9 10 10 9 9 9 9 10 9 10 10 9 9 10
18 14 15 13 20 21 22 27 28 24 29 26 30 25 22 19 16 20 21 17 20 12 13 10 8 9 8 7 5 2 0 4 5 5 4 5 6 7 8 8 8 8 8 9 10 10 10 9 8
20 19 18 18 17 20 20 25 22 25 26 29 28 27 18 10 15 19 13 12 12 12 9 7 5 2 2 2 3 5 6 4 2 1 3 5 6 7 7 7 8 8 9 11 11 12 12 12 12
11 11 20 16 16 14 16 20 27 27 28 31 29 11 13 10 12 11 10 11 10 8 7 4 6 7 8 8 7 5 3 2 3 5 6 8 8 9 9 9 9 10 10 10 11 11 12 14 15
7 18 19 21 18 15 22 22 25 28 26 26 23 7 8 7 8 9 9 10 9 7 7 8 6 6 6 5 2 2 4 6 7 9 10 11 11 12 12 13 14 14 14 15 15 15 15 17 16
21 23 21 18 18 18 21 25 33 37 38 29 19 8 3 0 2 8 12 11 11 10 9 7 4 3 3 3 6 7 10 11 12 12 12 13 13 16 18 17 19 19 20 21 22 24 23 23 22
25 22 18 21 20 25 25 26 29 35 28 17 7 3 4 6 8 13 13 12 9 7 5 3 1 2 4 8 9 11 14 15 17 17 16 18 17 20 23 22 21 21 22 22 23 24 22 23 24
21 18 11 13 21 21 22 23 25 24 14 10 2 4 6 8 7 9 9 7 6 3 2 3 5 7 9 10 12 13 16 17 19 20 20 21 21 23 23 25 24 24 23 23 24 25 26 26 26
21 14 12 18 19 18 22 22 18 18 13 6 4 5 6 8 8 7 5 3 1 2 1 6 6 6 10 12 14 15 18 20 22 24 26 25 25 24 22 23 24 25 27 29 31 32 32 32 31
17 14 20 23 26 24 18 13 12 11 7 7 7 7 5 7 8 6 5 4 4 3 5 9 10 11 12 13 17 19 21 21 23 26 27 27 27 28 29 29 29 31 33 34 34 34 35 34 32
18 26 21 21 23 26 10 8 4 1 2 5 5 5 7 8 8 6 4 5 4 7 8 14 14 14 18 20 23 22 24 26 27 27 29 31 32 32 32 33 35 36 36 37 37 38 37 33 31
25 13 12 20 18 11 6 3 3 3 3 1 3 5 7 6 6 5 6 6 7 12 14 14 19 21 19 22 24 26 28 31 32 31 33 33 34 35 35 37 38 39 39 39 38 37 35 35 35
8 7 10 9 8 6 4 3 3 3 6 5 4 5 6 7 6 7 10 13 14 16 18 17 25 8 22 22 26 30 33 35 34 34 38 38 37 40 40 41 40 38 37 37 36 36 35 34 36
13 12 12 10 7 2 1 3 5 4 5 5 9 8 8 9 8 8 12 18 18 21 20 26 24 29 20 30 31 34 32 35 37 44 43 43 42 45 45 45 43 41 41 41 41 41 41 42 43
10 7 9 9 4 1 3 6 5 5 5 5 8 12 13 14 17 13 14 18 21 22 25 29 34 31 35 35 36 40 42 42 47 48 49 50 47 46 47 46 47 46 46 46 46 47 48 51 53
11 9 6 10 7 2 5 7 7 4 4 8 10 11 15 20 22 23 19 16 21 25 27 30 32 35 37 34 42 44 46 49 51 53 55 56 55 53 49 50 52 52 52 53 53 54 55 56 58
12 6 7 14 4 3 5 10 11 10 3 7 11 19 20 23 26 25 24 23 27 29 30 35 37 40 41 45 46 47 50 50 53 57 56 54 54 53 55 58 59 59 58 57 59 60 61 63 63
14 15 14 13 2 3 5 8 17 18 14 15 18 21 24 26 26 28 29 29 29 33 36 36 39 42 45 48 49 51 52 55 57 58 57 57 57 58 57 57 59 62 62 63 65 67 68 69 71
14 14 16 10 5 8 11 12 19 20 17 20 17 20 24 27 29 30 31 32 34 35 38 39 42 45 48 49 50 52 54 56 54 54 56 58 60 60 62 63 64 65 68 70 72 73 74 75 77
13 13 13 14 9 7 12 15 18 15 16 18 18 21 22 25 27 29 31 35 36 39 41 44 46 47 49 51 51 52 51 50 52 54 56 59 61 61 64 67 69 73 76 78 80 80 80 79 79
10 7 12 13 13 12 14 16 22 20 19 22 26 25 29 28 26 25 33 37 40 42 44 45 47 46 47 49 50 50 49 51 53 55 58 60 63 67 70 74 78 79 81 82 82 83 84 84 84
10 12 13 15 15 14 16 16 19 27 29 29 29 27 27 24 29 33 36 38 41 41 43 46 48 50 50 47 46 47 49 52 54 57 60 64 68 73 77 80 82 82 83 83 83 84 84 84 84
15 16 17 19 19 15 15 17 28 27 29 31 28 18 27 39 41 40 40 41 41 41 41 42 44 47 51 51 52 52 51 53 56 60 66 72 76 79 82 84 84 84 82 83 83 83 84 84 84
11 11 11 10 8 11 12 20 22 24 32 35 35 38 40 42 43 42 43 46 46 44 41 42 41 43 47 50 51 54 59 63 67 73 77 80 82 85 86 85 85 84 85 85 84 83 84 87 87
6 6 7 6 9 8 14 17 17 20 26 32 36 39 42 39 43 44 46 44 44 43 43 43 44 46 47 50 55 58 63 68 73 79 82 83 85 84 81 81 81 81 82 82 82 82 83 84 83
6 8 9 9 9 9 16 18 22 23 29 35 34 40 44 41 47 41 38 38 37 37 40 42 44 46 51 56 61 66 72 76 80 84 85 84 81 81 79 81 82 82 83 83 82 79 74 69 63
7 9 11 12 13 9 12 25 29 32 34 36 41 33 46 49 42 37 37 39 40 41 42 46 51 56 60 65 71 76 80 83 86 86 83 81 81 81 81 81 83 83 81 77 71 63 57 52 49
9 13 16 18 19 17 11 20 26 34 35 39 40 42 41 37 36 34 34 37 39 42 46 51 56 62 67 70 75 80 84 87 88 86 81 82 82 82 83 81 77 74 69 63 60 56 49 43 44
10 14 17 21 22 23 24 14 24 30 32 34 32 35 36 36 32 33 37 40 44 49 53 58 62 67 72 76 81 84 86 87 85 79 78 80 83 82 78 73 69 66 63 60 55 47 42 43 45

GFSSGP_500_spd_024.txt.gz
Wind_Speed
31 27 19 18 18 25 24 29 29 27 28 27 28 26 23 23 23 29 27 25 25 24 25 22 19 15 13 12 9 8 5 3 3 2 6 7 9 10 9 9 9 8 8 9 10 11 11 11 12
13 11 14 11 14 24 27 27 27 28 30 25 29 25 29 24 32 32 27 29 27 24 22 17 15 14 11 11 9 6 4 1 4 4 5 5 5 5 5 4 4 5 6 7 7 8 10 10 11
20 19 18 17 19 25 27 28 27 28 23 26 22 21 26 31 36 35 29 28 23 21 15 15 11 10 10 7 6 4 2 5 3 1 1 3 5 5 6 6 7 7 9 9 11 11 11 11 12
23 20 21 26 31 30 30 27 31 21 31 22 20 24 23 32 32 32 28 23 20 14 13 9 6 2 3 4 5 6 5 3 2 2 5 6 8 8 8 9 10 10 11 11 13 13 13 13 14
30 22 28 31 25 33 18 20 23 28 16 21 26 21 29 28 24 23 20 16 14 12 9 3 6 7 6 6 6 4 3 3 4 5 7 10 11 11 12 14 15 15 15 16 16 16 16 15 15
21 25 22 24 27 26 32 25 19 13 18 22 22 21 21 19 19 20 17 14 12 8 7 9 9 7 6 3 1 3 5 6 7 10 12 14 15 15 15 17 18 19 19 21 21 22 22 23 23
11 15 21 20 19 23 13 17 22 19 18 23 27 24 22 13 14 15 12 12 10 11 11 10 7 4 3 4 6 7 9 11 12 13 15 17 18 20 20 21 23 23 23 23 23 24 24 24 23
25 30 23 17 18 19 17 15 24 24 21 21 14 18 15 7 5 8 11 13 12 10 8 7 5 5 7 7 9 10 11 13 15 18 19 21 22 24 25 27 27 24 24 24 24 24 23 23 23
32 27 22 21 23 20 20 23 30 30 26 16 9 14 12 8 4 9 11 10 8 7 7 6 7 10 10 8 9 11 13 17 18 19 20 21 23 24 26 26 26 25 26 27 27 28 29 30 30
26 30 23 25 20 19 15 15 22 25 23 10 11 10 10 6 9 10 7 6 5 6 9 10 10 11 8 9 10 13 17 19 20 20 21 22 23 24 25 26 27 28 29 31 32 32 32 33 34
25 27 14 15 14 13 13 18 21 17 13 12 10 7 5 7 9 7 6 6 6 9 13 12 10 13 11 12 15 18 20 23 24 25 24 25 24 26 28 29 31 33 35 36 37 36 36 36 35
22 14 10 14 18 17 18 11 2 3 3 5 7 6 6 7 6 5 5 5 7 9 12 15 15 12 15 15 16 17 22 24 26 29 29 28 30 32 33 34 35 36 37 37 36 36 36 36 35
17 19 16 16 19 16 13 5 5 6 8 7 5 3 4 5 6 5 4 6 8 11 14 21 17 18 16 18 16 24 26 28 26 27 27 27 35 36 37 38 39 39 37 35 35 34 33 32 34
24 16 18 16 15 6 7 4 4 4 4 7 7 5 5 5 6 6 6 8 11 12 14 15 17 18 10 26 27 31 31 32 35 32 32 38 39 40 41 42 42 40 37 35 35 36 35 35 35
21 15 15 12 9 7 5 5 3 2 2 3 5 6 6 8 8 8 11 14 15 17 17 20 20 17 22 23 27 31 34 39 38 39 41 42 42 42 42 41 41 41 41 40 42 42 43 43 43
17 17 18 13 8 7 5 0 3 6 5 4 4 6 7 9 9 10 11 7 18 21 23 24 25 24 27 32 31 33 39 42 41 46 46 47 46 42 39 39 41 44 46 46 45 46 46 47 48
14 19 15 11 7 2 2 5 3 5 4 3 6 9 11 12 12 12 13 15 18 24 29 30 29 32 34 37 39 41 42 42 47 50 51 51 50 48 47 45 46 46 47 49 50 52 53 54 54
14 16 12 11 7 2 6 6 7 1 1 5 11 14 14 17 20 19 18 21 24 24 26 31 35 36 40 44 47 42 43 49 50 51 52 51 50 50 51 49 50 51 52 52 53 56 59 61 63
6 5 6 6 4 0 6 14 12 8 5 8 13 18 21 21 26 27 26 27 26 30 34 35 41 46 47 49 49 48 53 53 53 53 52 51 52 52 54 56 56 56 58 60 64 66 68 70 71
13 10 8 2 6 7 11 12 16 16 17 16 17 18 19 20 24 24 25 25 28 31 36 42 45 48 50 52 52 54 54 55 54 53 54 56 57 58 59 60 63 66 70 73 75 77 77 79 79
17 15 11 11 8 9 14 14 15 18 20 19 17 16 19 22 22 25 25 28 30 33 37 41 45 48 49 51 52 53 52 52 51 52 54 56 58 60 63 67 72 75 79 81 83 84 85 86 84
7 10 13 15 13 14 16 20 20 20 23 23 18 19 21 22 19 22 23 27 33 36 37 40 44 48 51 52 52 51 51 51 53 54 55 59 61 64 69 74 77 80 83 86 87 88 87 87 86
9 12 13 16 15 14 20 21 27 27 26 24 21 17 20 24 26 23 32 33 35 38 40 44 48 49 50 48 45 45 46 48 49 52 56 60 65 70 75 79 82 84 85 85 85 84 83 84 85
12 13 16 18 18 19 21 23 28 28 24 26 21 24 28 27 27 33 40 39 40 44 46 52 51 48 45 44 43 42 44 49 54 59 64 69 74 78 82 85 87 88 89 87 85 83 83 85 86
9 8 8 10 11 12 16 20 24 27 30 28 30 29 30 37 36 33 34 37 44 46 43 40 38 39 38 38 41 47 52 58 63 67 72 78 82 86 89 89 90 88 85 84 84 84 85 86 87
4 4 5 6 6 10 13 18 25 24 28 32 30 27 32 32 35 38 43 47 49 42 36 31 31 32 36 40 46 52 57 63 69 73 78 83 87 90 92 91 89 87 85 85 87 88 88 86 85
1 1 2 3 6 11 15 20 23 26 28 29 32 32 33 42 45 46 47 40 38 34 34 35 38 42 45 51 57 62 66 70 75 80 85 88 90 91 91 89 87 88 87 86 85 82 77 72 68
3 5 7 8 7 11 15 19 22 25 31 35 36 38 41 43 43 33 31 33 33 35 39 42 47 50 55 59 63 68 72 77 81 84 87 89 88 88 87 88 87 85 82 79 69 71 67 63 60
4 5 6 9 12 14 17 19 21 26 31 32 32 33 34 33 31 33 39 37 39 41 43 47 51 56 60 64 69 73 77 81 85 87 88 89 88 88 90 91 92 82 70 66 67 68 57 51 47
3 6 9 12 14 17 18 20 26 29 32 32 32 30 27 28 32 34 35 38 40 44 47 52 55 59 63 69 73 77 82 86 88 90 90 90 92 93 91 85 72 68 59 63 70 76 48 44 42

GFSSGP_500_spd_027.txt.gz
Wind_Speed
26 21 16 25 25 28 33 35 33 29 31 28 23 22 21 19 22 24 22 27 30 30 29 31 26 23 18 16 10 9 7 4 2 2 3 4 5 5 4 5 5 5 7 7 9 11 13 14 15
21 27 23 19 21 25 27 28 31 30 30 27 26 26 27 27 26 30 22 31 35 32 31 26 22 18 15 11 10 7 5 1 3 2 2 3 4 5 6 7 8 9 10 11 12 14 14 14 14
19 22 28 24 22 23 30 27 27 25 30 31 29 30 30 24 23 21 29 36 39 34 30 20 17 13 9 6 4 4 3 5 4 5 6 7 8 8 9 9 10 12 13 15 16 17 16 16 17
19 19 16 16 25 25 27 30 29 29 30 27 35 33 23 13 20 30 35 40 37 32 21 17 10 5 3 5 6 5 5 5 7 9 10 11 12 12 13 14 15 17 18 19 19 20 21 20 21
24 26 25 28 26 26 31 32 29 26 28 21 16 13 17 18 26 35 40 36 29 21 17 9 6 7 8 9 7 6 7 9 10 12 14 15 16 17 18 19 19 20 21 23 24 25 25 25 26
32 27 31 26 31 28 22 26 24 20 23 32 16 20 19 22 27 28 28 24 18 15 10 10 11 10 8 7 7 8 9 11 12 15 16 18 19 20 21 22 22 24 25 27 27 28 28 29 29
30 29 27 33 22 32 29 29 18 18 10 13 13 21 23 25 29 29 25 20 15 12 12 13 11 10 8 8 10 10 11 12 15 16 17 19 20 22 25 26 27 29 30 30 28 27 27 27 27
10 28 28 29 33 27 29 32 31 16 16 14 17 23 27 27 22 19 15 14 13 12 13 11 11 9 9 10 11 12 13 14 16 18 20 22 23 25 25 26 27 27 28 28 28 28 28 29 29
19 16 25 20 24 25 16 15 9 11 16 17 19 19 18 18 8 5 7 9 11 12 11 11 11 10 11 12 13 14 15 18 21 22 22 22 22 23 23 25 26 28 28 29 31 32 34 35 34
26 24 21 19 8 8 16 11 14 20 20 16 13 14 13 12 6 6 7 8 9 10 10 11 11 11 12 12 14 17 18 21 22 22 24 24 24 24 25 26 28 29 30 32 34 35 35 35 35
29 29 19 18 18 10 9 9 15 18 13 7 11 7 8 6 7 7 7 6 9 10 12 9 11 12 11 16 19 20 20 22 23 24 27 27 28 26 27 31 31 31 31 33 34 35 33 33 33
16 16 15 10 7 6 4 9 16 8 4 0 8 11 7 6 7 8 8 8 9 11 10 9 12 13 14 19 23 24 21 22 28 27 27 29 27 26 34 34 34 33 34 35 34 33 31 30 31
17 16 17 14 10 12 11 13 9 4 4 5 7 8 7 8 9 9 8 6 8 10 12 15 13 18 21 21 16 22 23 28 29 28 31 30 31 34 34 37 37 37 34 33 33 32 32 32 32
16 10 9 13 7 11 10 12 7 10 10 9 7 6 8 9 8 6 4 7 8 10 13 19 17 16 20 15 20 25 29 33 30 33 35 36 38 37 37 39 40 39 36 35 34 34 33 33 34
9 12 9 8 10 8 11 11 10 11 12 13 11 10 7 5 5 6 8 11 13 16 16 20 20 20 16 21 24 27 30 35 39 40 37 40 44 42 41 40 39 39 40 40 38 37 38 39 38
16 12 12 12 12 12 10 7 11 11 8 8 10 7 6 8 8 7 9 13 14 17 20 20 22 21 26 29 34 38 39 42 38 42 44 46 47 45 43 40 39 39 40 40 42 42 41 42 43
16 19 15 13 12 9 8 7 3 4 7 10 7 7 9 10 11 10 10 14 16 17 20 19 22 26 21 37 42 43 44 44 45 44 49 50 50 48 45 42 42 42 43 42 43 44 47 50 52
21 20 17 15 8 7 7 3 2 4 9 10 6 9 10 10 12 15 17 18 20 21 19 23 27 29 38 32 44 46 48 42 43 49 54 53 51 49 48 47 46 47 49 50 53 56 58 61 62
20 25 15 15 9 6 7 5 5 5 9 9 9 12 14 15 15 17 20 20 22 22 24 27 30 39 43 47 45 49 48 53 53 55 55 53 50 49 48 50 52 55 58 60 62 64 67 69 71
16 21 9 6 2 6 8 7 9 10 9 12 14 15 16 16 21 25 26 25 24 26 27 34 39 43 48 50 52 52 54 56 57 56 54 52 51 52 54 57 61 65 68 71 74 76 78 79 81
14 12 11 8 8 10 13 14 15 15 16 16 14 15 15 19 22 24 23 21 23 25 31 37 41 45 49 52 54 56 55 55 54 52 50 50 53 57 61 65 69 72 76 79 82 84 86 86 87
11 12 13 12 14 20 20 22 19 19 19 20 19 19 18 18 21 29 23 24 25 32 40 44 44 48 52 54 59 58 55 53 52 50 53 56 60 64 67 71 74 77 81 83 86 87 88 89 88
11 12 13 14 15 19 24 26 23 24 23 24 24 24 25 20 23 27 32 29 37 39 42 45 46 51 54 54 48 47 46 47 50 52 55 59 63 68 71 75 79 83 86 88 89 90 90 89 87
10 11 14 17 19 23 25 28 28 26 25 24 23 23 21 23 25 31 31 34 40 38 37 45 48 54 48 44 43 43 45 48 52 56 61 65 68 73 78 82 86 89 90 89 89 88 88 88 89
13 15 16 17 17 19 20 21 19 20 21 23 25 26 26 26 28 28 32 35 34 41 46 48 53 44 38 38 39 43 47 52 57 61 67 71 76 81 85 87 88 90 90 90 90 90 89 90 90
9 9 10 10 9 11 13 15 19 20 23 24 25 25 27 26 32 30 34 40 47 48 49 52 39 35 37 40 44 48 54 58 63 68 72 77 80 84 88 91 93 95 94 94 95 96 94 87 79
6 6 5 4 5 7 8 10 13 16 20 23 25 26 28 31 35 40 44 43 42 44 41 34 37 39 42 45 50 55 60 65 69 73 78 81 85 88 91 94 96 97 98 99 98 96 84 74 72
7 4 3 1 3 7 10 11 13 17 19 19 21 23 26 29 31 33 35 36 37 34 36 39 41 44 47 52 57 61 66 70 75 78 81 84 89 93 97 99 100 100 99 93 87 71 68 70 65
7 5 2 3 7 10 13 14 15 17 18 19 21 23 24 27 29 32 35 36 36 39 42 44 46 50 53 57 62 67 70 74 77 81 85 89 92 96 99 100 99 95 87 68 72 69 66 62 65
5 5 6 8 11 14 16 17 19 20 21 22 23 24 27 30 34 38 40 40 42 43 45 47 50 54 57 61 66 69 73 76 80 84 88 92 95 99 99 100 97 86 75 67 59 54 63 65 68

GFSSGP_500_spd_030.txt.gz
Wind_Speed
23 26 23 26 31 37 42 37 40 37 33 32 29 26 25 30 29 24 25 17 20 22 25 30 31 30 28 20 13 9 7 4 1 2 1 1 3 5 6 8 10 11 11 12 13 15 16 17 17
25 25 26 23 21 26 31 32 33 35 30 26 29 27 26 23 25 21 18 16 21 24 28 31 28 26 21 14 10 8 6 3 3 4 3 5 6 8 9 10 12 13 14 15 17 18 18 19 18
25 26 21 20 19 17 28 31 25 30 32 29 32 36 31 21 12 19 20 18 23 28 32 30 25 19 14 10 8 6 5 4 5 5 7 9 11 13 15 15 16 17 18 19 20 21 22 23 23
16 19 20 24 21 24 28 25 32 29 30 32 31 29 30 36 28 18 18 23 28 32 31 24 19 14 9 6 5 6 6 7 7 10 11 13 15 17 18 19 21 22 23 24 25 25 27 27 28
21 22 21 20 28 25 23 32 24 28 37 26 27 20 27 16 12 14 19 23 25 24 22 18 14 9 6 7 7 7 8 9 11 13 14 15 18 20 21 22 23 24 24 26 27 29 31 31 30
20 23 25 23 19 24 21 24 26 23 14 23 26 25 23 13 15 19 19 22 20 17 16 14 10 7 8 8 8 9 10 11 13 14 16 19 21 22 23 25 27 28 28 29 30 30 29 29 28
24 27 27 22 24 29 26 29 27 19 19 11 13 13 13 16 20 21 22 21 17 17 14 9 8 9 9 9 10 11 12 13 15 17 18 20 23 25 27 28 28 25 24 25 25 26 26 26 27
21 24 31 32 29 31 25 17 20 17 12 7 7 15 18 19 19 20 21 18 17 15 9 8 10 10 11 12 12 12 15 17 16 18 21 24 27 27 27 28 27 27 28 28 29 28 30 30 30
13 26 29 25 28 27 26 24 26 26 7 13 11 15 14 11 14 14 13 10 8 7 9 9 10 11 13 13 14 15 17 17 18 20 21 22 25 27 29 28 28 28 30 31 30 30 32 33 34
14 19 35 31 26 25 30 25 20 10 13 10 10 11 9 7 9 7 4 4 6 6 5 6 9 10 13 14 16 18 21 19 19 20 22 25 26 28 30 30 28 30 34 34 34 34 34 34 34
17 14 20 14 6 3 7 8 7 13 10 7 10 8 7 8 8 6 5 4 4 4 7 9 10 11 13 15 18 20 23 22 23 23 26 29 28 28 29 30 32 37 35 36 36 36 35 33 32
24 25 9 6 1 5 3 6 10 11 5 2 6 10 10 9 8 7 6 5 7 8 6 7 10 13 16 19 19 21 25 26 26 27 28 27 30 33 32 35 36 37 37 36 36 35 32 31 30
26 17 8 8 6 3 3 5 8 6 3 3 5 9 9 8 7 4 5 6 7 8 7 10 16 18 19 21 21 25 18 22 27 30 29 31 33 34 37 42 41 40 38 37 35 34 32 32 31
16 11 8 7 5 1 4 9 7 8 7 8 8 9 8 6 3 3 4 5 6 9 14 17 20 21 21 23 23 19 21 24 29 32 32 30 36 35 40 40 41 41 41 39 36 35 33 33 33
14 12 7 6 9 7 9 10 11 9 10 13 11 8 6 6 2 2 4 7 11 14 17 21 22 23 23 20 22 24 21 25 31 33 36 42 44 41 42 42 42 41 40 39 39 38 37 37 35
4 7 7 6 9 13 11 11 11 11 11 13 13 11 10 6 5 6 7 9 14 15 19 23 21 21 21 25 22 25 24 38 35 38 47 47 44 47 48 46 43 41 40 39 39 39 39 41 42
10 14 8 10 17 14 12 13 10 12 12 14 13 14 11 7 7 10 10 10 14 18 19 21 20 26 20 24 34 35 41 34 40 51 50 49 51 53 51 47 43 40 38 39 42 45 47 49 52
13 12 12 15 14 15 15 13 11 12 11 8 9 8 8 8 9 11 12 10 13 15 17 19 24 27 29 32 26 46 45 50 51 52 54 55 54 54 50 45 42 44 46 48 52 55 58 59 61
16 17 17 16 15 16 14 10 9 8 8 9 9 10 11 12 11 13 16 18 19 20 22 23 16 24 35 40 45 46 51 53 54 56 56 52 50 46 43 46 50 54 57 60 62 65 68 70 73
23 22 16 14 15 15 10 9 9 7 8 9 12 11 12 14 14 15 17 20 19 17 22 21 32 38 43 48 51 52 53 57 56 54 51 47 44 46 50 54 58 62 65 68 71 74 76 79 81
21 23 22 15 13 12 10 11 10 10 11 14 14 14 16 17 15 18 20 20 24 23 31 35 39 43 47 48 51 52 58 55 52 49 45 45 49 54 59 63 66 69 70 72 75 78 81 83 84
17 18 24 14 14 15 16 18 16 16 17 18 19 19 20 21 22 21 21 25 24 33 38 39 41 45 48 50 55 58 57 52 50 49 50 53 57 59 62 65 68 71 75 79 82 83 84 87 91
13 13 13 12 15 17 18 21 16 19 21 23 24 24 24 24 26 23 23 27 33 35 38 42 45 46 42 50 54 58 55 48 48 51 53 56 58 61 66 69 74 78 81 83 85 87 91 95 98
14 14 14 15 16 19 21 23 20 21 22 23 22 23 23 25 23 27 29 32 38 36 44 38 38 53 53 50 51 50 47 47 49 52 56 59 63 67 71 74 77 81 85 88 91 94 98 99 97
14 15 16 17 17 17 17 19 14 13 14 16 19 21 23 23 23 28 31 32 39 40 42 47 52 52 48 50 47 47 49 51 54 57 61 65 68 72 75 78 83 86 89 93 95 98 99 101 103
16 15 14 12 12 12 11 7 7 7 9 11 12 14 16 20 23 25 28 33 39 42 45 48 49 47 48 46 48 48 50 54 57 60 64 68 72 75 79 84 88 92 94 95 99 101 104 103 92
12 11 9 8 5 4 5 4 3 5 6 8 10 12 14 17 19 23 28 32 35 39 42 44 44 43 45 47 47 50 54 57 60 64 68 72 75 80 86 90 93 97 100 103 103 105 100 87 72
11 9 6 4 3 3 6 7 8 10 11 13 15 17 19 21 24 27 30 33 35 37 38 39 41 44 46 48 52 56 59 62 66 70 74 78 83 88 92 95 98 100 99 101 103 91 76 67 60
11 9 7 5 5 9 10 10 10 11 14 15 17 19 21 24 26 27 29 32 35 39 42 44 45 47 49 53 56 58 61 67 71 75 80 85 89 94 95 97 99 98 100 101 86 67 59 48 36
12 9 7 8 12 13 14 13 17 18 19 20 21 23 25 28 31 33 35 37 40 42 45 48 50 52 54 56 58 61 67 71 75 80 84 87 91 93 96 96 96 97 95 81 62 55 41 33 38

GFSSGP_500_spd_033.txt.gz
Wind_Speed
21 22 26 25 26 31 32 37 38 37 37 33 31 31 29 29 32 33 30 29 27 19 11 17 21 24 22 22 19 14 8 6 6 6 4 2 3 6 8 10 11 13 15 16 18 19 19 18 18
22 21 23 26 23 20 25 31 34 42 37 31 33 35 32 32 31 37 34 31 18 12 14 21 24 22 20 17 14 10 9 7 7 6 5 4 7 9 11 13 15 16 18 20 21 21 21 21 22
19 22 22 21 25 18 20 21 28 31 33 33 30 38 36 35 30 33 34 25 12 12 18 21 22 18 16 14 11 9 9 8 8 7 7 9 10 13 15 17 19 20 21 23 24 25 25 26 26
16 19 21 19 19 22 22 19 28 34 37 23 27 27 29 29 25 33 18 7 10 11 16 17 15 14 13 10 8 7 8 9 8 8 10 11 14 17 19 21 22 23 25 26 27 27 28 28 28
15 13 15 17 21 23 19 19 20 30 21 23 31 26 28 24 31 40 13 8 9 12 13 13 10 12 10 9 8 8 9 8 9 10 12 14 18 20 22 24 25 27 29 29 29 29 28 27 25
16 16 17 22 20 22 23 23 29 24 29 19 14 15 22 17 13 7 4 9 10 11 10 9 11 11 9 9 8 6 8 10 10 12 15 18 20 22 25 26 27 28 28 27 26 26 25 24 24
19 18 21 23 19 21 25 21 17 28 22 25 8 6 9 12 13 10 11 11 13 10 10 12 13 11 10 8 7 9 10 12 14 16 18 19 22 24 25 26 27 27 28 28 28 27 28 29 27
20 20 24 26 23 23 20 24 21 20 15 5 9 7 8 10 9 7 9 9 11 11 12 11 10 11 9 8 9 11 13 14 17 17 20 22 24 23 24 25 27 29 30 31 31 31 32 33 33
18 19 18 26 18 16 18 24 24 25 27 10 3 7 5 4 2 5 3 2 5 8 10 11 10 7 7 9 11 13 15 16 18 19 22 21 22 26 29 29 28 29 30 31 34 36 36 34 35
14 16 20 26 27 28 31 30 11 17 26 13 4 5 1 2 2 2 3 6 6 7 7 6 6 6 9 12 13 15 16 19 20 21 23 24 23 27 30 31 32 30 32 36 38 38 37 34 35
20 13 17 24 26 16 12 8 11 5 4 2 4 5 4 6 5 4 4 4 5 4 4 5 7 8 11 13 14 17 19 20 23 24 24 25 27 28 29 33 35 35 39 41 39 38 36 35 33
15 10 15 13 24 11 11 16 5 6 8 3 2 6 7 5 4 5 5 6 7 5 5 6 9 12 13 16 19 21 25 26 28 23 23 26 28 31 32 31 37 38 42 43 41 39 38 37 34
20 20 9 6 6 14 13 4 2 4 6 4 5 7 5 4 5 6 7 7 6 4 5 8 11 13 16 20 22 23 25 28 29 25 24 28 30 30 33 40 41 39 41 44 43 42 40 37 35
16 16 6 6 12 8 4 3 4 1 2 2 1 3 5 4 3 4 3 3 4 4 7 11 15 18 21 22 24 28 28 29 24 25 26 26 29 38 45 42 42 43 45 45 44 43 41 38 35
12 11 7 3 3 7 6 4 8 5 2 4 5 5 5 5 5 5 6 8 8 10 10 17 19 21 25 28 30 30 29 24 27 28 30 30 43 44 47 48 46 45 44 42 41 40 39 37 36
13 8 5 3 5 8 7 12 11 7 7 6 7 9 9 6 5 5 7 9 11 12 14 18 21 23 26 31 33 29 25 23 27 35 38 42 47 47 49 50 47 44 40 38 36 37 40 42 43
7 5 4 4 10 14 12 11 9 9 11 7 6 12 11 10 13 14 11 11 12 15 20 22 23 25 28 32 28 17 28 26 41 41 48 53 54 52 51 48 44 40 36 37 41 44 46 49 52
5 6 5 10 13 12 12 11 9 10 10 8 9 9 12 11 13 15 14 11 13 17 19 19 20 21 27 27 24 32 44 39 40 47 51 56 53 49 47 44 40 39 43 46 49 53 56 58 61
12 14 15 15 12 13 12 11 8 9 10 10 8 8 9 10 12 13 14 15 18 20 21 21 21 24 28 24 47 48 46 47 50 52 56 55 48 44 41 41 44 47 52 55 58 62 64 65 67
17 16 13 10 10 12 11 11 9 7 7 8 7 8 10 12 14 15 17 19 19 17 16 26 22 32 45 49 49 49 51 52 54 59 57 48 44 43 46 49 53 57 59 61 63 64 66 68 72
18 21 15 13 12 13 12 12 9 8 8 9 10 11 12 14 16 18 20 21 22 23 24 27 35 42 43 46 48 51 50 53 61 56 54 51 51 52 54 56 57 59 62 64 67 69 73 78 81
17 18 20 21 17 16 16 14 12 11 10 11 13 15 16 18 18 21 21 22 25 25 28 33 40 40 43 46 48 45 52 57 50 49 51 53 54 55 56 58 60 63 66 70 74 79 84 86 89
14 16 18 18 22 21 15 16 10 13 13 15 16 17 18 17 17 20 22 21 23 28 31 33 39 42 42 49 47 57 52 50 51 51 53 54 56 58 60 63 65 71 75 78 82 86 90 91 93
14 13 14 16 17 17 14 18 12 14 15 14 14 14 15 15 19 21 22 25 28 32 35 37 40 44 49 49 51 50 48 50 52 53 54 56 58 60 64 67 72 76 80 84 88 91 92 93 96
18 16 16 17 16 16 14 13 7 7 8 9 10 12 14 16 18 21 23 25 29 31 35 37 40 43 46 47 49 49 50 51 53 54 57 59 60 63 68 72 77 81 85 88 91 91 95 98 102
17 16 18 17 13 9 8 3 5 4 3 4 6 7 10 12 14 16 19 21 23 26 30 33 37 40 43 47 49 51 53 53 54 57 58 60 64 68 73 78 82 85 88 92 93 97 100 104 104
17 17 14 10 6 4 2 2 3 5 5 5 6 7 10 12 15 17 19 22 25 28 30 33 37 41 46 48 50 51 52 54 57 59 61 64 68 73 77 82 86 89 92 95 98 99 103 100 86
15 13 11 8 6 4 3 4 5 6 7 8 9 11 14 17 19 20 22 25 27 30 33 36 39 41 44 48 52 55 56 58 60 62 64 68 73 78 83 87 91 93 94 97 98 100 93 78 60
14 12 10 8 7 5 6 6 7 10 12 14 15 16 19 21 23 25 27 29 31 32 35 39 42 45 49 52 54 56 58 59 60 64 69 73 79 84 87 90 92 92 95 98 96 87 71 54 46
14 12 11 10 10 11 11 9 12 15 17 19 19 21 22 24 26 29 31 34 37 40 43 46 47 49 52 54 55 57 58 59 62 67 72 79 83 87 89 90 91 94 97 91 81 68 50 44 43

GFSSGP_500_spd_036.txt.gz
Wind_Speed
24 23 24 25 25 28 31 36 38 38 44 43 43 46 39 36 36 41 38 34 34 33 30 28 12 13 18 17 17 16 13 9 6 9 9 5 3 5 7 10 11 14 15 17 18 19 19 20 20
20 20 21 21 23 22 17 31 37 40 37 41 39 49 40 36 35 35 37 37 34 33 31 27 9 14 14 15 15 14 11 8 8 10 8 6 6 8 10 13 16 18 19 21 22 22 23 22 23
20 19 20 21 21 17 19 26 30 33 34 35 32 42 45 36 34 36 39 39 42 43 31 9 10 14 14 13 15 12 9 8 10 10 9 9 9 11 14 16 19 21 23 24 25 25 25 26 26
18 19 20 19 21 23 27 25 26 26 30 36 32 31 28 33 32 38 38 34 40 34 3 3 10 12 12 14 13 9 8 9 10 11 10 11 12 14 17 19 21 23 25 26 26 25 23 23 23
17 16 14 14 19 20 23 24 24 22 18 21 23 37 31 31 33 35 31 33 10 7 1 9 11 11 12 13 10 9 9 9 9 10 10 12 15 18 19 21 24 25 25 25 26 25 25 25 24
17 16 14 15 19 19 23 24 25 20 24 28 30 25 31 32 29 26 11 18 10 7 6 8 11 12 13 10 9 9 8 7 8 10 12 15 18 20 20 23 25 25 26 27 27 27 26 25 25
19 16 20 21 20 19 21 26 25 21 24 25 23 16 13 18 11 16 13 4 5 4 5 11 12 13 11 11 10 9 8 7 9 14 16 18 19 21 23 22 24 27 27 27 27 26 27 26 28
20 18 19 18 20 18 20 27 27 26 22 24 21 13 5 0 5 9 10 8 3 6 10 10 11 12 13 11 10 10 9 11 14 17 18 19 22 22 22 25 25 28 28 30 29 31 33 35 34
20 16 19 18 22 19 24 28 24 25 24 19 14 10 5 4 5 6 5 3 9 11 11 12 13 13 12 10 9 10 13 14 17 18 19 21 22 23 25 25 27 29 29 32 33 35 39 41 40
15 15 21 23 21 20 19 23 20 16 12 17 22 7 9 6 5 9 8 9 10 11 11 13 12 10 10 9 12 14 15 16 18 20 21 24 25 25 27 27 27 29 30 31 35 37 39 40 40
15 21 21 17 26 27 20 12 10 9 5 6 7 10 10 6 7 9 10 10 11 11 11 9 8 9 10 13 12 14 17 18 20 22 23 22 23 24 25 28 30 30 35 38 39 40 40 39 41
20 18 14 14 16 16 14 15 13 10 6 7 9 10 10 8 7 9 10 10 10 10 9 8 9 10 10 12 14 18 18 22 24 27 26 20 23 26 27 27 30 39 42 42 44 43 43 43 42
18 17 20 5 9 10 15 12 13 7 7 10 10 6 8 8 7 7 8 8 8 7 5 6 8 10 12 16 18 21 23 26 28 31 30 25 25 27 29 28 39 43 46 46 45 44 43 42 41
21 22 10 18 12 13 9 7 9 6 7 9 9 8 7 6 5 4 5 5 6 6 9 10 10 13 16 17 21 25 29 32 33 35 29 19 24 31 34 42 44 44 44 45 44 44 41 38 37
21 12 5 10 12 8 5 3 8 8 6 4 3 3 5 5 5 6 8 8 8 11 11 11 14 15 18 21 24 28 30 34 29 11 24 28 31 39 42 46 48 44 41 40 37 36 34 34 35
10 13 11 7 9 8 6 11 9 7 6 4 0 2 2 6 8 9 11 12 13 10 8 13 14 16 21 24 29 35 44 41 27 32 31 28 40 41 47 48 45 41 39 37 35 34 35 39 41
6 6 8 10 10 11 10 13 8 6 4 4 3 4 6 8 10 11 12 11 11 12 14 16 16 18 24 28 32 30 23 22 44 44 38 37 40 45 48 45 41 39 38 37 39 41 43 47 48
6 10 7 7 7 9 11 9 7 7 5 5 3 7 11 12 14 16 16 17 19 20 21 23 23 24 28 27 41 28 34 51 44 45 47 43 50 50 47 41 38 39 41 43 46 49 52 54 54
9 16 9 10 9 12 11 10 9 7 5 5 5 7 11 12 13 15 17 20 21 23 23 26 24 30 29 28 40 42 45 46 47 49 48 52 55 49 41 41 44 47 50 53 55 56 57 57 61
10 16 12 12 9 9 10 11 8 7 7 6 9 11 12 13 14 15 16 18 17 21 24 25 26 25 33 35 42 45 47 50 54 54 53 50 48 47 48 50 53 55 58 58 58 59 61 66 69
9 21 16 8 7 6 8 10 9 9 8 10 11 13 12 13 15 16 18 19 21 25 28 29 30 30 35 39 43 46 50 55 58 58 55 51 51 52 53 54 56 57 58 59 62 65 68 72 76
12 16 16 11 10 9 11 8 15 14 14 15 15 14 16 16 17 18 17 19 23 26 27 29 31 36 41 45 46 48 50 55 51 51 51 53 53 54 56 57 58 60 61 64 68 72 76 79 82
15 10 11 12 16 18 18 19 21 16 18 18 18 19 19 18 18 18 19 23 26 27 29 32 34 34 34 35 40 44 46 50 53 54 55 55 56 58 58 60 61 63 66 69 74 78 82 85 89
14 12 13 15 16 18 21 19 17 17 20 22 21 20 19 17 17 18 22 24 24 24 24 23 26 29 31 35 37 42 45 50 53 55 57 59 59 59 62 62 64 67 70 75 80 85 89 92 95
15 15 15 15 17 17 16 19 13 13 15 16 16 15 14 15 15 16 16 15 16 17 20 23 26 30 34 36 39 42 46 50 54 56 57 58 59 61 62 64 67 71 75 81 86 90 93 95 96
21 18 17 17 17 19 16 11 11 11 10 8 7 7 7 7 9 11 13 16 17 20 24 27 31 34 37 40 43 46 48 50 53 56 59 60 61 62 64 67 70 76 81 86 90 93 95 96 98
16 17 17 18 15 12 9 8 6 6 7 7 7 8 8 10 12 15 17 20 22 25 29 32 35 38 41 43 46 48 50 53 55 58 60 60 61 63 65 69 75 81 86 90 92 93 95 98 101
19 18 16 13 11 9 8 7 9 8 8 7 9 11 13 16 18 20 22 25 28 31 34 36 39 41 43 46 48 50 53 57 58 61 61 61 63 65 70 75 81 85 89 90 91 94 98 100 86
19 16 14 13 12 11 8 10 10 10 10 11 13 16 18 21 23 25 27 30 32 35 38 40 43 44 46 49 51 54 57 57 60 62 62 63 66 70 75 80 84 86 88 90 93 96 97 80 68
19 16 15 15 14 13 12 10 13 13 14 15 18 20 23 25 27 30 32 35 37 39 41 43 46 48 50 52 55 57 58 60 63 64 64 66 70 75 80 83 84 87 88 92 96 92 75 64 53

GFSSGP_500_spd_039.txt.gz
Wind_Speed
24 26 27 27 27 29 25 16 32 38 37 37 41 41 46 40 44 41 43 39 35 36 37 35 33 33 34 24 21 18 18 13 11 9 11 7 5 5 5 7 9 11 14 15 17 19 20 20 21
22 23 23 25 24 13 10 22 33 34 31 30 37 40 45 45 45 51 47 40 37 40 42 41 38 39 25 18 16 15 15 12 11 11 11 9 7 7 9 11 13 16 18 19 21 22 22 21 20
19 19 20 20 18 14 18 21 40 35 33 36 37 40 39 43 46 45 46 40 40 42 38 40 39 32 24 15 13 14 12 12 12 13 12 10 8 9 12 14 16 19 21 22 22 22 21 19 19
18 17 18 17 12 15 26 32 28 30 31 29 31 33 35 36 38 45 40 42 38 38 36 32 25 20 16 14 13 12 12 12 12 13 11 10 10 12 14 16 19 21 23 22 22 22 22 21 20
19 16 13 12 10 22 23 31 35 30 32 25 29 32 33 31 31 36 32 36 41 43 35 31 17 15 13 13 12 11 11 11 12 12 12 10 12 15 16 19 21 23 22 22 23 22 22 21 21
19 14 11 10 14 26 18 27 27 29 30 27 28 29 26 35 30 30 30 29 35 35 27 16 12 13 11 11 12 10 11 12 11 10 11 12 15 16 19 21 23 23 23 23 23 24 25 23 23
18 14 12 13 21 22 26 18 26 23 27 23 31 24 19 24 28 28 29 23 21 23 14 8 5 10 11 12 11 10 10 10 8 9 13 16 17 20 21 24 25 25 22 24 23 25 26 27 30
20 18 13 15 20 28 30 30 28 23 24 26 22 21 19 18 15 17 28 15 14 14 6 3 10 11 11 12 9 9 8 7 8 13 16 17 19 22 24 25 25 26 25 25 26 27 30 31 35
21 17 11 20 14 20 30 22 25 23 26 23 28 18 24 16 10 6 6 7 4 10 4 10 11 10 10 10 10 9 8 10 13 16 18 20 23 23 25 26 25 25 26 27 28 30 33 37 41
18 16 10 24 30 20 13 17 22 24 25 21 27 14 14 12 9 6 6 7 9 11 11 12 8 6 7 8 9 9 11 13 15 18 22 23 25 25 28 27 25 25 26 26 30 35 39 42 46
17 16 19 18 22 19 21 18 21 17 12 12 15 11 16 17 13 10 9 8 8 6 5 4 7 8 9 10 10 11 12 14 19 23 25 27 28 30 29 29 30 27 24 33 40 42 44 43 44
19 22 20 21 21 24 21 12 15 10 9 6 6 11 12 16 13 12 11 9 7 7 6 8 11 11 11 9 10 12 15 19 24 27 27 29 30 27 31 32 22 25 33 38 43 48 45 44 44
16 17 25 27 24 18 11 3 19 12 12 10 9 9 7 10 7 5 6 7 6 6 8 8 10 9 9 10 12 15 18 23 26 27 30 33 33 35 23 20 31 36 42 45 47 46 45 43 41
19 23 22 22 13 22 15 6 11 9 12 10 11 9 6 5 6 5 6 6 6 8 10 10 9 11 13 14 17 19 23 27 29 32 34 31 26 28 28 26 40 46 45 46 47 44 41 38 36
21 20 19 15 18 16 11 7 7 9 8 8 7 6 6 5 5 6 7 8 8 9 10 11 14 15 15 16 20 25 26 31 35 46 43 32 23 28 34 34 40 44 45 42 39 39 36 35 33
24 22 13 14 8 6 6 5 7 7 5 4 4 3 4 6 7 7 7 8 10 10 11 14 14 16 17 21 23 28 33 41 39 30 31 25 40 38 41 43 43 41 40 37 37 36 36 37 39
9 8 9 5 9 9 8 11 8 7 4 2 2 2 2 5 6 7 7 9 11 13 14 16 19 19 20 24 28 38 36 35 31 43 41 44 44 41 45 49 48 47 41 38 39 40 43 44 46
4 6 8 7 9 10 13 14 10 6 5 3 2 6 6 8 8 10 11 13 15 17 19 22 20 22 24 27 35 36 37 35 46 43 42 43 47 49 51 52 49 46 45 45 47 48 50 51 52
7 7 9 12 5 8 12 12 8 4 4 7 6 8 9 10 11 13 15 16 18 20 23 25 27 25 27 31 35 40 42 42 40 43 45 48 52 48 48 50 48 46 49 49 48 50 52 53 55
7 7 13 10 4 8 11 11 7 6 5 6 8 9 11 13 15 17 18 18 20 22 24 26 29 30 30 32 33 38 43 44 44 44 47 49 49 50 52 51 53 54 53 55 56 56 56 56 60
9 13 12 6 4 7 11 12 9 9 9 9 10 11 13 15 16 17 19 20 23 23 26 29 30 31 31 32 36 38 37 38 41 43 46 49 51 54 56 57 58 57 58 59 60 61 62 64 66
7 7 10 13 6 5 8 10 22 9 15 15 15 17 19 19 19 20 22 23 25 25 28 29 29 30 31 32 32 33 35 37 40 42 45 48 51 55 58 60 61 62 62 62 62 64 67 69 72
14 5 10 11 10 14 6 10 23 9 23 23 23 23 22 22 22 24 26 25 25 28 25 24 23 22 25 28 31 34 37 40 44 47 50 53 55 56 58 61 62 62 63 63 66 68 71 76 79
11 11 9 9 9 15 10 15 14 19 18 26 24 28 27 26 27 26 25 24 23 19 18 19 21 24 27 31 34 38 41 44 48 50 53 56 59 61 62 63 64 64 65 67 69 73 78 83 87
14 10 8 9 11 11 17 18 15 26 29 30 25 27 27 25 24 22 19 16 16 17 19 22 25 28 31 34 38 41 44 47 50 52 55 58 59 61 62 64 66 66 68 70 74 78 83 88 91
12 13 13 14 11 8 21 17 16 20 18 16 14 14 15 14 13 13 14 16 18 21 24 27 30 33 36 39 42 44 47 50 53 55 57 59 61 62 64 66 67 68 71 75 79 84 87 89 91
15 16 20 18 17 18 16 12 14 14 11 9 10 11 11 12 14 17 19 21 24 27 29 33 36 38 40 43 45 47 49 52 55 57 59 61 62 64 66 68 69 71 74 79 83 84 86 88 90
19 19 17 18 20 14 5 9 14 11 12 13 12 13 15 17 20 22 24 27 30 33 35 39 42 43 45 46 49 51 53 54 56 58 61 62 64 66 68 68 70 74 78 81 83 84 85 88 93
20 20 18 20 18 15 12 9 14 13 14 15 16 17 19 20 23 26 29 31 35 38 41 43 46 46 48 50 53 54 56 56 59 61 62 65 65 68 68 70 73 77 81 83 84 84 87 91 89
23 21 21 20 18 17 17 16 14 16 17 18 19 21 23 25 28 30 33 36 40 42 44 45 47 49 52 54 56 56 55 59 61 62 64 66 67 67 69 73 77 80 82 84 83 86 91 88 79

GFSSGP_500_spd_042.txt.gz
Wind_Speed
22 24 27 29 29 27 22 18 18 37 40 28 35 40 39 38 37 37 36 40 43 30 32 36 40 39 37 37 34 32 32 22 18 13 11 16 13 10 7 5 4 6 9 12 14 15 16 15 14
21 21 23 26 26 25 11 25 30 34 32 34 36 40 37 36 38 41 40 43 45 48 51 44 41 41 37 39 33 30 19 18 15 12 14 16 13 10 7 6 7 9 12 14 16 16 15 15 14
20 19 21 22 25 23 7 30 33 39 25 29 36 35 35 34 37 37 41 43 47 51 50 43 43 45 37 29 35 20 17 16 13 13 17 17 14 9 8 9 11 13 15 17 17 17 17 17 17
19 18 17 20 20 9 20 21 31 28 32 32 32 34 34 36 36 35 35 39 45 42 47 47 45 42 46 38 28 16 15 14 12 13 17 16 11 9 11 12 13 16 18 19 18 19 19 18 17
19 18 17 15 6 9 19 30 38 36 35 39 37 33 34 35 25 27 28 35 41 44 43 40 44 41 34 20 12 11 11 10 11 14 16 12 10 12 13 15 17 19 22 22 21 20 20 21 20
20 17 15 4 8 14 23 38 31 35 34 26 21 32 33 31 31 25 22 18 21 25 33 37 32 29 21 14 7 6 8 10 11 14 14 10 13 14 16 18 19 22 24 23 23 22 20 20 19
18 18 11 10 9 20 29 32 29 28 23 39 34 31 32 30 26 33 36 23 25 36 20 34 27 24 16 5 1 5 9 9 10 10 11 11 14 17 19 20 21 22 23 24 24 24 25 26 26
17 18 16 14 7 22 28 32 40 27 22 35 36 32 32 26 27 20 31 30 26 35 28 24 18 10 7 3 3 7 8 9 10 10 10 14 18 21 21 22 24 26 26 26 29 28 28 29 31
21 19 12 5 21 35 41 19 9 21 29 30 32 25 22 16 21 21 12 19 18 17 9 9 5 7 1 5 7 7 8 7 9 11 15 19 22 22 24 26 28 29 28 25 25 24 27 30 33
22 17 8 24 29 37 40 17 7 12 18 19 25 19 19 25 21 24 23 17 19 23 8 10 10 8 8 5 6 7 6 9 12 16 21 21 23 26 27 28 29 28 26 27 25 29 33 38 41
22 15 10 16 21 18 21 25 16 14 17 20 18 14 16 11 16 16 17 17 21 8 4 5 5 7 8 9 10 10 11 13 16 17 21 24 25 25 26 29 31 31 26 20 30 33 41 44 44
25 16 18 11 19 17 20 18 13 10 14 9 11 11 9 15 14 16 14 11 6 5 6 5 4 4 7 9 7 10 11 15 18 20 21 24 24 31 30 27 27 19 23 29 34 43 45 49 43
20 14 21 29 24 24 16 12 2 16 22 21 9 9 8 10 9 9 10 6 4 3 2 2 4 6 8 8 10 13 16 19 20 24 19 26 33 32 24 24 29 35 36 39 35 36 40 42 39
12 19 19 26 22 28 28 6 14 7 11 7 8 10 8 6 7 7 5 3 3 3 4 5 7 7 7 11 14 15 18 23 29 24 27 31 32 28 17 36 30 35 41 47 46 43 41 38 38
13 22 25 18 23 13 11 11 8 6 6 10 8 8 7 6 4 4 5 5 4 5 5 7 7 8 11 14 16 18 23 25 32 39 36 20 32 41 38 37 38 41 41 42 43 42 39 36 35
17 18 21 14 19 11 11 9 9 9 5 6 8 7 5 6 7 7 6 5 5 6 7 8 8 10 14 15 18 21 25 30 30 34 35 31 41 33 33 35 40 42 43 41 39 39 38 39 40
20 13 3 10 5 2 3 11 9 4 5 6 4 5 4 4 3 2 2 3 3 6 8 10 13 14 16 20 25 27 31 36 36 36 33 45 38 36 36 37 39 41 42 44 44 43 43 43 43
6 9 2 3 3 7 4 4 3 5 5 4 3 3 2 2 2 2 4 5 5 9 13 15 16 17 20 22 25 30 34 35 33 36 37 34 35 36 37 38 41 44 47 49 51 51 49 48 49
4 6 6 10 8 7 12 11 5 5 6 8 3 6 5 6 8 9 10 12 11 12 17 20 22 25 24 25 30 33 34 34 37 38 35 36 37 37 39 41 43 45 48 51 53 52 51 51 51
3 8 12 18 7 7 9 11 4 3 3 6 7 6 8 9 10 11 13 15 19 14 20 23 26 27 27 29 26 26 29 30 31 34 37 38 41 43 45 47 51 53 54 55 57 58 57 54 54
5 12 21 19 4 4 10 10 14 5 6 7 10 13 13 13 11 15 16 18 22 21 22 25 25 25 24 23 24 25 27 30 33 37 41 44 47 49 51 52 53 55 58 59 59 60 61 60 60
12 13 2 5 5 8 16 16 23 24 7 5 12 17 21 21 20 19 21 21 24 26 26 26 25 22 22 21 24 27 30 34 37 40 42 45 48 51 53 55 57 58 59 60 61 63 63 64 65
14 18 7 6 11 17 21 18 13 21 8 14 11 16 25 28 27 26 24 25 27 26 26 22 21 19 22 24 27 31 35 38 41 45 47 51 53 53 53 55 57 61 63 63 64 65 65 67 70
13 6 4 7 11 16 18 9 18 22 18 21 12 14 23 30 32 31 30 24 24 22 19 19 21 21 25 29 33 37 40 43 46 48 50 53 55 57 60 60 63 66 67 67 68 67 68 71 75
13 8 9 18 16 8 6 15 13 25 19 23 27 25 26 25 25 26 25 18 16 17 20 22 25 27 30 35 39 41 45 47 49 51 53 55 55 58 61 62 64 66 66 67 67 68 72 76 82
11 9 15 12 5 8 13 5 13 19 21 19 22 20 16 15 15 15 14 15 17 20 24 27 31 34 36 40 43 46 48 50 53 54 56 56 56 59 61 63 65 66 67 67 69 73 77 82 86
1 10 17 12 14 12 10 11 19 15 19 17 12 13 13 14 14 16 18 21 24 26 29 32 36 39 40 45 47 50 52 53 56 58 60 61 62 62 63 64 67 68 67 69 73 77 80 84 86
13 14 11 13 15 13 3 3 22 16 15 15 15 15 15 17 18 21 22 25 27 29 32 36 41 43 44 48 50 53 54 55 57 58 58 53 61 63 64 66 67 66 68 72 77 80 82 83 85
14 15 16 17 16 15 9 10 17 21 18 16 18 18 20 21 22 24 27 29 33 35 38 39 44 48 49 50 52 54 55 57 58 58 55 61 63 64 66 67 67 69 72 77 79 80 82 81 84
16 17 17 19 16 22 18 22 18 19 19 19 20 23 24 25 27 29 31 34 36 41 44 45 46 50 51 51 53 54 57 58 58 58 57 60 62 65 66 66 67 70 75 77 76 80 81 84 86

GFSSGP_500_spd_045.txt.gz
Wind_Speed
21 23 27 30 30 29 30 23 23 17 22 31 31 24 30 36 32 34 32 33 36 37 33 29 27 36 34 38 39 37 36 34 28 33 19 17 22 19 15 11 8 8 8 9 11 12 11 11 11
20 20 21 25 28 29 21 25 18 18 24 29 22 23 28 32 36 41 37 38 40 41 41 38 42 46 44 44 39 37 36 31 30 20 18 19 23 19 14 11 9 9 9 11 12 11 10 12 13
20 19 18 22 24 25 8 14 13 23 27 30 28 27 32 35 34 32 31 37 40 40 39 40 44 46 47 47 44 39 37 33 23 20 17 20 23 17 14 12 10 11 11 13 13 14 15 15 15
20 18 19 19 19 7 20 12 22 19 30 27 35 27 28 34 36 33 37 36 37 40 38 38 44 46 44 45 39 38 28 28 21 16 17 22 21 16 13 12 13 13 15 16 17 17 18 18 18
19 18 18 16 4 8 10 14 18 26 26 27 31 36 36 36 32 27 28 31 32 41 31 35 40 47 41 40 42 33 21 19 16 15 17 20 18 15 12 13 15 16 18 18 19 20 20 18 17
20 22 22 12 13 8 7 15 24 26 29 32 32 28 15 22 32 26 24 19 22 27 28 16 19 44 44 40 32 17 12 10 10 13 16 16 14 12 13 17 18 20 20 20 20 22 20 23 23
21 23 16 21 13 8 14 25 21 25 29 19 22 26 24 28 25 25 26 32 28 46 55 32 33 40 42 36 22 16 13 8 7 11 10 10 9 14 16 19 21 21 24 24 23 22 23 23 22
20 23 20 23 8 14 22 29 26 30 34 28 19 19 27 29 26 30 31 32 32 27 23 27 28 35 28 23 16 13 10 8 8 8 9 13 16 15 20 19 21 23 25 27 27 23 24 24 24
24 24 13 14 11 20 28 23 29 19 7 19 22 19 25 24 24 28 28 34 36 38 34 32 23 16 11 12 14 12 9 6 6 11 11 14 16 17 19 22 24 23 25 27 27 28 29 30 31
25 19 13 17 15 22 26 28 31 27 17 19 16 18 19 21 22 16 24 15 29 35 32 9 13 13 12 14 11 9 7 8 9 12 12 14 17 20 21 25 25 26 26 26 23 22 26 33 36
27 18 13 15 16 18 15 16 17 19 21 13 13 19 19 15 11 13 18 20 29 13 12 13 17 17 16 13 9 4 6 9 12 12 14 17 15 18 24 27 23 22 19 24 29 27 31 29 33
29 23 13 14 20 15 15 15 18 13 16 11 15 13 17 11 10 15 17 19 20 4 12 12 10 10 8 7 7 6 7 11 12 14 19 23 15 20 18 17 10 26 17 23 30 32 37 38 39
25 19 17 19 20 21 20 16 13 21 14 15 15 16 10 10 12 12 16 6 5 8 9 9 7 4 3 3 2 4 8 10 13 15 19 25 20 10 23 23 19 27 30 27 28 30 32 33 36
19 15 20 17 19 29 27 24 22 12 5 3 12 8 8 6 6 2 5 6 4 4 6 5 3 2 3 1 6 7 10 12 14 17 24 27 31 22 25 30 27 31 27 28 30 32 33 34 35
22 19 22 20 17 22 26 23 20 3 8 4 2 7 9 4 1 6 8 3 5 4 2 2 2 2 4 7 10 9 11 14 18 22 27 28 30 22 29 32 28 25 25 29 32 34 35 36 37
10 20 23 20 19 24 13 6 5 4 3 2 4 3 1 2 3 5 2 4 4 3 2 1 1 3 7 9 10 14 17 20 23 27 28 24 31 26 27 26 28 29 30 32 34 36 37 40 41
17 14 7 7 5 3 11 8 10 10 6 5 3 3 5 6 4 4 3 2 3 2 2 4 5 8 9 13 18 21 23 26 27 28 29 32 26 26 27 29 32 35 37 38 40 42 43 44 45
15 7 7 14 12 11 4 6 5 6 6 4 4 5 5 4 4 6 5 5 3 4 6 7 10 13 15 19 20 23 27 27 27 27 29 25 27 29 31 35 37 39 40 42 44 45 46 47 47
6 9 2 9 4 9 8 5 6 1 3 2 1 3 3 5 6 6 7 8 4 8 9 12 15 17 19 19 20 23 22 22 24 24 27 28 31 33 35 38 39 42 44 46 48 48 50 52 52
7 3 5 8 6 10 9 6 2 2 4 2 2 2 4 4 5 7 9 6 7 9 16 16 19 22 20 20 21 20 19 20 24 26 29 33 36 38 41 43 45 47 48 51 52 52 54 56 57
3 2 10 20 17 10 12 10 11 4 5 4 4 3 5 7 8 14 18 18 16 16 18 20 20 19 16 17 16 17 20 23 28 32 34 38 42 44 46 47 48 49 50 52 54 56 58 59 59
9 4 21 10 13 11 14 13 19 21 14 16 10 9 8 9 9 11 16 24 22 22 22 19 18 16 14 15 19 23 26 30 33 37 40 44 46 49 49 50 51 52 52 54 56 57 58 59 58
4 9 4 8 5 10 10 17 24 23 20 22 19 9 13 18 17 13 13 20 24 24 20 16 15 15 17 20 25 30 33 36 39 42 44 48 50 51 53 54 54 53 54 56 58 58 61 62 60
1 4 8 12 15 17 9 14 7 18 10 16 20 2 16 20 19 16 13 14 17 23 18 16 17 18 24 28 31 35 38 41 45 49 51 54 56 56 57 58 59 60 62 63 63 63 65 63 63
12 11 16 17 14 10 11 10 10 16 14 13 12 11 12 21 20 17 13 11 10 13 17 19 22 22 27 32 35 39 43 46 50 53 55 56 57 57 58 59 58 58 64 63 64 65 65 66 69
13 14 17 17 14 20 11 13 7 13 15 13 16 11 9 11 15 14 12 11 13 17 20 23 27 27 30 35 39 43 46 49 52 54 54 55 56 58 58 53 60 62 66 64 66 66 67 69 72
16 19 16 16 11 9 4 12 16 12 17 14 11 11 11 12 13 14 15 15 18 21 24 28 32 33 35 37 41 45 48 50 52 53 54 55 56 57 57 51 58 62 64 66 67 67 70 73 77
12 11 5 13 12 8 10 14 14 14 15 12 12 13 14 15 16 18 20 21 23 25 28 31 35 38 40 42 45 47 50 50 51 53 52 55 56 57 57 53 58 62 65 67 68 70 74 79 83
10 13 14 15 15 12 9 15 15 13 12 17 17 15 16 19 20 22 24 25 28 30 32 36 40 44 45 44 45 49 51 50 52 53 56 57 48 60 60 59 61 64 65 69 72 74 78 83 86
10 14 16 17 13 19 14 14 22 15 20 21 22 21 19 21 24 26 28 30 32 35 38 38 41 45 47 48 48 51 51 48 53 56 57 56 51 58 60 61 63 65 65 71 78 81 85 85 80

GFSSGP_500_spd_048.txt.gz
Wind_Speed
23 25 28 30 31 37 33 29 30 30 28 26 31 25 26 26 25 27 32 33 34 33 33 34 31 39 26 28 35 34 36 38 38 34 30 26 22 21 22 19 16 13 11 13 14 15 15 14 11
22 22 25 28 28 27 24 26 23 23 25 27 33 20 21 22 26 29 33 35 38 39 40 39 40 39 33 36 40 39 37 39 34 34 28 27 20 23 23 20 15 12 12 14 15 16 16 14 14
23 22 25 26 22 18 9 16 16 17 24 28 27 21 23 25 31 32 33 36 37 38 39 39 40 38 37 37 37 36 36 40 37 27 29 23 22 26 23 19 15 14 14 15 16 17 18 18 19
21 21 24 20 8 7 17 18 21 20 25 27 25 22 26 27 28 25 30 39 41 41 44 42 39 40 35 36 37 39 36 41 35 25 26 18 22 25 22 17 15 16 16 17 18 18 18 19 19
21 21 22 6 11 18 16 21 22 24 23 18 18 20 21 29 23 28 31 31 36 41 42 35 43 34 33 34 39 41 36 41 30 22 20 17 20 23 20 17 16 18 17 19 20 19 18 16 17
21 22 16 15 13 21 17 17 26 22 24 24 23 22 25 24 27 19 28 33 27 44 43 32 32 31 27 30 41 43 40 37 15 15 17 16 18 19 15 16 17 19 20 21 23 22 22 21 21
21 19 16 18 13 14 13 17 17 26 29 28 21 20 20 23 26 19 23 19 27 31 27 37 37 32 25 43 49 43 24 16 12 10 9 8 12 12 11 16 18 20 23 25 26 27 26 21 23
23 24 22 19 19 20 23 14 14 24 27 22 21 20 24 26 32 30 26 25 21 24 31 29 32 32 38 49 45 27 15 14 12 7 9 10 5 8 17 16 21 21 23 25 24 26 26 24 21
21 16 15 17 27 28 23 15 15 15 23 11 22 33 29 25 27 29 24 26 25 29 31 31 28 26 25 28 29 17 16 15 9 9 8 8 11 15 17 17 18 21 25 27 22 15 22 22 25
21 13 17 27 30 23 19 14 14 15 17 21 21 16 20 26 27 24 22 19 17 26 34 26 27 9 15 14 9 16 13 7 7 9 12 9 11 12 12 15 20 25 22 19 16 21 24 26 28
24 19 20 25 28 30 14 10 14 16 12 18 20 14 16 21 20 17 19 19 21 19 42 24 13 19 16 17 13 10 7 6 7 5 6 9 16 16 15 18 21 21 18 18 22 22 24 26 27
26 27 18 25 24 20 7 10 12 19 18 16 15 23 16 20 18 11 7 16 20 5 16 20 21 23 21 16 13 10 7 5 3 6 5 9 15 14 16 8 11 18 24 24 28 29 25 25 27
23 26 25 22 27 16 14 12 16 16 17 18 18 20 15 16 13 10 8 8 11 13 12 16 18 17 17 16 11 7 5 4 7 8 11 13 16 18 22 20 15 18 22 28 30 26 27 29 32
18 31 25 17 20 19 17 18 17 14 8 9 11 8 5 14 14 3 7 11 9 11 10 11 14 11 11 9 5 4 5 7 9 11 14 20 19 16 20 20 23 26 23 22 24 28 30 34 35
22 26 21 15 18 19 16 16 18 14 4 3 2 7 6 9 12 8 3 3 5 3 4 6 7 7 6 3 2 4 7 9 11 14 18 21 21 21 24 20 18 20 24 29 30 32 34 37 38
18 19 16 15 14 16 22 21 11 8 8 5 5 2 5 9 9 7 3 1 5 8 6 5 4 4 2 3 4 6 10 13 16 19 20 20 21 21 18 20 23 26 29 32 33 35 38 39 39
15 15 17 17 17 12 1 8 12 8 9 8 3 4 2 3 5 8 4 2 3 3 3 4 3 1 3 6 9 11 13 16 18 20 18 18 17 18 20 24 25 28 31 34 35 37 39 39 40
14 13 15 10 9 12 11 10 11 5 3 6 0 1 3 6 6 6 5 3 3 1 2 3 4 7 9 12 14 15 17 18 19 17 15 18 21 23 26 29 32 34 38 39 39 41 42 42 43
16 21 14 13 13 5 9 6 2 5 7 2 3 2 2 2 2 5 5 2 5 6 8 8 11 13 14 15 15 17 16 15 14 16 19 23 26 29 33 35 38 40 43 44 45 47 47 47 48
20 8 9 12 8 7 7 2 9 7 8 4 3 2 4 2 1 3 6 6 7 10 13 13 16 15 15 16 15 14 12 14 19 23 26 30 32 36 38 40 43 45 47 48 50 51 50 50 53
8 9 13 17 9 4 3 11 10 8 8 6 3 3 2 3 3 3 4 4 4 7 13 17 14 13 13 14 13 14 16 20 25 28 31 35 38 41 44 45 47 49 50 51 53 54 54 54 58
4 5 9 12 11 13 17 15 11 12 6 3 3 6 4 1 6 7 7 8 7 9 12 15 12 12 12 14 16 19 22 26 30 33 36 39 42 44 45 49 50 51 52 52 53 52 52 56 59
9 5 2 13 16 15 13 14 8 13 14 9 11 8 7 7 5 5 6 7 11 11 10 9 8 11 13 15 20 24 27 31 35 38 40 43 46 47 46 48 51 53 55 54 55 54 59 62 62
7 6 3 10 16 14 14 17 9 14 16 6 5 8 7 4 5 6 2 3 5 8 9 9 9 14 18 21 26 28 31 35 39 42 44 46 47 48 52 52 53 53 55 55 54 53 58 61 64
8 6 12 14 15 14 18 20 5 11 7 4 4 5 5 7 4 4 4 4 3 7 10 14 15 18 22 25 28 31 35 40 43 45 47 48 51 54 54 55 58 56 57 56 58 60 62 64 64
9 10 19 23 19 17 20 20 18 11 3 4 2 5 8 4 3 5 3 5 9 12 15 19 19 22 26 29 32 34 40 44 47 49 50 53 54 53 55 56 59 63 58 61 65 65 65 65 65
15 14 16 22 20 13 13 22 14 11 11 12 6 5 8 8 7 6 7 10 14 17 20 22 25 29 31 33 36 39 45 48 50 50 52 51 51 51 57 59 60 57 58 67 67 67 66 66 69
17 18 16 18 18 13 14 21 17 15 15 12 10 7 11 10 10 11 12 14 18 21 26 29 32 35 39 40 41 43 44 41 46 48 46 49 51 57 59 61 60 57 59 64 67 67 68 71 74
20 18 19 15 12 15 14 19 20 18 16 15 15 14 14 13 13 14 16 18 21 25 30 34 38 42 43 41 40 42 45 47 48 49 49 53 56 60 62 61 60 62 63 66 67 69 72 75 78
23 16 20 17 14 16 18 16 18 22 23 23 22 20 18 16 17 19 21 22 25 28 32 37 41 42 42 45 45 48 50 46 50 51 54 56 60 60 59 62 64 64 65 67 72 75 76 79 82

GFSSGP_500_spd_051.txt.gz
Wind_Speed
24 30 30 29 26 31 35 34 36 33 32 32 23 27 28 16 23 27 31 27 27 29 31 32 33 34 31 22 24 30 33 30 33 35 34 29 26 29 22 22 19 14 15 16 16 16 16 16 15
24 26 29 28 25 26 23 23 26 28 31 31 29 31 30 28 26 32 29 28 29 31 32 34 37 36 38 36 34 34 32 36 35 33 33 27 25 26 19 21 18 15 16 18 18 17 17 17 17
24 25 27 25 20 11 11 18 24 28 25 28 33 33 30 28 26 23 28 28 28 33 37 40 40 39 34 34 35 32 34 34 34 34 31 30 20 24 18 20 17 16 17 19 19 18 18 17 18
23 24 24 16 8 14 18 22 23 22 24 27 27 33 27 24 28 26 24 25 31 35 37 40 43 42 38 34 34 36 34 33 37 36 35 25 18 14 19 17 17 18 21 21 21 20 20 20 20
22 22 17 9 13 17 23 22 23 23 24 26 28 26 30 27 23 26 27 27 33 36 38 37 39 36 29 36 38 39 35 35 38 32 31 14 12 14 15 16 18 21 21 20 21 21 22 23 22
21 19 13 13 15 17 22 24 24 25 26 25 27 22 22 21 22 24 28 28 28 32 37 42 35 35 43 39 33 33 34 44 43 27 19 11 6 7 11 21 21 17 19 20 22 25 25 27 27
21 18 17 19 20 18 25 26 29 27 24 21 26 23 23 23 26 26 28 27 27 30 49 47 33 39 34 30 39 39 41 47 29 7 4 9 12 14 19 16 14 15 19 23 28 30 25 22 22
22 16 18 19 25 19 20 18 9 14 19 20 19 21 22 22 25 28 33 32 23 25 23 22 25 29 36 48 46 49 48 19 14 11 12 11 11 12 11 9 11 15 23 28 27 25 19 15 18
20 18 18 19 14 21 19 15 17 15 13 10 27 13 24 27 26 25 31 38 29 25 33 27 8 22 31 37 34 46 35 19 18 11 9 12 11 10 11 14 17 25 24 24 20 22 19 20 24
17 19 16 21 22 23 24 15 7 11 12 17 16 11 17 19 26 26 28 27 23 20 19 26 28 31 27 26 30 40 17 17 14 13 12 10 11 12 16 19 22 19 20 20 20 18 20 23 26
21 20 25 24 26 27 23 20 11 11 14 19 13 14 13 13 20 25 26 26 25 20 22 27 27 26 26 26 23 20 15 10 10 9 9 9 10 7 13 16 17 22 20 20 22 25 28 29 29
24 24 25 25 30 25 20 23 16 14 19 18 13 12 17 20 19 22 20 21 18 19 23 22 17 14 14 17 18 18 13 11 9 8 10 4 7 8 12 16 19 19 15 19 22 27 30 28 27
17 26 24 25 24 21 20 20 16 16 18 19 11 13 17 18 20 21 19 9 6 17 21 19 18 19 16 17 15 12 10 9 9 8 9 11 10 14 16 18 19 22 29 31 27 25 26 30 33
13 27 30 28 19 15 21 21 20 17 13 9 7 11 9 10 18 14 13 13 15 16 14 13 12 13 11 11 12 10 9 9 7 8 9 11 17 18 17 20 21 16 15 19 22 27 31 35 38
15 21 26 22 16 16 20 19 14 12 6 4 8 11 7 7 13 21 19 13 12 12 13 12 12 14 15 10 8 8 7 6 8 9 12 16 17 17 16 14 16 19 21 25 29 33 35 36 39
16 17 20 24 16 16 15 16 8 7 5 5 7 9 9 8 10 16 16 14 13 14 13 13 12 12 9 7 5 4 5 8 10 13 14 16 14 13 14 17 21 23 26 30 33 36 38 41 43
13 11 14 17 17 16 4 10 10 6 3 1 6 8 6 8 7 9 12 12 12 11 10 9 7 5 1 1 3 6 12 12 14 16 15 13 13 15 19 21 24 27 31 35 38 41 42 43 45
15 15 15 15 12 12 16 13 7 5 4 2 4 6 6 7 9 9 12 12 8 8 6 5 4 1 2 4 7 9 12 14 14 13 11 15 17 21 23 26 30 33 36 39 42 43 43 45 46
16 17 15 14 10 15 15 17 12 7 4 6 8 7 5 3 4 4 5 6 7 6 6 4 2 3 6 8 11 13 15 13 10 11 15 19 23 25 27 31 35 37 40 43 45 46 46 48 48
11 12 13 10 12 9 10 14 18 13 7 5 3 5 9 10 9 7 4 3 3 3 3 2 2 5 5 9 11 12 12 11 14 17 20 24 27 30 33 37 39 43 45 47 48 49 49 50 50
8 8 13 16 12 12 8 7 13 12 10 9 8 6 7 8 7 6 5 3 4 5 4 5 5 6 7 9 11 11 13 16 20 24 26 29 32 36 38 42 46 48 49 50 50 52 52 53 54
10 8 11 17 14 9 6 6 10 11 13 8 3 3 3 5 9 6 7 6 7 8 8 9 7 7 8 9 13 14 18 22 26 29 32 34 37 40 44 46 48 50 50 50 50 52 53 54 53
9 8 14 14 14 11 11 10 7 13 19 9 6 6 9 10 9 9 5 9 11 10 10 9 10 9 10 12 15 19 23 26 31 34 37 39 41 45 47 48 48 50 51 48 51 56 57 60 58
9 11 7 11 14 12 12 13 10 8 12 11 5 5 9 9 9 12 11 13 15 11 10 9 11 10 12 17 20 22 27 31 35 39 42 43 45 47 48 49 50 51 46 51 61 61 61 59 57
12 11 11 10 12 13 16 17 9 12 8 7 9 10 11 11 8 8 8 8 9 9 8 9 11 13 16 20 24 26 32 35 40 44 45 47 48 48 49 48 52 51 51 60 62 64 62 62 63
18 13 14 15 13 16 19 17 12 18 13 13 13 12 13 12 9 6 6 6 7 9 11 14 15 17 19 23 27 33 37 41 46 47 50 51 51 51 53 51 50 60 55 63 68 62 63 66 68
17 15 15 16 17 18 19 20 19 15 17 17 14 11 13 10 7 7 7 8 10 12 15 17 19 19 23 28 34 39 42 44 46 49 47 52 49 54 57 55 53 57 68 71 68 67 70 71 71
17 21 20 18 20 19 20 17 12 15 19 18 15 13 11 8 8 10 10 12 14 16 19 20 21 24 30 35 39 42 44 44 47 48 52 52 48 57 57 53 57 65 68 68 69 71 71 72 73
23 18 22 17 20 17 19 17 17 18 19 18 18 16 15 13 12 13 13 15 18 21 23 26 28 32 36 40 44 41 44 46 49 53 50 51 56 41 44 65 64 66 69 69 70 70 72 75 78
23 21 24 21 22 20 21 18 18 19 19 21 21 22 21 20 19 18 18 19 23 23 27 30 33 36 40 40 41 46 50 49 50 51 49 51 47 51 66 64 65 68 69 69 69 73 77 82 86

GFSSGP_500_spd_054.txt.gz
Wind_Speed
24 24 26 26 30 32 33 29 26 24 27 28 37 36 34 31 31 26 29 28 31 31 29 29 29 30 31 29 29 27 24 28 27 28 30 30 24 24 17 18 12 13 12 12 14 16 15 17 17
24 20 25 23 26 26 24 23 23 31 30 30 24 25 38 35 24 24 26 29 27 30 30 31 31 33 35 32 29 28 37 31 28 29 31 28 24 26 16 14 12 14 12 15 16 16 16 16 17
22 18 21 21 21 18 18 19 26 31 29 29 31 37 42 14 22 24 27 27 29 27 30 33 36 37 36 35 32 29 34 31 28 31 30 28 25 25 13 17 12 14 17 15 17 17 17 19 19
20 16 17 16 12 12 14 21 24 27 29 29 32 35 36 30 28 31 30 25 27 31 35 36 36 38 36 34 31 34 30 30 29 30 30 31 29 16 17 7 13 14 16 17 20 18 18 19 22
18 14 15 11 11 15 22 22 26 25 27 28 28 30 31 31 31 30 28 29 27 31 30 35 41 40 38 32 35 33 37 33 31 32 32 35 33 19 9 11 16 17 18 21 20 19 20 22 25
15 12 13 12 15 20 22 25 26 25 27 30 28 29 26 25 31 30 24 31 33 30 30 37 43 41 34 33 31 34 37 34 37 36 37 32 15 12 12 18 15 18 21 19 16 18 22 25 28
14 13 13 17 20 19 15 23 27 22 20 24 28 29 26 26 27 31 29 30 33 31 24 38 50 43 45 41 40 30 35 38 41 42 34 16 9 6 8 14 17 20 14 14 19 22 25 29 28
12 14 14 17 23 21 22 15 22 5 14 13 21 33 24 26 27 26 32 33 29 29 28 33 42 49 45 56 39 33 36 41 41 44 17 9 7 7 11 14 17 13 14 18 20 25 28 26 23
12 14 12 16 22 23 19 8 6 10 11 15 16 19 19 30 26 29 32 33 32 32 35 28 21 16 32 25 28 31 44 43 34 26 18 16 9 7 10 12 13 15 18 20 26 29 23 23 22
12 16 14 21 24 14 13 14 5 7 13 14 19 17 16 20 25 37 38 31 27 29 29 27 28 22 22 30 28 33 38 29 19 16 16 12 10 9 11 12 15 19 21 24 25 25 23 24 25
16 18 19 16 18 15 14 17 14 12 15 17 20 20 18 16 16 16 27 29 26 21 25 23 21 24 25 22 29 31 25 17 17 17 17 11 9 11 13 15 23 22 21 25 21 20 21 24 25
15 21 20 13 16 12 15 15 12 14 18 22 20 20 19 17 13 14 17 22 20 15 25 22 23 26 23 27 37 35 20 19 18 13 10 11 17 15 8 13 14 18 17 22 24 27 28 27 27
9 22 22 16 14 15 18 16 10 15 19 22 20 15 12 14 16 18 18 18 20 13 19 24 17 15 16 15 15 15 13 13 13 12 11 15 10 11 12 13 14 18 22 21 19 18 19 26 30
8 11 23 26 16 11 13 15 17 18 19 20 7 8 7 7 15 14 14 19 12 11 15 15 16 17 14 13 10 8 7 10 10 9 9 9 11 15 15 16 17 16 16 18 20 22 26 31 32
11 12 14 25 19 15 18 17 16 15 13 7 8 9 12 9 18 22 21 20 18 19 17 15 16 13 9 10 10 9 7 7 10 8 9 11 13 15 14 14 13 16 19 22 24 27 32 34 37
13 12 10 12 20 11 14 15 15 11 6 5 4 5 10 18 14 18 20 14 15 15 14 14 14 14 13 11 9 8 8 9 10 11 10 12 14 12 12 14 17 21 23 26 29 33 36 38 41
13 18 9 7 13 16 17 4 11 11 8 2 3 4 9 14 16 14 17 16 16 18 18 16 16 16 13 10 7 8 9 11 10 10 11 14 12 12 15 18 23 25 28 32 36 39 40 43 45
13 14 8 7 10 14 17 13 11 11 5 4 4 4 4 9 10 13 14 15 16 14 13 14 12 10 8 7 7 7 8 9 8 10 9 10 13 16 20 23 26 30 34 38 40 43 44 45 45
12 7 10 8 12 14 16 16 16 15 11 5 6 5 6 7 7 7 7 8 9 9 9 8 8 8 8 9 9 8 8 7 8 8 10 15 18 22 25 28 31 35 39 42 44 46 46 47 48
10 10 13 12 11 17 15 12 15 14 13 10 8 5 3 6 9 10 11 12 13 13 13 12 10 9 9 10 9 8 8 7 9 11 16 21 24 26 30 33 36 39 43 45 47 48 49 49 49
10 14 15 14 12 14 11 4 11 10 10 13 12 10 6 6 8 11 12 11 10 10 10 11 11 10 10 10 10 9 8 9 13 18 22 26 28 31 34 38 40 43 46 49 50 50 49 49 50
12 11 10 13 14 14 20 11 8 11 9 9 9 9 8 9 10 10 9 10 11 11 13 11 10 12 12 10 12 12 11 14 19 21 26 30 33 36 39 42 44 46 49 49 50 48 48 47 53
7 8 12 15 18 15 13 11 10 11 11 13 9 11 14 15 14 13 10 9 12 14 15 15 14 13 13 13 12 14 16 19 21 24 31 36 39 42 45 45 45 47 50 49 51 48 52 54 57
8 6 12 12 14 14 12 6 5 6 8 15 14 14 17 18 16 18 17 17 18 20 17 17 15 15 15 15 14 16 19 21 22 29 38 42 45 46 48 44 49 50 53 53 53 53 58 60 65
11 11 14 14 14 14 14 11 4 9 11 6 15 19 13 18 21 22 22 23 23 21 18 16 13 14 17 18 16 20 22 25 26 35 42 46 45 46 47 48 53 53 54 51 59 57 64 69 71
21 15 14 15 15 16 18 13 10 10 14 14 13 14 14 13 17 21 20 19 19 19 16 13 14 17 20 20 18 22 26 29 32 41 44 43 44 47 47 51 53 55 56 48 59 64 67 65 69
21 19 16 17 19 20 19 19 15 15 17 16 12 12 14 15 17 18 17 17 17 15 14 14 16 19 21 21 23 28 31 36 41 41 42 46 45 48 49 56 48 47 47 61 63 72 71 72 74
19 18 19 20 23 22 17 16 16 13 11 15 13 14 18 18 17 18 17 16 16 17 18 17 20 22 24 26 29 32 35 38 38 40 44 41 46 52 57 56 53 58 53 66 72 72 73 74 74
26 24 22 18 21 21 14 12 16 15 16 17 19 21 20 19 20 18 17 17 18 19 19 20 24 27 30 32 34 35 38 39 38 40 44 48 51 57 60 57 59 58 67 67 71 74 74 74 77
29 29 27 21 21 21 21 9 16 19 18 19 20 21 20 20 21 21 21 21 22 22 24 27 30 31 32 34 34 37 39 41 42 43 44 54 55 59 57 61 65 67 67 71 72 71 73 77 80

GFSSGP_500_spd_057.txt.gz
Wind_Speed
34 27 26 23 23 25 27 25 28 36 44 42 34 42 39 34 32 34 36 34 34 33 32 30 31 31 31 30 31 29 26 25 23 21 23 22 19 16 13 14 11 10 12 12 11 13 13 13 14
29 24 22 20 19 21 20 20 23 29 39 35 32 35 37 33 34 29 35 34 33 34 32 31 28 30 32 35 34 29 27 25 27 31 27 23 20 18 16 14 12 11 13 12 13 14 14 14 16
26 22 18 17 15 14 14 16 20 26 30 30 28 32 44 17 25 34 34 18 26 31 30 30 34 37 37 34 32 32 32 30 25 31 26 24 21 18 20 19 15 13 15 15 16 15 16 16 17
23 20 15 12 7 7 9 15 21 24 29 27 25 27 24 23 26 22 19 17 24 28 30 34 36 35 33 34 35 33 33 33 29 30 26 24 23 22 23 23 17 16 16 18 17 16 18 15 16
20 16 11 5 8 11 14 18 21 26 23 24 28 28 26 25 24 20 24 23 23 24 19 26 33 36 34 36 37 37 34 34 32 28 25 26 27 26 25 19 17 17 18 17 17 17 17 17 18
17 11 7 10 13 15 19 20 23 25 23 23 27 27 26 22 23 20 24 25 28 37 31 31 30 32 37 43 36 33 26 29 32 30 31 31 31 31 22 16 18 17 16 18 19 20 17 18 18
15 8 8 11 11 16 21 24 24 21 13 21 26 21 25 27 24 23 23 26 31 29 32 28 39 51 46 55 48 32 28 32 28 35 35 35 32 31 14 14 17 18 18 17 18 16 19 23 22
13 4 10 11 12 17 18 15 5 19 7 12 14 19 19 29 31 28 27 30 35 34 30 27 26 44 26 33 42 45 40 33 35 34 38 33 17 16 13 13 14 14 15 15 15 16 18 20 24
11 5 14 10 12 17 20 10 6 3 9 8 13 15 16 19 23 25 28 29 34 35 30 30 31 33 23 20 25 40 45 33 37 42 33 17 16 16 13 11 9 10 12 14 17 20 23 24 21
10 10 15 11 15 22 17 19 7 4 2 7 10 12 16 14 18 26 32 38 35 35 31 32 31 28 26 28 17 22 43 39 42 45 22 16 16 15 9 6 8 11 15 20 21 21 24 21 17
8 12 13 9 13 15 11 7 11 7 7 12 15 15 18 19 17 20 23 28 38 40 25 27 26 24 23 21 17 20 21 24 30 32 21 21 18 13 9 12 15 15 20 14 18 22 20 20 22
7 12 14 9 10 6 6 7 8 5 11 14 15 19 21 21 22 25 23 17 21 31 27 25 27 26 22 19 21 22 20 19 21 23 19 14 15 13 11 7 8 12 14 19 17 20 20 17 16
3 13 18 17 8 5 8 11 13 12 14 19 22 22 20 18 22 24 21 19 11 17 22 18 20 21 19 22 18 12 15 15 18 18 11 10 14 13 11 9 11 14 14 17 13 13 16 20 23
2 3 7 14 14 4 2 9 9 11 13 16 21 23 17 10 18 20 21 17 15 18 19 16 10 13 14 19 21 19 14 12 11 10 15 13 11 9 9 12 14 14 12 13 16 18 23 25 28
7 4 5 4 10 14 12 13 12 10 10 12 14 12 6 2 11 10 12 14 18 17 18 23 21 21 18 17 16 11 8 11 13 13 7 8 8 11 14 14 12 12 13 17 21 24 26 29 33
9 4 5 5 7 9 6 11 11 10 6 6 2 5 8 13 12 22 19 19 22 21 19 19 18 14 11 10 10 12 12 11 11 10 7 9 11 13 14 11 12 15 19 23 25 28 32 33 37
11 8 7 7 11 11 10 11 3 11 9 6 4 2 3 10 13 11 13 17 15 15 15 13 13 12 12 11 12 12 12 10 11 11 11 13 13 13 12 14 17 20 24 27 30 32 35 38 40
7 6 1 5 7 8 9 12 15 16 10 7 7 7 8 7 7 11 10 11 15 14 13 11 12 14 13 13 14 12 11 13 12 11 10 10 11 11 14 18 22 25 29 32 34 36 38 40 42
7 7 6 8 7 9 11 13 17 16 12 10 8 10 9 9 10 10 10 9 10 12 14 14 15 14 14 13 10 12 12 13 12 10 9 11 11 15 19 22 26 29 33 36 38 38 40 41 42
10 8 9 8 9 12 15 15 13 16 13 11 8 10 9 9 11 12 13 11 11 13 14 15 16 15 14 14 13 13 14 12 12 11 13 13 15 19 22 26 30 33 36 39 39 40 42 43 43
7 10 9 9 6 12 15 8 10 7 9 11 10 7 6 8 8 8 10 10 12 14 15 14 12 11 13 14 17 16 15 14 15 16 16 19 18 21 26 31 35 38 40 41 43 43 48 48 45
8 10 10 7 10 14 15 10 11 14 11 9 7 6 6 8 9 10 10 10 13 14 15 16 15 15 16 17 16 16 13 13 15 16 20 24 23 25 33 36 40 40 41 42 47 47 49 45 47
8 6 8 10 10 11 10 16 12 11 12 13 10 9 9 11 13 15 16 18 18 19 20 21 20 18 17 17 17 16 16 17 20 23 23 25 28 34 39 39 40 42 43 42 46 48 49 53 51
9 10 9 11 9 11 10 10 9 13 13 15 18 14 17 21 19 18 21 21 19 21 20 19 19 16 16 17 19 19 20 20 22 22 24 24 32 38 34 40 43 46 44 46 49 50 53 59 58
15 13 10 9 10 9 11 9 8 10 11 12 16 18 18 18 24 23 22 22 23 24 22 17 15 15 16 17 20 26 29 23 21 24 28 30 33 34 36 43 46 48 46 50 51 54 54 58 63
21 15 11 11 11 10 11 11 12 13 11 11 12 10 15 16 19 25 28 28 28 29 23 17 15 15 16 18 24 31 32 23 21 28 31 32 33 35 41 44 51 46 51 55 59 59 56 59 65
23 19 17 16 14 14 14 12 14 17 13 15 14 13 11 10 15 23 27 29 27 23 19 16 17 18 19 21 24 31 32 27 30 33 34 35 38 40 45 46 45 50 58 59 60 60 60 67 70
26 23 20 19 19 18 12 13 7 15 11 9 15 15 14 16 17 17 19 21 22 22 21 20 20 21 22 24 27 32 32 32 33 34 38 37 38 40 42 47 50 56 60 64 63 67 69 66 71
29 27 24 23 20 16 16 9 9 9 11 13 15 15 16 16 17 18 19 20 24 25 24 22 23 25 27 28 30 33 32 34 37 36 33 37 38 38 49 48 53 58 65 63 62 65 70 76 76
26 27 30 28 24 21 20 13 15 7 12 15 17 17 20 20 18 22 23 23 24 24 24 26 27 29 32 34 33 34 37 40 34 33 35 38 42 35 53 54 58 62 68 69 63 71 77 73 74

GFSSGP_500_spd_060.txt.gz
Wind_Speed
46 37 26 23 22 24 21 19 27 26 31 38 39 42 39 40 41 36 37 40 38 37 35 34 33 31 31 30 28 31 32 29 24 20 22 21 17 15 14 11 10 9 10 11 13 14 14 13 12
43 30 23 20 18 14 12 21 18 25 27 27 32 29 40 37 38 38 32 36 38 38 36 35 34 33 33 34 35 35 33 29 23 23 22 25 20 18 15 15 14 13 14 14 14 14 15 14 13
37 27 22 17 15 12 13 19 18 19 22 23 22 27 31 34 35 37 30 33 38 42 41 39 40 36 37 37 35 33 32 31 26 26 24 24 22 17 16 17 21 17 17 16 17 16 17 15 14
29 23 19 13 9 8 11 15 16 19 21 21 21 25 29 30 31 42 38 38 39 37 42 41 39 35 34 36 36 37 35 31 29 31 27 25 25 18 19 22 23 20 19 19 19 19 17 15 14
24 20 13 4 9 10 13 14 17 20 22 19 22 27 24 25 24 19 19 38 33 35 40 38 36 34 36 37 35 35 35 36 31 31 28 26 24 22 26 23 24 23 20 22 21 18 15 12 14
20 16 6 5 10 14 16 17 16 19 21 19 20 23 26 23 22 19 15 22 31 28 38 36 23 32 31 35 37 36 40 40 35 34 27 26 27 26 31 28 26 25 23 22 21 16 13 14 14
18 13 6 14 12 12 16 18 17 14 17 12 16 17 18 18 19 20 23 25 28 26 23 21 25 27 35 38 38 48 41 41 37 39 31 26 27 28 30 31 28 24 22 20 17 15 13 15 19
18 9 9 13 10 9 15 18 15 19 11 8 12 9 13 16 12 22 27 27 28 29 29 26 25 22 33 49 44 47 42 35 45 39 30 33 32 33 30 25 24 25 23 20 18 14 16 17 18
15 5 9 15 10 10 15 18 13 10 6 10 5 9 9 11 8 13 21 28 30 31 28 30 31 29 28 30 15 14 25 37 50 39 37 38 34 28 23 21 19 16 15 14 14 16 17 18 20
12 6 12 12 9 10 12 15 18 7 8 1 8 7 7 9 11 11 19 23 32 31 32 27 25 25 24 29 29 28 20 19 28 43 36 35 29 27 19 17 13 9 11 15 16 17 18 18 16
7 6 10 11 8 10 10 8 9 7 6 4 5 11 12 13 14 18 17 19 24 29 34 31 25 24 23 21 18 20 21 11 21 41 31 29 21 16 17 14 11 14 15 17 14 14 15 14 14
4 7 11 8 6 6 3 5 6 8 4 6 8 11 15 17 18 18 22 23 24 25 29 30 35 27 25 24 23 22 19 22 22 28 23 20 18 15 13 11 12 11 11 12 14 15 14 12 12
3 5 12 17 7 5 3 3 6 10 10 13 15 16 16 16 19 22 24 23 24 20 18 20 29 31 26 24 25 24 27 24 27 21 21 17 15 14 13 12 11 9 13 14 12 10 13 15 17
4 3 4 9 12 9 5 4 8 11 13 16 14 16 16 20 17 19 19 21 23 21 16 19 22 18 18 19 25 20 16 17 19 19 15 12 12 14 15 13 13 14 12 12 11 13 17 19 22
3 6 4 3 6 10 8 9 10 11 14 13 15 12 13 11 12 16 8 17 19 16 15 17 16 15 19 19 21 24 20 20 15 14 15 13 13 10 12 15 12 11 10 12 16 18 20 24 27
3 7 5 7 7 9 7 6 8 12 11 11 6 5 5 4 7 8 11 16 14 16 17 19 19 20 21 21 18 16 12 10 11 10 8 12 13 12 15 11 7 9 13 17 19 21 25 29 33
5 4 5 7 9 12 12 9 11 9 10 7 2 1 1 7 15 15 15 18 18 20 18 18 15 12 13 14 12 11 12 10 11 12 12 13 13 13 15 12 10 14 17 20 23 27 31 34 37
7 8 6 8 7 4 7 7 12 13 13 10 7 6 4 6 10 12 11 8 7 8 9 7 7 9 8 8 9 11 11 12 12 13 15 15 15 17 15 11 14 18 21 24 28 32 35 37 38
8 7 5 7 4 8 9 11 17 13 13 10 8 5 6 4 6 7 7 8 8 7 7 7 8 10 9 11 12 11 13 14 16 17 16 16 15 15 15 14 18 22 25 28 33 36 38 39 41
7 5 7 7 6 10 12 11 16 15 13 9 7 8 8 7 8 10 10 13 14 14 14 15 15 14 14 14 14 14 16 16 17 18 19 18 16 16 16 17 21 24 28 33 36 36 36 39 38
8 10 9 10 8 11 12 10 9 10 6 8 8 7 6 8 9 9 9 10 11 13 15 16 16 15 14 14 17 18 17 16 18 17 19 19 20 21 20 21 23 29 34 34 34 36 38 39 42
6 10 9 8 7 6 9 7 7 12 10 8 8 7 7 8 8 7 8 9 9 10 12 13 14 15 17 16 17 18 18 17 18 17 19 20 22 25 29 32 35 37 39 36 36 38 41 43 45
10 9 8 7 9 7 7 11 9 10 13 12 9 9 9 9 10 10 12 13 13 13 15 16 17 18 18 19 18 20 20 19 21 21 21 22 25 26 29 31 38 43 36 40 39 42 42 46 51
11 13 10 7 9 12 10 10 9 13 15 14 15 13 12 13 14 16 18 19 19 20 20 20 19 19 19 20 20 22 22 23 25 23 27 26 25 26 28 36 40 38 41 41 42 48 51 53 60
16 14 7 6 8 9 10 9 10 12 13 18 19 21 19 20 18 17 20 20 20 22 22 19 16 17 15 17 19 22 23 25 31 31 34 23 26 28 35 36 38 41 42 42 45 54 55 55 59
17 19 14 8 7 8 7 6 10 15 15 16 19 22 22 22 22 21 20 21 26 26 24 20 16 16 15 17 20 22 23 27 33 38 29 24 27 31 32 37 39 42 41 44 51 51 58 57 55
22 22 18 13 11 11 11 10 13 17 16 16 16 20 18 16 15 17 20 22 24 27 27 26 19 18 18 21 22 25 27 29 31 40 36 30 33 35 34 35 39 44 45 41 50 49 58 61 68
22 24 22 22 19 15 15 11 10 16 16 16 16 19 21 16 15 15 17 21 25 25 26 26 23 22 22 24 25 28 30 34 37 38 34 36 40 32 34 35 41 50 43 42 43 64 58 66 74
23 27 27 26 23 19 17 12 11 14 14 16 15 17 20 19 19 20 21 18 18 21 23 24 26 27 26 28 28 30 33 38 39 38 40 39 35 38 40 39 39 52 51 46 57 66 72 74 70
24 27 30 28 26 22 24 17 16 18 17 16 16 16 18 21 23 21 23 22 21 21 22 26 28 30 31 30 32 35 37 40 40 42 42 40 39 43 40 40 48 43 49 66 70 67 73 68 63

GFSSGP_500_spd_063.txt.gz
Wind_Speed
48 50 52 41 27 21 15 16 18 24 20 41 44 46 36 38 51 43 10 52 40 39 37 34 33 34 34 33 33 32 30 30 29 26 21 18 17 15 16 12 12 12 14 14 14 15 13 12 12
50 51 50 27 20 10 11 15 23 18 28 33 23 30 32 32 50 53 30 32 37 39 38 39 38 38 36 36 36 35 35 33 31 24 22 18 19 18 17 16 14 14 16 17 17 16 17 15 13
50 52 37 22 13 11 12 17 14 22 32 26 21 23 25 28 33 30 42 25 34 37 40 39 43 43 40 38 38 36 34 31 29 25 23 23 22 21 19 18 16 17 19 18 20 18 18 17 14
48 45 25 14 9 11 17 15 17 17 18 23 20 20 20 22 24 30 28 40 41 41 45 43 44 41 44 45 40 39 36 33 32 28 28 27 24 23 20 20 20 19 21 22 22 21 20 17 15
46 29 15 11 11 14 15 15 15 11 15 15 17 20 23 22 22 23 28 43 45 45 43 42 46 43 45 44 42 40 39 36 35 33 31 30 26 23 22 23 22 23 22 23 24 24 22 17 15
32 18 8 8 11 11 14 19 13 14 19 20 15 19 17 19 19 24 27 30 47 46 40 21 47 50 58 47 42 39 41 40 37 36 33 34 31 28 26 26 27 28 23 22 26 24 17 15 12
26 9 10 14 13 14 13 23 18 20 19 12 15 11 15 20 18 24 24 27 25 32 35 40 33 45 37 44 45 43 40 37 38 38 36 38 36 30 33 32 29 28 24 24 23 18 14 12 14
22 9 8 8 10 13 12 21 21 23 27 13 15 10 15 15 17 17 19 22 28 26 26 22 14 13 19 28 47 46 44 40 44 43 39 35 41 35 35 30 25 23 25 23 20 15 13 14 17
17 6 6 9 10 16 12 19 23 23 10 10 5 8 11 13 13 13 16 16 20 23 22 26 23 22 18 14 12 19 8 16 18 32 41 39 42 36 35 31 24 22 21 19 18 16 16 18 19
13 2 9 18 14 13 11 23 24 8 11 11 0 2 6 12 16 17 15 15 14 14 19 22 21 23 20 15 15 23 22 23 15 16 23 37 45 43 32 25 24 13 13 14 14 16 17 20 19
11 6 11 11 12 10 12 12 10 7 12 4 2 4 5 9 13 18 18 18 15 16 17 19 24 26 18 17 15 19 15 18 18 16 18 33 46 30 27 18 11 12 13 14 15 18 16 15 15
11 9 10 8 12 7 7 10 11 10 11 8 8 11 12 14 17 16 19 24 18 18 18 18 19 20 27 21 18 21 22 22 21 20 18 25 27 26 20 14 13 13 12 12 14 15 13 13 9
12 10 11 13 10 7 10 11 11 14 13 13 13 15 17 16 18 20 20 21 19 19 19 11 21 16 23 24 20 21 20 21 22 21 18 27 25 16 15 16 15 12 11 12 13 12 11 12 13
12 11 8 10 14 14 10 8 8 14 15 15 14 17 18 16 17 15 16 16 16 17 16 18 19 17 22 23 23 22 22 25 25 25 25 15 15 19 18 16 15 13 13 12 9 9 12 15 17
10 8 7 14 10 16 19 10 17 11 15 15 16 19 16 12 11 12 14 17 14 13 13 16 16 15 17 15 19 25 24 18 13 16 17 19 17 14 15 15 13 12 12 9 9 12 16 17 21
8 5 5 21 10 16 18 18 3 10 13 14 12 10 10 8 7 6 7 15 6 4 7 11 12 15 17 20 16 14 21 20 17 14 12 12 10 10 12 12 12 10 11 10 12 16 19 22 26
9 6 14 15 13 14 10 16 9 15 14 13 9 6 7 7 4 7 6 5 10 12 16 16 16 16 17 18 18 17 18 15 11 10 7 7 11 14 14 13 11 11 11 12 15 20 22 26 30
9 12 11 10 17 11 7 6 18 17 17 13 10 6 0 2 1 1 8 12 11 13 15 11 11 12 11 11 11 11 10 10 9 9 10 13 14 19 17 15 13 12 14 16 20 24 26 30 33
15 13 9 11 17 18 10 2 10 23 19 15 13 8 6 4 4 2 2 4 6 5 4 5 9 8 7 4 3 4 5 7 9 11 13 14 19 20 16 16 15 16 18 20 24 27 31 33 32
10 7 8 13 13 12 10 6 18 13 17 13 12 7 5 4 5 6 5 4 5 5 5 5 5 5 4 5 7 8 10 11 13 15 17 20 21 19 18 19 21 20 23 23 26 32 35 29 30
12 10 17 16 4 7 6 6 13 18 18 7 11 8 3 7 5 4 4 5 5 5 6 6 7 8 10 11 12 12 14 16 17 18 19 20 19 20 20 24 24 25 28 29 36 40 40 35 31
5 9 15 14 12 13 15 18 15 14 6 4 4 5 6 7 4 4 4 5 6 7 8 9 10 11 13 13 15 16 17 17 18 18 19 20 20 22 24 26 29 32 37 40 42 44 39 40 38
9 16 12 11 9 9 4 9 12 5 9 10 9 8 9 7 5 6 7 8 9 9 10 11 12 13 14 15 17 18 18 20 20 20 22 24 23 25 27 30 27 31 35 35 41 42 43 44 41
13 8 9 8 8 7 9 8 7 10 7 11 14 13 12 9 9 11 13 14 15 15 15 15 16 15 14 17 19 21 22 22 22 24 26 27 29 29 34 32 30 31 35 38 40 42 45 49 44
14 13 6 9 12 8 14 12 13 10 15 17 17 17 18 15 14 15 17 18 16 17 19 18 18 18 17 16 17 19 19 21 20 22 25 28 40 33 37 27 30 36 39 40 39 42 46 50 51
15 16 9 8 8 16 10 6 11 19 19 17 16 18 20 22 24 25 23 21 19 17 19 21 20 20 18 19 18 18 19 21 22 27 28 29 38 41 32 32 37 39 40 33 41 46 50 52 51
15 20 19 16 18 13 10 8 11 20 18 20 20 21 24 23 23 21 19 18 17 17 20 22 21 20 18 21 22 22 23 24 26 27 31 35 39 39 31 38 44 33 39 42 45 51 53 50 50
21 19 21 23 16 13 12 12 15 15 17 16 20 23 22 25 25 21 18 17 16 18 18 19 20 21 21 21 23 25 28 30 31 31 34 39 41 42 42 45 35 39 44 44 44 53 54 45 55
23 24 22 20 20 17 14 12 12 15 13 16 19 21 23 25 24 22 21 19 21 21 22 20 22 24 25 25 26 27 31 31 34 38 40 40 41 43 44 44 40 35 39 39 41 51 59 58 61
18 23 24 26 23 26 25 19 19 19 19 20 18 20 21 21 24 25 23 22 22 26 26 24 25 28 29 29 31 30 32 35 38 42 46 45 44 45 46 43 38 47 44 54 55 52 61 66 73

GFSSGP_500_spd_066.txt.gz
Wind_Speed
40 43 46 48 52 47 29 14 13 14 25 37 40 38 24 19 32 48 53 52 54 29 31 35 38 35 33 30 31 34 35 35 33 30 28 23 20 16 17 13 13 13 13 14 15 15 16 13 13
42 43 47 49 48 26 6 16 22 17 28 38 38 36 35 35 42 51 45 49 60 42 25 31 36 40 38 38 39 39 39 37 35 31 27 23 17 17 16 17 15 15 15 16 16 17 16 16 14
43 45 47 49 34 14 5 26 26 30 28 35 38 39 39 41 48 46 41 36 57 56 26 41 42 44 42 40 40 37 35 34 31 30 28 26 22 19 19 18 17 16 17 18 18 16 17 16 18
43 45 43 35 13 8 16 21 26 29 26 33 29 31 37 31 35 37 27 26 42 37 35 35 40 42 43 43 40 39 40 39 36 33 29 27 23 23 22 22 21 19 20 18 19 18 20 19 18
42 43 37 18 17 14 20 17 34 41 42 27 18 28 36 27 27 24 24 26 36 36 36 32 31 46 47 47 47 44 45 42 40 37 34 32 30 27 25 23 25 22 22 20 20 20 21 20 17
41 43 19 10 15 23 16 28 35 22 19 23 11 21 22 19 18 19 20 29 26 28 33 43 28 23 42 44 34 43 52 48 44 40 37 34 32 32 26 24 25 25 25 26 25 19 20 15 15
36 31 13 12 12 16 22 31 18 21 26 17 21 25 24 11 16 16 18 23 23 27 24 28 42 42 51 48 56 52 47 43 43 39 37 36 34 31 29 26 27 29 30 27 22 17 16 14 13
35 25 8 8 13 17 26 29 18 19 24 29 25 16 31 24 19 13 13 19 22 20 17 25 35 48 30 40 53 55 42 36 40 37 37 40 37 33 33 30 30 35 36 25 23 13 12 10 13
27 9 7 13 15 23 27 25 21 14 21 33 20 21 14 14 8 10 15 15 19 11 10 9 14 31 20 16 19 37 35 41 37 29 32 37 41 34 37 34 35 30 28 22 17 12 12 13 14
24 8 4 14 16 24 28 19 24 19 16 22 20 8 6 4 12 11 15 13 13 11 14 14 10 14 12 13 7 8 12 7 22 9 15 12 21 34 35 33 34 29 28 15 8 10 13 15 16
21 5 9 14 16 18 22 17 26 26 16 22 7 4 8 8 11 13 14 16 15 13 15 15 15 16 6 8 8 8 8 11 12 11 12 13 16 27 37 38 29 18 10 8 12 14 14 15 12
19 15 14 16 16 17 15 16 22 24 15 15 12 10 11 18 18 15 15 17 16 15 14 12 10 9 11 15 13 11 15 15 21 18 14 15 16 22 31 26 23 15 11 11 13 14 12 11 12
16 16 13 13 16 14 19 17 14 20 20 16 12 13 17 18 23 20 19 22 18 16 14 13 11 13 12 19 24 19 16 20 22 17 15 17 16 19 25 24 19 14 12 13 12 10 11 11 12
14 17 14 9 6 15 14 13 17 27 9 12 17 16 18 19 17 21 20 18 13 13 14 13 12 16 18 25 18 17 17 17 21 19 20 18 15 22 23 18 15 15 12 11 11 11 10 11 12
15 15 10 6 12 17 17 20 21 19 20 9 11 15 15 13 17 17 11 10 9 9 9 16 17 16 14 13 13 18 18 16 20 24 16 16 19 19 20 17 16 13 13 14 12 10 10 12 15
13 13 9 10 14 14 22 19 23 26 12 10 15 14 14 14 14 14 11 10 16 13 8 10 12 13 14 11 16 20 24 18 14 12 18 19 16 12 12 12 12 12 13 12 11 11 14 14 17
11 13 11 15 18 8 21 20 13 17 7 12 17 13 14 9 8 11 5 6 8 5 6 6 9 12 11 10 7 10 16 20 18 14 12 9 8 10 10 9 9 10 14 12 12 14 16 17 20
3 19 9 17 14 21 17 24 23 19 23 19 19 10 9 12 7 8 9 14 18 19 18 18 17 17 18 17 18 17 15 15 12 10 7 6 8 10 11 12 12 13 14 15 16 17 18 19 23
13 23 7 15 22 18 19 14 17 7 5 18 20 13 5 6 7 3 5 3 10 13 14 13 11 12 13 11 9 7 6 6 4 4 5 7 10 11 14 16 16 17 16 18 21 21 22 22 25
9 11 15 12 20 16 11 12 18 15 15 20 18 10 8 4 2 5 6 4 6 8 7 8 8 7 6 6 5 4 3 2 4 7 10 12 14 15 17 17 18 19 22 23 26 26 28 30 33
8 9 16 17 21 16 8 2 13 16 16 10 8 4 4 4 3 2 2 6 7 6 6 7 5 4 5 5 5 6 7 8 10 12 13 14 15 16 17 18 17 22 28 29 32 35 38 42 40
8 8 15 14 12 8 18 19 16 18 9 3 6 5 3 3 3 2 1 1 2 2 3 4 5 5 7 8 9 10 10 11 11 13 14 16 17 18 19 21 23 26 30 35 38 37 41 40 39
11 11 19 16 18 14 14 12 4 7 5 9 7 9 4 4 5 2 2 3 5 5 5 6 6 7 7 10 12 14 14 15 14 15 16 17 17 20 22 25 29 32 36 35 36 38 37 40 42
14 13 15 14 12 10 6 14 9 16 12 11 18 12 10 7 7 5 1 3 7 6 5 7 8 9 8 10 14 16 17 16 16 16 16 17 21 23 29 28 33 39 38 39 36 37 43 46 35
17 13 14 14 10 1 10 8 16 15 14 8 14 22 15 10 9 9 9 12 14 10 10 7 8 9 9 10 13 15 15 17 16 16 16 19 19 28 31 29 33 27 31 37 41 42 45 38 39
17 16 18 16 16 15 12 9 10 12 9 10 17 17 19 20 14 15 17 16 14 12 13 12 11 11 10 11 13 14 16 16 19 20 21 24 24 27 29 31 31 33 31 31 30 30 35 33 38
14 21 12 24 16 11 3 5 11 18 16 16 14 19 20 20 20 19 17 19 18 16 15 14 15 14 13 13 16 23 17 19 29 28 26 29 28 31 34 35 35 34 36 36 34 40 36 40 42
24 18 23 25 19 11 8 10 19 18 22 16 19 16 19 22 21 22 24 23 22 20 17 16 16 16 16 17 18 20 24 27 29 31 29 31 31 35 39 40 40 40 40 37 41 34 34 46 46
23 24 25 24 24 23 18 16 24 14 16 12 16 18 16 17 21 23 24 26 24 23 22 19 18 20 22 24 24 23 26 31 34 28 32 35 37 39 41 43 43 43 44 42 41 45 47 44 57
24 23 28 31 24 20 22 18 16 14 11 19 22 20 20 18 19 22 24 24 27 25 24 25 21 24 27 29 33 29 26 31 32 36 39 40 43 44 44 44 45 46 46 45 46 47 48 53 56

GFSSGP_500_spd_069.txt.gz
Wind_Speed
34 37 39 40 42 45 49 26 16 2 11 24 32 36 36 35 41 42 48 51 47 50 47 37 38 36 38 36 34 37 35 34 33 32 31 31 30 24 21 18 18 16 15 15 15 16 16 15 14
35 36 38 41 43 47 35 15 8 14 30 30 34 38 35 37 40 37 37 41 50 49 48 51 54 31 35 37 40 41 39 38 37 37 34 33 27 22 16 18 19 17 17 16 17 16 16 14 13
34 36 36 39 44 46 9 1 14 26 24 33 38 41 31 34 39 39 34 36 41 43 45 53 57 28 34 42 42 39 39 39 38 36 32 29 24 22 22 20 18 20 20 19 19 18 15 15 13
33 34 35 38 45 24 16 17 25 30 31 28 32 42 36 32 33 51 20 39 38 45 44 46 47 46 42 38 45 43 42 42 42 38 35 32 30 28 23 22 21 21 20 20 19 19 18 18 18
32 34 35 40 38 13 16 25 33 31 34 35 37 33 41 41 46 34 38 33 30 33 31 37 39 33 38 49 51 50 46 43 41 41 39 35 31 29 25 23 24 23 22 23 22 21 19 19 20
28 31 35 38 21 4 20 26 25 28 31 26 23 27 26 28 39 30 36 27 24 27 26 31 34 38 38 24 58 51 51 47 46 43 39 35 32 31 29 29 28 24 24 25 24 24 23 22 19
29 32 35 32 2 3 23 27 32 32 36 32 25 27 22 19 24 26 23 22 24 21 17 25 34 40 44 40 43 55 59 58 48 48 42 35 32 32 32 31 29 27 26 27 27 25 21 19 16
24 29 29 16 8 12 21 26 31 30 25 31 32 31 22 10 19 10 11 12 17 14 13 19 32 29 44 27 54 55 50 52 60 46 44 34 32 31 32 32 32 28 27 26 30 30 21 17 11
26 28 20 12 7 14 21 26 25 26 24 21 24 25 26 15 14 8 7 8 10 11 6 13 14 15 20 28 46 38 47 35 41 43 36 25 28 32 34 40 36 32 31 34 27 28 25 11 13
22 23 16 13 7 17 21 25 25 27 20 20 19 21 8 10 12 11 4 8 11 7 8 10 14 11 11 11 26 21 28 24 37 29 30 20 22 15 21 33 39 34 28 28 22 13 10 11 13
24 19 17 15 12 17 25 17 23 28 19 14 13 8 10 8 12 8 7 11 13 13 10 11 14 11 10 4 10 12 16 16 7 6 11 11 12 12 15 15 26 33 30 21 15 11 10 13 14
23 22 18 13 16 21 23 19 23 27 30 25 19 9 15 15 15 13 12 11 13 13 15 16 9 7 4 7 6 5 4 4 2 8 9 12 11 14 11 14 17 25 22 16 13 11 11 13 14
22 20 14 11 14 13 7 17 21 22 26 27 17 15 12 18 15 13 13 14 15 14 17 14 14 13 10 5 16 11 12 10 9 13 13 14 15 14 12 12 21 28 22 17 12 11 14 14 11
20 20 12 10 6 5 5 13 16 20 23 24 19 14 9 14 15 9 8 12 15 16 18 20 20 17 20 13 14 19 16 10 12 14 14 16 16 14 12 16 21 25 19 12 13 11 12 11 12
19 16 10 5 4 12 13 14 20 17 21 31 11 10 12 16 19 15 6 8 11 12 14 16 19 18 14 12 14 14 17 17 15 12 14 18 14 13 14 17 24 18 11 12 10 10 12 12 13
14 7 10 6 9 15 18 17 17 18 23 18 9 8 10 13 17 16 6 6 9 12 13 16 17 19 17 12 10 9 11 14 11 15 19 14 11 11 21 19 14 11 9 9 11 13 13 13 15
13 5 10 9 7 16 15 20 21 26 18 15 7 5 8 11 12 12 5 1 3 9 14 13 12 15 14 15 11 12 11 14 12 12 12 18 19 17 11 7 6 8 11 15 14 15 15 16 16
12 8 15 15 14 19 16 21 18 22 19 13 13 7 6 3 7 11 8 5 4 7 7 8 11 11 10 6 6 8 15 19 16 16 15 14 12 8 6 9 10 12 12 16 17 16 19 18 20
9 6 11 11 15 20 18 19 14 14 13 19 17 12 9 2 5 6 8 12 10 10 13 17 19 20 19 18 18 18 17 16 14 13 11 6 4 3 7 10 14 14 15 18 20 20 21 22 23
8 3 5 20 14 14 9 14 11 10 18 14 15 8 5 4 1 2 8 9 9 10 12 14 16 15 14 14 15 15 13 11 7 4 2 2 3 6 10 12 14 14 17 19 22 23 25 27 29
5 10 16 22 20 17 18 6 15 12 14 17 13 14 8 4 4 2 2 7 9 10 9 9 10 10 10 10 9 9 7 5 2 0 2 5 6 7 10 11 11 15 18 19 22 29 32 33 36
9 12 19 21 20 23 21 12 16 20 7 6 9 7 4 7 4 3 3 6 7 7 8 8 8 8 7 6 4 3 3 3 3 3 4 7 8 9 10 11 12 14 21 26 29 30 31 34 38
12 17 15 17 14 17 17 15 9 9 3 4 4 5 7 4 3 2 6 6 5 3 4 5 6 6 3 1 2 3 4 5 6 6 5 7 10 9 10 15 18 22 24 28 34 39 39 34 38
17 22 15 17 15 16 10 18 11 7 6 8 11 6 11 8 2 4 2 2 5 3 1 2 4 4 2 1 3 4 4 5 6 8 6 9 12 12 13 16 17 17 25 28 31 28 30 33 37
23 20 17 15 16 11 19 15 7 10 6 8 5 8 13 16 7 6 6 6 8 4 4 2 2 4 4 5 7 7 9 7 9 10 10 13 14 13 17 17 17 20 22 25 26 30 31 31 30
22 18 20 17 15 17 15 7 11 8 2 6 11 11 15 14 9 10 12 9 9 8 8 9 9 9 10 11 13 13 13 12 14 16 13 19 19 21 21 21 21 24 27 28 28 30 32 34 35
24 23 11 23 17 19 14 13 8 12 12 12 9 13 15 16 13 15 12 13 7 9 11 13 14 15 15 17 16 16 19 20 20 24 22 25 24 25 25 24 27 30 31 33 34 34 36 36 37
29 23 20 23 20 19 13 14 16 18 21 16 13 13 13 14 15 13 15 14 14 16 17 17 17 17 18 18 19 19 22 24 26 28 28 29 31 26 25 26 32 35 37 38 38 38 38 39 40
31 29 29 26 25 25 14 18 19 21 22 14 12 11 9 11 13 13 16 20 20 19 20 21 20 21 23 24 21 23 26 27 31 33 36 38 28 30 32 34 35 40 40 40 42 40 40 42 44
25 31 30 30 27 26 24 21 20 20 15 17 17 17 19 15 14 16 17 18 18 15 14 15 23 25 25 27 26 29 31 30 37 40 44 31 32 37 38 38 39 38 40 41 40 42 43 44 45

GFSSGP_500_spd_072.txt.gz
Wind_Speed
34 32 31 31 33 35 39 26 27 20 16 12 22 25 25 27 31 36 39 40 31 42 44 42 41 42 38 42 41 38 36 32 33 34 35 32 30 26 23 21 18 19 19 17 15 14 15 15 15
32 31 31 31 33 32 29 17 22 14 14 20 26 31 31 34 34 35 40 40 41 38 35 37 41 43 47 41 45 38 37 38 38 37 35 34 30 25 17 15 15 17 19 18 17 16 16 16 16
28 28 29 30 31 31 22 13 12 14 18 25 28 28 29 31 37 37 37 41 53 40 40 35 46 46 47 47 35 40 41 43 42 39 36 36 31 25 18 20 19 18 19 21 22 21 20 18 17
28 27 27 28 26 25 20 15 15 15 25 31 34 33 37 38 33 37 35 34 44 49 37 38 46 53 50 55 42 36 47 45 42 40 40 36 34 27 26 26 21 21 21 23 22 22 20 20 19
28 26 27 26 21 16 15 15 19 23 25 26 26 29 30 32 33 27 42 42 43 49 33 38 40 41 52 57 49 52 54 47 43 39 33 43 33 29 27 23 23 22 24 25 24 23 22 21 21
28 25 25 23 15 15 10 15 17 23 27 26 28 29 26 33 32 29 26 40 34 39 31 19 25 30 19 46 46 49 49 53 41 40 44 40 30 32 29 25 24 26 27 26 24 27 26 22 22
27 24 22 24 19 12 6 13 23 28 25 23 23 25 24 18 21 22 22 28 32 34 24 22 20 28 37 27 48 34 48 62 54 50 46 42 39 33 29 27 28 28 26 27 28 27 27 23 22
25 23 23 23 17 12 8 16 26 27 25 25 25 23 24 12 16 17 10 12 12 16 24 27 22 18 23 22 31 47 55 53 51 46 49 46 43 36 30 32 30 28 29 29 29 26 24 25 23
22 21 25 21 19 12 7 17 24 26 30 26 18 14 12 2 6 9 8 10 12 16 21 23 15 6 10 18 23 42 41 41 42 49 54 48 37 39 32 32 33 32 32 32 33 29 28 27 27
21 19 24 21 15 10 10 20 24 30 27 15 17 16 17 10 5 6 5 10 15 17 16 10 9 10 7 9 21 34 17 34 54 49 47 51 45 39 33 37 37 37 36 35 34 29 23 22 17
19 19 25 19 14 9 14 22 25 25 24 11 14 21 20 15 12 9 8 10 16 17 15 10 8 6 5 3 5 9 27 24 37 30 37 40 39 30 24 26 29 28 37 37 32 26 24 20 17
18 18 23 18 12 9 20 23 25 20 22 24 22 21 20 21 17 16 15 17 16 18 15 13 8 4 4 5 4 9 14 14 18 23 23 18 19 18 19 19 22 16 16 26 26 21 20 18 13
21 18 24 25 15 10 14 18 13 14 16 18 20 19 20 23 24 20 20 18 22 17 13 11 7 6 7 8 12 10 14 13 11 13 11 11 13 15 15 15 16 15 16 21 22 20 18 15 12
23 20 21 18 11 3 9 8 10 11 14 16 19 14 15 19 13 9 12 14 18 18 19 16 12 11 8 8 18 14 14 13 12 11 14 14 15 14 19 16 14 14 18 22 22 19 13 12 13
16 20 13 7 4 4 8 4 9 9 14 20 16 7 10 14 8 8 7 13 18 19 18 16 16 12 12 15 16 13 18 19 14 14 16 15 17 17 20 16 13 14 17 18 16 16 14 13 13
15 18 11 7 9 1 9 4 11 17 15 7 15 15 13 9 8 7 7 6 13 18 15 13 12 12 15 15 17 18 16 24 22 17 16 18 18 19 17 14 13 17 14 12 13 11 13 15 17
17 17 15 11 14 5 8 8 14 19 10 14 18 10 11 6 4 6 6 4 9 14 13 10 7 13 17 16 14 16 18 21 18 19 18 19 19 16 14 16 20 17 13 10 9 12 16 19 18
19 17 19 17 18 10 11 11 14 17 7 2 11 11 7 4 3 8 5 3 1 1 3 6 8 10 13 18 18 16 17 20 15 12 14 20 20 18 17 15 13 12 11 10 14 18 20 20 20
20 19 17 19 6 13 15 10 15 10 4 7 10 6 7 6 1 7 7 7 7 10 12 5 6 8 10 11 13 15 16 18 17 18 16 15 14 13 13 12 11 10 10 14 18 20 23 25 23
22 20 18 20 6 12 8 8 18 11 6 5 7 1 9 6 3 5 6 6 10 7 13 16 20 18 16 17 16 18 18 18 17 15 13 11 11 10 9 11 10 13 15 17 20 24 26 27 28
21 19 22 19 12 20 16 14 20 10 8 11 2 5 8 5 4 7 6 6 8 8 8 11 13 15 15 14 13 13 12 12 11 11 10 10 9 8 9 11 13 15 15 15 18 21 23 28 31
22 20 26 16 19 23 18 13 21 20 14 3 6 9 7 5 6 8 6 6 7 8 9 10 11 12 13 14 12 12 11 8 6 6 6 7 8 8 10 11 10 12 14 15 17 22 26 29 32
18 26 22 19 20 20 16 16 17 19 6 2 3 10 8 6 7 10 8 8 9 10 8 8 7 7 7 8 9 9 9 10 8 7 8 9 10 12 13 11 9 13 14 15 17 21 22 23 26
22 29 24 22 23 18 13 20 16 18 10 5 5 7 6 5 4 7 8 6 5 8 12 10 8 8 9 10 9 9 10 10 10 11 12 11 12 12 11 13 14 11 12 12 14 18 21 24 26
29 32 27 24 23 14 20 15 9 7 12 7 9 3 4 6 6 7 8 7 4 3 6 8 9 10 10 9 9 10 11 9 11 12 12 14 13 13 16 16 18 19 18 17 17 20 22 26 30
35 30 27 26 22 18 22 13 14 13 10 7 5 1 3 7 6 6 8 11 12 7 5 4 6 8 9 11 12 14 14 12 13 14 16 17 19 20 21 20 22 25 23 22 25 26 25 28 31
36 35 22 27 30 25 22 17 23 21 13 11 8 2 5 6 2 7 12 10 10 10 6 6 7 9 10 14 17 17 16 16 18 21 20 21 23 26 29 28 25 23 24 23 25 27 30 32 34
41 28 30 29 27 26 20 20 25 22 12 8 10 8 8 8 5 5 5 12 11 10 11 11 11 13 15 16 17 18 22 23 24 27 25 24 29 31 33 35 30 25 27 26 29 31 32 34 34
39 35 32 32 30 20 18 18 20 19 15 14 8 14 11 12 9 7 5 6 11 12 11 11 14 17 19 20 22 25 26 28 29 30 29 33 33 41 32 29 27 27 26 30 32 33 35 35 36
40 36 32 36 29 25 25 23 21 18 17 19 14 14 15 15 17 18 12 7 8 9 10 13 18 22 24 25 28 32 33 34 35 35 32 33 28 35 41 29 29 28 28 30 34 36 36 37 38

GFSSGP_500_spd_075.txt.gz
Wind_Speed
30 29 31 29 30 30 30 32 33 37 32 31 29 25 22 26 26 25 28 29 32 32 39 39 41 44 44 38 36 39 34 30 29 28 35 23 23 24 23 21 18 15 13 14 14 15 17 15 15
28 29 29 29 28 29 31 32 36 32 26 20 18 18 17 20 24 29 33 36 36 36 35 41 41 44 44 41 41 40 32 42 42 28 30 26 25 27 23 20 15 12 10 13 16 17 18 18 16
28 27 27 27 27 29 29 30 31 23 19 11 20 25 28 30 31 27 29 35 36 34 38 41 43 31 20 20 26 42 39 45 39 29 31 30 27 29 23 20 17 13 14 15 16 19 24 20 19
27 26 25 24 26 30 28 26 28 20 19 14 15 22 27 32 35 32 26 29 31 36 36 34 41 43 36 38 40 37 37 35 37 36 34 32 31 29 25 23 21 19 18 16 20 23 23 22 22
26 24 24 22 26 29 30 28 26 16 18 17 16 23 29 27 29 32 30 30 28 33 37 35 38 42 43 49 47 49 47 42 45 40 38 36 32 34 29 27 24 22 18 17 21 22 22 22 23
26 22 23 22 25 28 29 28 28 16 20 14 21 23 25 30 28 24 26 25 27 29 32 35 33 37 33 36 42 39 44 48 49 53 44 40 38 30 32 27 25 22 20 20 21 23 24 23 24
27 22 24 24 25 27 29 28 25 21 18 23 21 23 26 29 21 22 19 21 20 25 29 30 27 30 21 24 24 38 30 44 49 45 36 40 40 41 40 26 26 24 22 24 23 26 26 24 28
24 23 23 24 27 27 29 26 21 17 19 21 22 21 19 19 16 15 17 13 9 7 18 30 28 32 25 21 21 24 18 48 48 47 48 47 43 33 30 26 28 27 25 25 26 27 27 28 28
24 23 23 25 27 27 28 18 18 18 21 24 18 14 17 14 17 16 14 13 10 10 11 16 18 19 18 11 13 9 30 43 52 45 40 47 44 39 29 30 30 29 28 28 29 29 27 31 32
26 21 22 26 29 32 27 20 19 19 22 22 8 13 17 20 20 19 15 13 10 12 11 16 17 15 11 5 9 12 10 38 43 43 48 47 51 45 39 36 34 35 34 32 31 32 34 34 30
26 22 20 23 30 34 28 20 17 18 19 14 11 18 18 21 20 21 20 14 12 14 12 12 13 11 4 8 1 9 8 41 33 35 37 48 46 45 33 34 34 32 33 36 38 37 34 32 27
21 21 23 21 28 32 24 18 14 13 14 14 14 18 20 23 18 22 25 22 17 18 17 16 14 8 10 7 2 4 17 26 25 35 43 36 43 47 40 36 33 28 33 33 32 31 26 26 22
20 21 23 22 26 25 18 15 7 8 11 11 14 19 23 20 15 20 20 20 20 18 18 16 14 13 14 12 12 13 13 20 20 28 25 28 29 33 30 29 26 26 31 29 25 21 21 21 22
22 19 21 25 24 23 15 9 7 11 10 11 13 13 10 13 14 18 20 18 18 16 16 18 15 16 14 12 14 22 19 15 23 21 21 20 23 22 23 21 23 26 27 27 21 19 23 20 19
21 17 22 22 23 21 17 11 13 12 8 8 12 15 10 11 14 15 15 16 15 16 19 21 19 20 16 12 19 20 11 15 14 15 11 12 16 20 20 22 23 23 20 15 16 20 21 19 16
21 17 21 23 21 22 14 10 10 10 8 9 11 12 13 8 12 11 10 10 13 12 15 20 23 19 16 12 17 11 12 19 19 17 22 21 21 22 21 22 22 23 18 15 17 18 19 16 16
20 18 21 25 23 23 22 13 12 12 6 8 7 12 11 11 10 7 8 8 10 11 14 17 17 20 18 17 16 19 20 20 24 23 18 19 21 23 21 22 21 20 17 15 12 15 17 17 19
23 23 22 23 24 28 20 21 12 12 2 7 7 12 12 9 8 7 5 5 7 5 9 15 18 19 19 21 21 20 21 22 27 23 20 20 20 22 24 23 18 19 17 16 14 12 16 20 21
31 26 21 20 26 29 26 23 12 8 6 9 6 11 11 10 6 6 4 4 2 5 4 12 18 16 16 20 19 20 19 16 19 20 21 20 17 20 21 19 21 20 19 15 14 18 20 22 24
30 30 23 22 24 29 24 18 9 3 7 5 7 10 10 9 6 6 5 2 1 7 11 12 9 11 14 18 22 23 20 17 17 18 20 21 20 19 19 18 19 16 13 17 18 18 20 24 26
29 29 26 27 26 29 25 14 10 2 7 7 12 9 7 6 5 5 6 4 4 5 9 9 11 15 18 19 19 18 21 22 20 17 15 16 18 17 17 20 20 18 17 18 19 19 21 24 26
30 26 28 32 30 30 27 14 14 6 6 7 13 10 4 5 9 9 8 6 4 5 6 7 7 12 16 18 20 19 18 17 18 20 20 18 17 18 19 17 19 18 19 18 17 17 19 19 22
23 31 30 33 34 31 22 17 14 9 6 8 13 10 7 7 9 9 9 8 5 4 4 5 6 6 7 12 15 16 16 16 15 15 18 18 16 16 17 18 16 17 16 17 17 17 21 24 25
27 34 37 33 35 31 20 21 12 12 9 12 11 10 9 10 11 9 7 6 5 5 7 9 9 10 10 10 10 9 11 12 14 15 14 15 16 16 16 15 18 18 14 16 17 19 21 23 24
39 34 37 37 37 25 20 21 6 11 14 15 16 15 12 11 10 11 11 8 6 4 6 7 7 6 6 7 8 11 10 10 10 10 12 14 15 17 18 19 20 23 22 22 22 23 23 26 27
35 36 37 39 35 26 25 19 12 19 12 13 22 14 14 10 8 13 13 13 12 7 7 8 6 5 6 8 10 10 9 10 9 10 14 15 16 16 17 18 23 24 24 24 27 30 29 30 30
36 41 37 37 39 36 29 25 20 19 14 17 20 17 13 9 8 14 15 17 17 12 11 11 10 10 8 10 11 12 13 16 16 17 18 20 20 21 25 27 28 29 31 28 35 43 36 31 32
38 38 40 41 43 38 33 27 24 21 16 17 18 16 14 6 8 10 12 17 16 15 16 14 13 12 14 13 13 15 18 21 24 25 26 26 26 28 32 35 37 34 36 38 36 34 36 32 32
43 42 40 42 44 40 31 23 26 21 20 19 19 17 12 13 10 7 7 12 16 17 16 17 18 18 20 19 21 23 24 26 28 29 30 31 32 35 37 42 48 36 44 35 29 31 35 31 34
42 40 38 41 47 42 32 21 22 22 22 21 16 17 15 17 18 13 11 8 10 13 15 17 17 16 19 25 28 27 28 25 32 16 29 36 42 48 42 26 23 25 25 26 29 31 31 34 36

GFSSGP_500_spd_078.txt.gz
Wind_Speed
29 28 26 28 30 30 29 30 30 30 32 32 34 33 27 25 28 30 28 28 31 32 32 34 35 35 43 42 41 36 33 28 31 27 32 26 20 24 19 16 12 9 11 11 12 14 11 11 10
28 27 25 28 29 29 29 30 29 30 29 31 33 31 25 24 25 28 29 31 33 38 35 35 38 44 43 40 38 36 34 29 27 24 34 35 28 25 22 18 13 8 8 11 11 11 13 12 15
26 26 25 25 29 28 28 29 30 31 32 32 30 28 29 27 20 19 24 26 34 38 39 37 40 39 43 48 34 31 28 31 31 27 30 32 31 28 23 21 15 11 12 12 10 11 13 13 16
25 23 23 24 28 31 29 30 31 33 34 33 26 20 20 20 20 23 25 26 24 30 36 38 39 39 39 36 32 41 29 26 28 27 36 40 34 31 23 25 18 13 13 14 13 14 18 21 20
25 23 24 25 28 31 31 28 30 31 31 30 18 15 15 19 22 24 29 28 27 29 31 29 33 33 36 38 39 30 36 33 30 29 35 46 35 34 24 27 24 18 17 15 15 16 19 21 20
24 25 26 26 27 30 31 31 30 30 29 25 15 12 14 18 22 24 19 20 25 28 29 24 28 28 35 38 33 28 32 32 30 34 37 34 37 34 30 22 23 20 19 18 17 18 21 22 22
22 24 26 29 28 28 30 31 30 31 31 20 16 14 16 17 18 20 15 15 21 23 17 18 17 25 27 24 28 24 29 32 24 24 34 35 39 37 31 30 29 24 20 18 21 22 23 22 24
22 22 25 31 30 28 28 31 32 34 27 19 18 16 15 17 19 19 17 16 17 21 15 5 13 15 19 23 18 17 18 29 33 28 33 39 45 38 33 29 24 20 20 22 26 25 23 24 26
22 21 25 29 28 28 29 29 31 33 26 17 16 13 16 17 21 20 18 16 16 15 16 9 9 12 13 17 21 16 8 23 35 38 36 44 44 36 33 39 29 28 25 25 26 26 26 28 27
21 23 27 28 26 27 27 28 27 27 24 14 8 12 18 18 23 24 18 14 15 13 11 13 15 11 12 13 16 19 10 12 37 46 48 40 40 40 40 37 34 30 28 28 27 29 28 31 30
18 21 27 26 26 29 28 29 25 21 19 13 13 19 19 21 22 20 17 16 17 14 14 13 9 10 10 15 11 14 15 24 32 49 44 42 36 41 40 36 26 30 30 30 31 31 30 36 37
17 20 26 23 28 31 30 31 19 20 20 16 16 20 24 22 26 19 16 18 14 16 16 12 12 8 11 12 11 3 7 24 43 43 44 36 34 42 39 35 31 33 34 35 30 27 27 28 29
21 21 24 22 26 30 31 29 22 18 18 12 13 15 19 19 17 13 16 14 14 14 16 16 13 12 14 12 10 10 6 23 29 35 36 38 36 40 42 43 48 42 36 34 25 26 28 27 25
24 24 20 24 24 27 28 23 16 20 16 12 11 11 15 16 17 17 17 17 16 14 13 15 15 15 16 14 11 11 14 28 31 32 28 34 34 28 35 33 29 32 32 26 27 27 23 21 19
23 24 21 24 28 28 26 16 15 16 15 16 14 16 20 19 14 15 15 17 17 12 14 13 17 18 18 14 14 15 15 23 26 19 27 15 18 17 18 19 21 28 27 24 25 24 21 20 21
24 23 20 28 28 29 23 14 18 17 13 16 17 16 17 12 12 14 16 15 15 7 12 17 21 22 20 18 18 20 16 15 18 22 18 17 13 13 14 20 22 21 20 21 23 20 20 20 22
23 20 24 28 30 29 29 17 20 19 16 19 16 16 17 15 13 11 13 15 12 9 12 14 19 21 18 19 21 24 18 14 16 17 20 20 14 13 20 22 20 20 22 24 23 21 21 23 23
23 25 28 22 29 31 30 28 23 22 20 18 16 15 18 16 12 10 11 10 11 10 13 14 15 16 19 22 22 24 22 19 20 23 21 19 19 22 23 23 25 23 22 21 20 18 20 22 23
28 30 27 21 25 34 31 28 26 19 21 19 12 13 16 15 10 10 10 7 6 10 12 11 16 15 15 19 23 23 26 19 22 25 22 22 24 25 27 27 24 22 24 24 18 17 13 15 19
31 30 26 22 23 34 33 30 26 20 23 15 9 11 16 13 8 9 9 6 4 6 5 6 12 13 15 22 23 22 21 19 20 25 25 27 30 28 27 24 25 26 22 21 19 18 17 21 21
31 26 25 28 31 32 35 28 23 16 17 12 9 14 16 12 5 7 8 3 2 2 3 7 6 8 17 22 24 24 25 24 21 22 28 24 22 21 22 24 22 22 20 18 20 19 20 21 21
36 23 30 33 33 33 35 28 21 16 15 12 10 14 12 11 9 8 7 4 2 2 1 7 6 6 4 13 22 20 17 15 20 21 22 19 19 19 19 19 21 21 20 21 21 22 20 19 19
30 30 36 33 37 36 30 34 15 19 14 14 13 12 12 13 9 8 8 6 2 3 4 4 9 9 5 8 14 15 15 17 17 19 19 19 18 17 16 17 18 20 21 22 20 19 21 21 24
32 33 38 35 38 40 26 31 13 22 16 17 10 11 12 11 11 9 8 7 4 4 5 6 8 11 11 11 13 14 14 15 14 13 14 16 16 16 17 20 21 20 20 21 21 22 23 24 26
37 37 36 40 41 34 30 30 12 21 19 17 11 13 14 12 13 13 11 8 7 4 5 7 7 5 6 8 9 11 14 16 15 15 15 15 16 17 18 19 21 22 24 24 25 26 26 27 29
34 36 38 41 39 34 34 30 13 21 19 16 15 17 18 13 12 16 15 13 11 6 7 8 8 8 8 7 7 8 9 11 11 11 13 16 17 18 19 21 23 24 26 26 26 27 28 32 33
36 40 36 36 40 39 38 30 21 22 18 13 20 21 16 15 14 15 16 17 17 14 13 11 11 11 11 11 12 12 12 13 15 15 16 18 17 18 20 23 24 26 28 30 29 30 33 35 36
40 37 38 42 44 40 37 31 20 24 21 18 17 19 20 16 15 14 12 17 20 20 19 16 15 15 14 13 14 13 14 17 18 18 17 18 21 21 23 26 28 29 31 36 39 38 39 37 37
42 44 44 44 44 38 36 30 19 27 28 20 23 23 23 21 18 14 12 16 16 17 19 19 18 18 16 16 19 20 21 24 25 22 22 19 25 26 28 30 34 36 43 44 42 45 49 49 40
43 43 43 43 41 40 37 33 18 27 30 26 25 27 24 26 23 18 13 13 13 15 17 19 21 21 21 20 23 24 26 28 20 22 21 27 18 19 34 30 41 41 44 29 26 25 28 33 33

GFSSGP_500_spd_081.txt.gz
Wind_Speed
26 26 26 25 26 27 29 29 27 27 25 26 28 32 32 33 32 30 30 32 32 32 34 34 32 30 35 36 41 42 36 30 29 33 32 28 29 22 18 21 17 17 15 11 7 6 8 9 9
25 24 24 25 26 28 30 29 28 26 24 27 31 33 33 32 29 29 30 28 28 32 36 38 36 32 31 32 40 39 43 44 37 28 32 29 30 22 21 28 21 19 14 12 10 8 9 11 9
24 22 22 23 27 29 29 30 28 26 27 30 31 30 30 31 26 21 19 20 23 27 31 34 34 38 35 41 38 37 45 30 33 28 32 27 39 30 27 30 25 18 17 14 11 9 10 11 10
23 22 20 21 27 30 30 29 25 26 30 31 31 28 28 22 18 18 19 24 24 23 27 31 30 36 35 33 36 30 37 46 44 34 30 24 32 31 27 29 25 21 19 14 12 12 13 14 15
22 23 21 20 25 30 31 29 26 28 29 32 29 27 23 17 17 19 19 21 21 23 22 25 31 28 35 28 32 35 34 18 29 28 29 31 29 30 35 31 24 24 20 17 16 13 14 16 16
21 21 22 22 23 27 31 27 25 27 27 26 25 21 17 18 18 17 19 21 19 20 23 24 30 30 24 26 27 29 27 20 26 33 21 29 22 31 33 30 30 25 20 21 18 16 16 17 15
22 20 21 24 23 27 27 26 26 29 28 22 20 18 18 19 16 17 18 19 21 21 22 24 19 22 25 25 18 21 21 16 26 26 25 25 24 34 36 36 31 27 25 22 19 16 17 16 17
22 20 20 23 25 28 26 22 29 30 27 22 21 19 22 21 20 20 20 18 23 21 21 19 12 10 25 16 16 17 14 13 17 24 26 21 24 26 34 34 29 28 27 25 21 18 19 20 19
21 20 21 23 26 26 25 24 30 31 26 20 20 20 21 19 21 22 21 22 22 21 21 16 15 7 12 20 12 18 16 15 20 27 37 29 24 22 36 39 36 32 30 28 24 20 23 22 21
21 17 24 23 25 23 24 26 30 31 27 20 18 20 18 20 23 25 22 22 19 20 21 18 13 12 8 10 16 17 17 19 23 27 35 37 35 29 42 41 35 36 33 30 25 24 25 23 24
20 17 23 23 28 26 22 26 30 32 24 23 17 20 19 21 24 24 24 21 17 22 23 22 14 10 11 16 17 16 15 25 22 45 47 37 41 40 41 41 37 35 31 29 28 28 26 26 28
20 18 21 22 28 28 24 24 27 28 26 23 19 20 18 20 20 16 11 14 18 22 21 20 17 14 9 9 15 19 17 23 29 39 43 35 31 37 47 47 42 43 37 33 35 30 25 27 28
21 20 21 21 27 31 25 27 26 25 26 21 19 19 16 18 18 15 14 15 16 15 16 20 19 15 12 11 15 19 19 19 29 40 43 45 35 43 46 45 41 40 42 39 36 31 26 29 30
26 21 19 22 24 30 26 27 27 24 24 23 21 19 19 17 22 21 15 15 12 16 17 17 21 17 15 13 18 15 17 19 28 33 46 46 41 41 40 38 43 44 37 41 39 32 31 28 29
27 24 19 23 25 29 23 20 22 26 21 23 22 20 21 20 21 20 15 15 16 16 17 16 20 18 15 13 16 12 4 18 27 32 40 40 39 42 37 36 43 46 42 34 34 30 29 29 26
28 25 19 25 30 28 22 15 21 28 21 24 24 21 22 19 19 21 18 16 15 17 18 16 19 16 16 14 18 15 7 25 31 34 33 34 26 26 31 30 27 28 23 26 29 28 25 23 22
28 22 23 29 32 27 25 15 23 25 26 23 24 26 22 18 20 18 18 15 18 17 16 16 17 18 18 17 18 21 10 16 29 33 31 20 23 22 22 23 21 22 22 27 24 23 20 20 19
25 26 27 27 31 31 29 19 21 23 22 21 24 27 21 19 19 16 15 15 15 15 14 13 17 17 19 21 19 16 14 13 14 26 23 24 19 17 14 15 18 22 24 23 23 22 19 19 19
30 31 29 24 30 32 33 26 20 21 21 20 21 27 22 17 15 13 11 12 13 12 15 11 15 18 15 16 16 15 20 16 15 18 19 24 22 19 18 18 21 25 26 22 22 20 19 17 15
31 31 24 23 29 37 33 31 23 21 21 19 23 25 22 16 12 13 8 9 8 8 12 8 11 14 16 17 15 16 18 20 19 19 25 24 24 23 23 24 25 27 24 22 20 19 19 19 19
30 30 22 27 33 36 34 31 24 20 20 18 21 23 22 13 9 9 6 6 4 4 5 8 1 16 18 17 21 21 18 16 14 14 22 21 22 23 25 26 25 24 21 21 22 21 21 20 19
32 24 29 31 35 34 36 30 18 17 17 15 19 24 24 11 8 9 7 6 4 3 2 5 5 5 4 21 20 17 21 23 19 18 16 20 23 25 25 24 19 17 21 22 24 22 22 21 22
28 32 32 34 35 37 29 32 12 16 14 17 20 28 23 12 9 9 9 7 5 5 3 3 4 3 4 5 18 21 24 21 23 22 21 18 15 16 15 14 14 18 19 21 22 23 24 26 26
33 35 34 35 37 39 22 31 10 13 20 18 25 26 18 12 12 10 8 8 7 6 4 4 5 4 2 3 7 11 12 14 12 11 12 13 15 16 15 17 18 20 20 23 24 25 25 28 26
35 33 35 38 40 34 25 34 13 12 16 18 22 21 16 13 14 11 13 10 8 6 7 7 5 4 3 6 6 7 8 9 11 13 13 15 16 16 19 20 19 20 22 23 24 25 25 25 26
32 33 37 40 36 33 31 36 11 12 21 15 21 23 20 15 12 15 15 13 10 8 6 6 8 8 8 8 9 9 9 9 10 12 14 15 17 19 18 18 18 19 20 21 22 24 24 26 28
37 38 32 37 40 38 36 35 16 9 22 20 20 24 23 17 14 16 17 16 16 13 12 8 7 7 7 8 9 10 11 12 14 15 16 17 15 16 15 16 17 18 20 22 25 26 27 30 33
44 41 39 43 43 41 38 36 18 12 21 19 17 22 28 22 18 15 17 18 18 15 17 15 14 12 11 11 10 10 11 12 13 13 15 15 16 16 17 19 22 23 24 26 29 31 33 39 42
42 43 44 43 46 42 40 41 20 18 19 19 19 24 25 28 19 17 18 18 17 14 16 19 18 17 15 14 14 14 15 17 18 17 20 20 22 20 22 26 28 28 30 34 32 34 36 50 33
44 45 44 45 46 45 42 40 25 20 21 19 23 25 24 26 23 22 21 17 13 11 13 15 18 18 19 20 19 20 22 22 22 24 25 26 27 24 18 12 16 31 36 28 32 45 53 29 29

GFSSGP_500_spd_084.txt.gz
Wind_Speed
27 27 26 25 24 22 25 26 27 26 26 25 24 27 29 29 31 32 32 31 30 31 32 32 31 33 34 37 35 37 37 35 33 33 26 31 27 23 18 24 25 22 19 21 17 15 13 11 9
26 26 25 26 23 23 28 25 25 24 24 23 25 29 32 31 31 31 31 29 26 24 24 27 29 31 34 35 34 38 40 42 41 39 28 29 28 26 30 25 23 23 20 18 17 16 13 11 9
26 25 25 26 25 22 24 23 23 25 24 25 26 28 28 28 28 27 22 17 19 23 27 26 27 30 30 35 39 39 34 32 35 38 38 32 34 29 34 26 26 25 23 18 17 17 15 13 12
27 25 25 26 28 26 23 23 23 24 24 26 28 28 23 25 25 22 18 19 21 24 26 25 27 29 32 32 41 34 26 30 33 32 44 42 29 31 41 35 32 29 21 21 20 17 15 13 14
25 26 24 26 27 28 23 23 25 22 23 28 29 25 21 22 23 22 20 21 15 16 17 21 25 27 29 35 33 33 30 30 37 34 26 32 29 36 36 38 30 28 25 25 23 20 15 15 15
25 24 22 25 27 27 23 23 23 21 24 28 30 22 20 22 24 25 24 24 20 19 19 20 25 28 27 31 27 33 28 25 26 37 39 34 30 32 36 30 32 32 29 27 24 22 18 18 17
24 23 22 25 26 26 25 23 22 20 26 28 30 21 22 22 25 27 26 27 22 21 23 21 26 27 13 21 21 23 20 27 20 18 32 35 32 30 30 36 33 32 32 30 26 23 20 19 18
24 23 21 26 26 24 26 25 22 21 26 28 31 24 22 22 25 29 28 27 25 25 26 22 24 23 9 18 28 20 17 14 8 11 35 30 29 28 32 39 34 37 36 32 29 25 24 20 21
25 22 22 26 25 23 27 26 23 24 27 28 30 26 23 19 22 22 22 26 26 27 26 22 22 23 11 11 20 21 16 14 13 18 29 26 26 30 26 41 38 39 38 37 31 27 26 24 21
27 22 24 27 26 24 26 25 22 24 27 30 30 25 24 19 24 23 25 28 30 29 25 24 21 20 15 8 19 17 14 17 18 15 33 34 33 24 27 38 34 44 39 34 33 29 26 25 24
29 21 27 26 29 26 25 25 21 23 25 31 33 25 23 19 22 22 24 25 25 24 24 25 23 18 17 10 17 18 20 18 21 21 33 31 38 30 30 32 35 41 37 33 33 31 29 29 25
30 22 25 26 29 27 27 23 20 22 29 27 28 21 20 20 21 17 18 21 21 20 22 23 24 18 16 11 19 23 23 25 28 28 33 35 43 38 32 30 37 46 43 36 36 33 33 32 26
30 24 25 27 28 28 30 23 19 23 28 24 24 23 20 21 22 18 18 21 23 20 17 19 21 20 18 17 17 22 25 24 28 33 40 42 46 43 35 40 35 45 46 37 37 36 36 34 27
31 27 25 26 28 29 31 23 18 25 22 22 24 23 21 25 23 24 20 18 21 18 20 20 20 18 20 21 16 14 19 23 25 35 37 42 53 44 39 40 43 45 46 44 41 39 38 36 33
32 27 26 24 28 31 30 19 18 23 24 21 23 23 23 23 22 21 21 20 20 19 20 19 18 19 19 20 22 15 20 19 24 27 35 37 38 47 40 40 45 50 49 47 45 45 42 40 32
33 29 25 25 30 35 29 17 22 24 24 22 21 21 25 24 22 23 23 21 20 17 19 19 19 18 18 21 24 20 19 20 22 14 31 37 41 49 47 41 46 48 47 48 39 35 38 37 30
32 28 24 25 33 38 29 17 25 25 24 24 23 22 24 24 20 22 23 22 18 17 18 18 19 19 19 20 24 17 23 13 17 23 27 38 44 38 39 31 36 36 49 43 38 35 32 28 28
29 31 26 26 39 35 32 21 23 23 25 24 24 22 23 21 20 23 23 21 16 15 16 18 20 19 20 20 20 19 24 15 23 32 32 29 38 32 25 24 24 24 23 26 29 28 23 25 24
36 34 31 26 38 35 31 32 20 23 21 26 27 24 20 20 19 25 23 17 14 12 13 16 14 17 17 22 18 17 17 16 12 21 28 28 23 22 21 18 18 19 22 23 23 23 24 22 23
37 36 27 28 38 37 33 36 22 21 21 24 25 24 20 14 18 23 18 11 11 9 11 16 11 10 16 17 17 16 14 13 14 15 19 25 21 19 17 15 14 16 18 18 22 23 23 24 23
35 34 23 33 38 37 37 34 25 23 19 21 22 21 17 16 17 21 10 7 8 7 9 9 8 9 13 19 21 15 14 13 17 13 17 15 16 19 20 19 15 14 17 19 23 25 24 25 21
36 30 31 35 37 36 40 35 22 16 19 21 24 20 18 20 14 15 9 7 6 6 8 6 5 6 8 19 19 16 21 14 15 8 11 18 19 18 17 17 17 19 23 23 23 26 23 20 19
31 33 34 36 37 37 38 34 19 13 17 22 25 21 19 21 13 14 8 7 8 9 8 7 5 2 5 7 21 25 22 17 17 15 15 14 19 20 18 18 19 16 14 18 20 20 21 22 22
31 34 36 36 37 42 30 37 17 13 17 21 23 22 19 20 18 12 10 7 8 8 9 7 7 5 3 4 9 18 16 16 16 18 17 18 18 15 14 13 11 10 12 15 17 19 21 24 25
33 32 34 37 41 40 30 38 20 14 15 20 17 21 18 17 17 11 11 8 9 8 8 7 5 4 2 1 4 6 8 7 9 12 11 10 11 10 10 10 10 13 18 19 20 21 22 22 23
29 29 33 39 38 35 34 38 22 16 15 24 21 23 20 18 18 13 12 9 10 11 8 6 7 5 5 5 6 7 9 8 7 7 7 8 9 11 10 9 13 17 18 19 20 20 20 23 24
34 38 31 35 38 39 38 38 25 16 19 24 23 21 25 20 19 17 15 11 11 13 13 8 6 7 7 6 6 6 6 7 9 10 10 9 9 9 9 12 15 17 19 20 22 22 23 26 28
39 40 37 38 40 39 38 37 35 16 19 22 27 22 27 24 21 17 17 15 12 14 14 12 12 11 8 9 9 10 10 11 11 12 12 12 14 14 16 18 21 22 23 24 26 26 26 29 30
34 38 38 40 42 40 38 31 41 20 24 19 27 22 24 24 23 22 22 18 15 14 14 14 13 13 13 14 13 13 12 12 12 12 13 15 18 19 22 23 24 25 26 28 30 30 30 36 36
33 34 39 42 43 45 43 40 39 19 20 18 24 24 23 24 23 24 24 22 16 17 15 14 13 14 16 17 16 17 16 14 13 12 17 22 24 26 27 26 26 24 23 28 36 38 38 30 34

GFSSGP_500_spd_087.txt.gz
Wind_Speed
24 24 25 25 25 23 21 19 17 24 25 22 24 22 23 24 28 31 30 32 30 29 28 29 30 30 30 28 30 34 35 36 35 36 38 36 33 33 26 28 27 31 39 36 27 25 21 18 15
25 25 25 25 23 17 14 29 24 25 24 26 25 23 26 27 33 32 30 27 26 23 23 21 23 25 23 23 27 29 33 37 39 36 37 33 27 29 33 30 26 33 35 26 28 24 23 18 16
26 25 25 26 25 19 12 34 24 28 25 24 22 22 27 34 32 32 27 23 19 20 22 25 26 24 25 25 31 33 34 35 37 38 40 37 27 25 28 29 26 34 34 30 25 23 21 19 16
27 26 25 24 25 21 23 30 25 26 30 23 23 28 27 33 34 30 24 19 17 20 21 21 23 27 28 31 32 34 28 39 51 42 37 35 37 37 30 32 29 29 30 28 24 22 21 19 16
28 26 24 24 25 28 28 24 25 27 28 27 25 26 33 33 34 30 23 19 20 23 23 24 25 23 26 30 34 37 39 43 30 44 32 28 30 36 31 34 37 35 28 26 27 27 22 18 17
29 26 23 22 17 27 27 27 24 26 27 28 25 25 31 33 30 30 25 20 19 22 25 27 28 24 24 30 36 35 31 27 41 37 19 33 31 40 29 39 43 39 31 30 28 25 22 20 17
28 28 24 22 23 30 34 26 26 25 25 29 25 27 33 34 29 28 26 22 21 24 26 29 31 26 24 30 28 32 27 29 28 24 21 27 30 34 33 34 36 36 34 33 29 26 24 22 20
28 30 25 24 24 29 34 26 29 26 25 26 26 27 30 33 26 26 22 18 20 24 26 29 30 26 21 28 21 21 22 20 20 20 17 23 28 40 37 35 38 36 36 35 32 30 27 23 21
30 31 25 24 26 30 33 27 31 26 25 28 27 29 31 30 26 25 22 20 25 28 29 31 29 27 20 22 18 21 15 22 17 18 18 28 31 34 32 32 34 34 38 38 35 31 27 23 24
32 32 24 27 31 30 30 29 28 30 27 28 30 28 29 27 27 24 24 23 27 27 26 28 27 26 20 20 15 15 23 23 19 15 25 17 35 35 33 33 36 36 36 35 34 34 29 29 27
36 33 26 29 32 31 28 29 31 29 23 28 28 29 32 23 24 22 20 21 21 24 24 24 23 25 20 19 16 18 18 24 20 20 21 20 34 38 32 34 29 37 37 39 38 37 33 31 29
42 33 29 29 34 31 27 28 28 29 22 31 24 26 26 24 21 21 20 20 23 26 25 22 25 21 19 17 18 22 22 22 20 26 23 27 33 40 33 28 25 42 33 43 43 40 37 33 33
42 35 33 31 33 33 30 28 29 23 28 27 22 26 25 23 21 20 24 21 23 24 25 22 21 18 20 17 19 19 22 26 26 30 26 24 41 43 41 29 29 35 37 36 44 39 36 37 35
41 39 34 31 31 34 32 29 28 21 31 25 24 25 25 25 21 19 22 23 21 23 26 25 24 22 20 19 18 19 21 26 25 29 30 28 35 40 42 38 37 30 32 35 42 42 38 39 38
43 41 37 31 31 33 35 29 28 23 30 25 25 27 26 25 23 20 21 22 22 23 25 27 22 19 19 21 21 21 22 22 23 26 30 34 36 39 49 39 40 35 31 35 40 44 39 42 37
44 43 39 29 33 31 35 28 29 27 25 26 25 27 26 27 26 21 21 20 20 23 23 27 24 19 19 20 22 21 17 19 23 25 22 33 40 32 41 49 38 40 38 40 40 44 42 41 36
48 44 40 31 35 32 38 30 28 32 23 25 25 27 28 27 26 18 20 18 21 23 24 24 22 19 20 19 21 20 20 19 24 24 24 25 33 34 43 45 51 48 37 41 42 45 47 42 36
48 39 38 35 26 33 40 33 28 31 27 25 25 28 28 27 26 20 19 17 22 23 22 21 22 21 21 20 22 19 21 22 27 24 27 19 24 28 34 50 47 39 43 43 43 46 35 30 27
43 41 43 40 24 39 43 33 30 29 28 25 25 27 27 27 24 17 15 17 24 19 18 18 20 22 19 19 22 19 18 18 23 21 20 24 27 26 37 45 49 25 24 26 31 30 32 31 25
44 45 48 34 34 42 41 36 30 27 27 23 25 27 27 25 21 14 13 19 18 14 14 12 16 14 12 18 21 19 17 14 20 14 23 34 30 26 32 26 25 25 25 25 27 26 23 21 21
42 39 38 35 35 40 43 36 34 23 28 23 23 24 27 24 18 12 14 16 14 11 11 10 10 9 10 14 17 17 14 10 8 11 13 23 25 22 22 19 16 16 17 19 18 19 19 20 20
45 36 35 36 39 44 39 37 30 22 24 22 23 26 27 22 15 10 13 13 13 10 10 9 9 6 5 12 18 18 14 12 10 13 11 11 15 18 20 20 16 13 13 13 15 17 19 20 19
41 37 38 37 41 41 37 40 25 24 23 21 25 25 23 20 14 10 13 13 13 11 10 11 11 9 9 8 17 21 16 16 10 12 6 9 14 17 16 18 20 16 14 15 15 17 18 17 18
29 35 35 36 38 41 37 35 31 21 22 21 22 25 23 17 14 12 14 14 11 9 8 9 11 8 12 8 10 18 19 17 11 12 11 12 11 12 18 17 17 16 14 14 14 15 15 16 19
31 28 29 31 36 38 32 30 33 22 24 20 26 21 22 17 15 13 14 14 10 9 6 8 9 8 7 5 7 5 10 13 10 10 13 14 14 11 11 12 14 13 14 14 14 13 13 15 18
31 32 30 24 18 21 21 28 26 24 25 25 26 24 22 16 17 16 14 14 10 8 7 7 8 8 5 5 1 4 7 9 8 6 7 9 11 15 14 13 11 12 11 11 11 11 13 17 21
35 33 27 33 23 21 22 15 16 16 22 23 26 26 24 20 20 19 16 16 13 9 8 8 7 7 8 5 6 6 6 6 8 9 10 11 11 10 10 11 12 12 12 13 13 14 17 21 23
38 30 37 36 38 31 23 22 17 20 19 22 22 27 26 23 20 21 19 18 14 11 9 9 10 11 9 8 7 5 5 6 7 7 8 10 9 10 11 12 15 16 19 18 17 19 22 26 25
30 36 36 34 36 30 18 14 13 20 19 19 28 29 27 24 24 23 22 20 17 13 10 10 11 12 14 13 12 11 10 7 7 8 9 10 10 11 13 16 19 21 22 19 21 24 26 29 29
30 31 32 36 36 27 29 31 18 23 11 21 19 24 24 25 25 26 24 24 20 17 15 11 14 13 12 13 13 14 14 13 12 13 13 13 15 17 20 21 25 24 25 26 27 28 31 32 34

GFSSGP_500_spd_093.txt.gz
Wind_Speed
22 21 20 20 20 17 12 15 16 19 21 23 20 30 28 27 31 29 27 30 33 35 35 33 29 29 30 28 25 25 27 31 34 34 34 34 34 32 31 29 29 27 27 31 27 26 28 30 30
22 22 23 24 20 17 14 22 14 19 30 29 23 28 29 31 30 27 25 28 31 34 31 30 29 26 21 18 20 20 21 23 27 32 36 36 37 35 35 35 32 32 28 28 25 27 29 31 29
23 24 26 25 21 19 16 21 22 27 24 23 27 29 29 30 26 24 30 28 29 29 28 27 26 22 18 17 19 21 22 23 26 28 31 36 40 39 37 35 35 32 28 28 26 29 31 33 35
24 25 28 26 21 17 11 20 26 25 19 25 24 25 33 36 29 28 30 31 31 28 26 24 23 20 21 20 21 22 22 25 28 30 33 32 36 36 41 36 35 35 30 28 30 34 35 36 35
25 27 27 25 19 19 17 11 28 24 20 30 35 24 29 34 34 31 30 30 33 27 22 25 24 21 23 25 23 24 25 29 27 32 38 32 41 40 30 33 37 33 35 36 34 35 36 34 38
26 29 27 24 20 23 25 20 22 27 18 22 33 27 30 32 30 33 31 31 32 27 22 23 25 23 24 23 24 26 27 29 29 34 40 34 41 35 39 44 37 31 35 35 35 36 37 37 39
29 32 26 25 22 20 19 21 30 34 23 22 30 30 29 30 28 30 30 32 31 26 20 21 22 23 26 27 29 27 26 31 32 32 34 34 38 41 42 34 33 35 30 31 36 40 41 42 36
29 34 31 19 21 16 18 25 29 38 26 23 30 30 31 32 29 29 33 31 28 25 23 23 25 25 25 24 27 28 27 29 33 32 32 34 31 27 41 38 34 37 34 33 35 38 39 40 37
31 35 29 16 23 16 25 20 31 37 28 24 33 31 30 31 28 26 27 28 26 27 26 22 22 21 22 22 20 22 23 29 28 29 23 25 28 33 24 33 26 24 34 36 32 33 32 34 32
31 34 25 23 26 24 30 30 37 36 32 29 30 30 34 30 24 24 27 27 26 27 30 25 24 21 21 20 20 22 25 26 23 22 23 17 35 25 19 31 37 32 33 34 33 33 38 32 29
30 34 27 27 29 30 32 34 35 37 33 34 31 28 31 32 27 25 27 30 27 25 32 27 26 23 22 16 16 18 22 22 21 25 23 19 21 27 32 41 34 35 28 30 32 30 32 28 29
36 34 33 28 31 33 33 36 34 33 33 35 35 29 30 30 29 29 29 30 31 24 27 30 27 24 25 21 18 16 18 18 17 24 20 21 18 21 23 47 35 34 26 26 30 34 34 32 34
37 32 35 34 35 34 34 38 36 33 28 36 34 31 28 29 28 30 33 31 33 28 27 28 25 24 25 25 21 21 18 17 15 18 17 20 16 26 32 36 37 34 30 30 28 31 32 34 36
32 35 36 38 35 33 37 36 38 31 30 36 35 32 27 26 29 28 30 31 34 30 25 30 24 23 22 22 22 21 18 18 15 16 27 17 20 27 26 32 31 35 32 29 28 36 30 36 41
36 40 40 41 34 37 36 39 37 29 31 36 35 35 28 26 28 27 29 29 31 30 24 26 22 20 21 21 21 21 20 20 17 15 16 18 22 22 24 23 27 30 30 30 30 34 33 34 37
37 42 43 40 37 36 36 38 35 31 33 35 36 35 29 30 27 26 29 28 29 29 24 23 22 22 21 22 21 21 21 20 20 19 17 20 21 24 24 22 28 33 33 30 31 35 37 36 34
41 46 45 40 38 40 40 36 37 35 34 34 38 35 31 28 28 24 29 27 28 24 22 21 22 21 19 20 23 23 21 22 23 21 18 15 20 23 22 24 27 36 34 31 32 27 38 37 34
39 41 43 44 39 42 41 37 42 31 36 36 37 38 32 27 29 22 26 28 26 20 20 19 19 18 18 21 21 23 22 22 25 23 20 20 24 21 22 23 25 35 33 38 36 32 32 34 32
42 43 44 44 46 50 46 41 45 47 32 34 39 37 32 27 30 24 18 27 21 17 18 19 17 16 19 22 23 21 22 23 25 21 23 19 22 23 23 24 26 28 31 32 35 37 39 36 30
44 46 48 48 51 50 47 49 44 56 35 34 34 35 28 24 31 22 14 24 16 16 17 16 14 14 17 19 20 16 18 20 22 18 22 24 26 19 23 24 26 30 23 24 26 32 36 35 30
46 45 45 50 52 55 50 50 47 51 48 42 31 35 28 24 29 21 13 23 16 15 16 13 13 13 15 18 20 15 15 18 20 20 20 25 24 19 23 23 25 23 22 21 22 28 39 43 35
46 42 43 48 52 55 42 51 48 54 55 36 35 34 27 26 27 19 12 20 18 15 15 13 14 14 13 14 13 14 16 18 20 19 26 23 20 22 26 28 23 26 26 25 33 38 41 45 35
44 40 39 45 49 49 45 46 39 51 49 41 32 39 27 24 26 21 15 19 21 14 15 14 12 14 14 14 14 13 16 18 19 16 17 20 21 13 20 27 27 24 31 37 38 38 42 32 23
45 41 40 45 44 48 38 39 49 41 47 30 26 21 20 24 22 22 14 20 20 14 14 12 10 12 14 12 12 14 16 18 19 15 10 13 14 12 18 28 28 30 31 32 34 32 25 21 20
40 36 44 43 44 41 29 34 44 28 31 31 26 32 21 22 22 16 9 20 15 14 12 10 9 10 13 11 10 14 7 12 11 11 13 8 9 13 15 17 21 22 21 23 24 22 22 22 22
32 37 43 40 37 30 23 32 13 22 25 23 14 23 18 22 24 16 10 15 13 15 12 10 9 9 11 12 7 7 10 7 12 12 11 12 11 12 12 21 24 23 23 24 24 24 22 25 22
36 37 31 31 35 34 23 25 20 24 26 28 20 28 26 24 27 19 12 15 16 15 14 11 8 7 8 10 5 4 3 3 6 5 9 14 17 16 15 17 21 24 23 23 23 23 24 21 19
26 29 30 33 34 31 27 18 16 26 34 20 19 29 31 30 28 22 15 15 18 18 15 13 11 8 7 8 7 2 3 1 2 3 4 5 9 14 17 15 16 16 17 20 22 21 20 18 18
20 33 27 29 30 25 35 13 8 25 24 24 23 20 29 27 22 27 18 18 18 19 16 15 13 10 8 4 6 7 4 3 2 3 3 5 8 11 14 16 18 18 19 19 20 22 23 22 22
17 14 32 30 29 24 24 25 14 19 22 26 27 28 26 18 22 27 18 15 17 17 17 16 14 12 10 7 4 4 9 8 8 7 6 6 8 11 12 13 14 13 13 14 17 19 19 20 21

GFSSGP_500_spd_096.txt.gz
Wind_Speed
20 20 19 17 15 14 21 23 25 26 23 16 11 15 22 28 27 24 24 27 28 28 30 32 35 31 30 29 29 24 22 26 30 33 36 39 39 37 35 33 30 27 24 29 29 24 25 27 28
21 21 20 19 16 15 22 25 25 26 22 17 12 18 26 33 30 23 25 28 27 28 31 33 33 28 27 27 24 23 21 21 26 28 28 30 33 36 39 37 33 28 26 27 28 29 27 27 27
24 23 23 20 16 16 20 25 27 28 22 16 14 18 26 28 25 26 26 25 26 27 30 31 30 27 27 24 21 21 21 22 22 23 25 26 26 27 33 37 41 33 30 29 28 28 27 27 29
25 24 25 21 17 18 18 28 31 29 24 20 18 20 26 29 24 23 23 21 24 25 28 28 26 25 25 23 23 23 24 24 24 24 27 29 30 31 33 35 38 40 35 31 30 28 29 30 29
25 26 27 21 16 22 22 29 33 32 26 25 23 18 26 30 28 29 26 25 25 26 29 29 25 23 23 23 23 26 27 27 27 23 27 29 32 30 38 44 29 36 34 33 31 30 31 31 31
24 28 26 22 19 25 22 27 32 34 26 21 22 23 25 28 28 30 28 29 27 26 27 27 24 22 23 25 25 26 28 28 30 29 27 31 33 37 40 33 45 42 33 36 36 32 33 32 33
25 29 26 22 20 19 19 32 37 35 31 22 23 28 28 26 29 27 28 29 27 28 26 25 26 24 23 24 26 28 31 33 33 32 33 34 36 37 36 28 38 41 40 28 35 37 35 33 34
29 34 28 17 21 15 28 36 36 33 32 26 26 27 27 29 29 26 26 28 27 26 26 26 25 26 28 28 26 25 29 31 30 32 33 36 40 35 34 35 43 41 39 26 30 36 35 36 34
33 36 26 15 22 19 32 36 34 36 34 28 25 26 30 30 30 26 23 24 23 26 27 27 26 27 26 26 25 25 27 24 26 30 33 37 36 33 32 32 39 32 30 27 28 32 32 33 35
36 36 25 21 26 26 34 35 35 37 37 29 25 27 30 31 30 26 22 22 22 23 28 30 29 28 27 28 23 23 25 24 28 29 30 30 27 25 26 28 35 41 31 32 30 35 29 35 35
35 37 28 25 26 31 31 32 36 36 38 27 27 30 30 32 33 26 22 24 20 20 27 33 32 31 28 27 25 23 21 21 25 27 27 21 24 23 21 35 30 33 30 27 26 32 28 28 29
39 38 32 27 29 31 29 31 37 39 29 32 32 31 33 31 31 30 23 26 20 21 23 31 33 32 30 26 29 26 23 23 24 24 20 19 22 27 31 31 31 35 34 28 27 29 33 27 29
41 36 36 33 33 31 30 33 34 38 27 32 31 33 33 34 32 32 28 26 24 19 23 30 32 30 28 27 27 25 21 22 23 21 18 17 16 21 30 33 39 41 34 32 24 28 32 28 26
39 38 37 36 33 31 30 31 36 28 27 32 35 30 33 34 32 34 32 28 26 23 25 28 29 27 24 25 24 23 20 20 23 21 17 15 18 20 23 34 41 42 34 30 22 25 31 29 31
40 39 38 37 35 31 30 35 31 27 28 37 37 31 31 33 33 33 34 29 27 26 28 29 27 24 24 23 23 23 21 20 22 22 17 11 19 19 27 32 34 40 32 33 27 26 28 28 32
39 40 40 34 35 33 32 33 27 28 32 39 37 36 33 33 29 31 34 29 27 26 29 28 25 24 25 25 23 23 21 21 22 23 20 15 16 22 31 29 33 35 31 31 32 27 28 31 29
42 41 37 35 34 36 36 38 32 31 37 42 39 40 36 35 31 30 33 30 25 27 26 26 21 21 24 25 22 22 23 23 23 24 22 17 17 18 25 33 31 26 32 31 29 27 28 28 30
37 35 37 39 36 37 39 42 40 38 38 43 41 42 43 38 34 29 32 27 27 25 23 22 18 23 23 21 22 22 24 27 26 25 23 22 18 18 20 31 22 21 26 34 32 31 30 31 34
38 39 39 40 37 38 40 44 46 42 38 45 43 41 43 45 35 29 27 23 29 22 21 19 19 21 19 18 20 21 24 27 26 26 23 24 21 24 23 20 25 23 24 35 34 33 32 32 29
36 38 39 39 37 42 45 48 46 43 40 48 46 45 37 38 33 27 25 22 24 20 20 18 18 18 18 19 20 21 21 23 25 23 23 23 23 23 25 27 25 24 25 32 36 33 36 34 31
35 37 38 40 37 43 47 49 47 46 45 49 44 44 37 34 30 29 24 18 22 19 19 18 17 17 18 19 21 21 20 19 19 19 21 20 23 26 24 25 27 27 29 29 34 31 30 21 22
34 36 38 41 41 45 46 50 47 50 47 49 47 40 36 38 32 33 25 16 18 18 17 17 17 17 18 19 21 21 19 16 18 19 24 23 20 25 27 29 31 29 38 35 22 20 20 25 26
31 35 39 40 41 46 52 55 42 44 46 44 41 42 43 37 33 34 27 20 18 20 18 17 17 16 16 18 19 21 20 19 14 17 23 23 26 30 33 32 32 31 35 34 29 25 25 35 32
33 38 41 40 41 50 50 49 40 39 36 39 40 42 42 35 34 32 27 19 19 22 17 17 15 15 15 17 17 20 19 19 17 19 19 17 20 27 29 35 35 30 27 33 23 33 38 37 39
35 37 39 40 44 49 42 43 41 34 33 34 38 41 40 34 31 32 21 18 21 20 16 14 15 16 14 16 15 18 14 10 10 20 18 18 23 25 26 27 23 28 33 30 28 38 42 40 34
33 36 36 39 41 39 40 41 31 24 27 26 32 37 39 39 29 29 19 16 19 18 18 15 15 16 12 13 13 15 14 12 5 12 15 18 14 16 12 18 37 43 43 37 37 44 41 32 31
34 40 34 35 38 40 40 35 25 25 22 28 30 36 34 25 26 24 21 15 20 24 21 15 15 16 12 11 11 10 10 6 9 5 12 12 13 16 14 20 22 28 28 29 30 29 28 30 30
33 29 33 38 41 40 35 30 21 23 23 28 27 26 31 28 24 22 18 15 24 26 21 16 16 16 13 11 11 9 7 5 2 0 1 6 11 17 18 16 20 28 28 28 28 29 30 28 27
24 30 35 37 39 38 32 23 25 9 33 33 31 33 32 24 22 24 23 24 23 26 24 19 17 17 15 12 10 11 9 6 5 4 3 4 5 5 10 15 17 21 22 17 18 23 26 29 29
25 24 22 32 34 30 25 25 29 14 35 28 31 39 35 31 31 27 24 23 24 26 25 22 19 19 18 15 13 11 12 11 9 6 5 5 7 9 10 11 12 14 18 19 18 19 22 25 28

GFSSGP_500_spd_102.txt.gz
Wind_Speed
24 23 22 21 21 19 22 26 23 22 20 18 18 18 17 23 24 23 22 21 21 24 26 26 27 28 26 24 25 27 25 25 23 20 19 18 20 22 25 25 25 24 23 25 27 27 26 25 24
26 26 25 24 22 19 25 27 26 24 24 20 20 22 19 22 25 24 21 22 24 25 25 27 28 27 25 23 25 24 23 21 20 19 19 18 19 21 23 21 20 20 24 24 24 27 28 25 25
29 28 28 27 22 16 25 26 27 26 27 21 22 21 22 25 28 26 22 24 24 24 25 28 29 27 24 23 24 23 22 20 19 20 19 22 22 22 24 21 20 15 17 25 24 25 27 27 25
30 29 30 27 18 20 25 28 30 27 29 21 24 22 22 24 28 26 24 23 22 24 25 27 28 25 20 22 21 21 21 20 22 22 22 23 25 25 24 23 26 18 17 17 20 23 25 28 27
33 31 30 23 18 21 27 26 31 30 30 22 25 25 24 26 26 22 23 23 24 24 22 26 25 23 21 20 20 19 20 21 24 25 25 26 27 26 25 24 30 24 22 23 22 22 25 27 27
35 33 31 23 20 24 25 25 31 34 31 22 21 25 23 26 26 23 24 24 24 26 24 26 24 22 22 20 20 19 21 22 25 26 28 29 31 30 29 29 29 28 24 26 26 21 23 28 28
38 35 33 29 20 21 23 27 32 34 31 28 19 22 24 23 23 22 24 26 26 26 24 25 25 22 20 20 19 20 22 25 28 29 29 28 30 33 34 32 31 30 30 28 29 29 27 35 33
38 38 36 31 19 20 25 30 33 33 30 28 20 23 24 22 22 21 24 26 27 24 24 27 26 24 21 20 20 20 21 23 26 27 28 30 32 31 29 29 30 29 31 31 31 28 29 33 34
38 40 36 28 22 22 28 33 36 34 30 30 21 23 25 25 21 22 26 27 25 25 24 27 26 24 22 23 23 24 24 24 26 25 26 28 30 28 29 30 32 32 33 34 31 23 29 32 36
37 37 35 26 26 28 33 36 37 35 34 32 21 27 28 27 23 21 26 28 26 22 23 28 28 25 21 22 25 27 28 25 24 24 25 26 27 28 29 31 32 32 31 30 32 25 26 29 34
35 34 33 30 31 35 36 37 39 38 37 32 26 30 31 28 26 22 25 28 28 22 22 27 30 28 25 23 25 30 31 26 23 24 25 28 28 31 33 32 32 33 29 29 29 29 32 19 27
38 35 35 33 35 36 38 40 41 41 40 32 32 33 32 29 28 26 27 28 30 24 22 26 30 30 28 27 28 32 32 25 23 25 26 28 28 30 33 31 37 32 29 32 33 32 40 23 27
44 39 35 34 36 37 40 40 38 43 42 32 34 35 34 31 29 29 30 28 27 24 22 27 29 30 29 28 31 34 33 26 22 24 26 25 27 27 30 33 24 28 29 34 31 30 37 33 32
42 43 42 40 36 38 38 36 41 40 37 36 36 34 36 35 33 35 31 26 26 26 25 26 29 29 28 29 30 34 32 27 24 25 27 27 28 28 24 29 21 21 27 31 31 26 27 35 28
44 45 45 44 43 40 40 39 41 36 38 41 39 38 38 39 39 38 28 30 28 26 26 27 30 27 29 29 31 32 29 24 24 24 27 27 27 27 24 25 17 23 32 36 42 30 28 28 27
45 45 45 43 42 43 41 37 37 35 40 43 41 42 43 42 41 34 30 31 30 29 25 31 31 28 30 29 30 29 22 21 22 21 25 27 26 26 22 24 18 20 27 31 36 32 28 27 34
51 48 44 41 41 40 41 39 42 42 44 44 45 45 44 42 41 36 34 31 31 32 29 32 30 31 30 28 28 25 22 20 22 21 22 27 28 28 24 24 17 25 28 34 36 33 29 27 29
48 42 40 40 42 42 42 40 44 44 42 45 46 45 44 42 41 39 39 33 34 33 31 33 31 30 30 27 27 22 20 20 21 23 24 28 31 27 24 23 20 25 34 37 32 40 30 32 31
43 43 43 45 45 45 44 44 47 46 45 45 42 43 42 42 42 43 42 37 34 33 31 35 34 31 29 27 26 20 19 20 21 23 23 28 27 25 25 24 23 22 29 33 33 39 33 29 25
45 44 45 46 46 46 47 47 49 50 47 43 41 41 40 40 46 48 45 37 32 33 30 40 40 33 28 27 26 20 20 21 22 23 22 28 23 22 24 24 20 15 24 30 36 40 29 27 28
46 45 46 46 47 49 50 43 46 47 45 41 40 41 40 44 46 42 39 35 31 31 28 38 38 35 27 28 27 21 21 21 23 24 23 25 21 22 24 23 22 24 27 26 30 37 32 31 28
45 46 47 48 50 49 49 42 43 41 41 41 39 39 42 43 41 39 37 35 30 30 28 40 40 34 27 29 25 21 20 20 23 23 23 24 20 21 26 22 29 17 24 24 25 26 28 32 32
43 45 47 49 49 48 45 46 43 39 36 38 40 41 40 38 37 38 38 35 36 35 32 38 39 33 26 30 23 20 19 21 22 24 22 26 21 20 23 26 24 25 30 30 27 27 24 25 28
41 44 45 45 47 47 46 47 40 39 41 37 40 39 40 40 40 41 40 41 37 35 33 38 37 34 27 29 22 19 19 19 20 24 24 26 19 21 24 28 25 25 24 27 23 21 26 25 25
40 41 40 42 46 45 46 47 38 40 39 45 41 39 42 43 44 44 45 41 37 35 35 38 37 34 30 26 21 18 18 18 19 20 25 18 18 21 26 27 27 29 27 28 31 31 32 27 31
38 41 42 44 44 43 44 44 41 39 44 44 44 44 41 42 45 45 48 41 36 37 37 38 34 35 31 26 21 19 17 16 18 18 20 13 16 19 26 30 28 31 32 34 36 36 43 36 37
37 39 39 38 41 44 45 42 42 40 41 42 40 40 43 48 49 46 45 37 37 39 33 35 33 35 30 26 21 18 16 15 16 16 14 9 13 21 23 28 29 33 31 35 33 30 34 42 34
35 35 36 38 40 40 40 39 43 41 41 36 39 41 41 45 46 39 39 40 42 41 38 34 33 30 32 25 21 18 16 15 16 14 11 5 7 11 18 15 15 21 25 27 31 34 35 39 34
34 34 35 36 37 39 39 40 39 38 35 33 40 38 37 42 41 35 36 41 47 42 35 33 31 28 31 25 21 19 16 14 14 15 11 8 7 9 13 9 13 16 21 30 37 36 37 28 29
34 33 34 38 38 39 39 39 37 34 32 33 36 33 32 32 37 28 34 44 42 36 29 30 29 30 30 26 22 21 18 15 14 15 14 9 7 7 9 9 7 9 12 20 22 28 30 23 30

GFSSGP_500_spd_105.txt.gz
Wind_Speed
25 25 25 23 22 20 21 24 21 18 18 19 18 17 17 18 21 22 21 23 23 24 23 22 21 21 21 21 20 18 18 18 18 17 15 15 14 14 14 16 17 17 21 25 24 22 21 21 24
29 27 27 25 23 20 24 25 23 20 20 20 19 19 17 19 21 22 23 23 23 25 25 25 24 22 22 20 19 18 17 16 15 16 15 15 14 15 16 17 17 14 16 19 26 24 22 23 24
29 28 28 27 23 21 26 26 23 23 21 22 20 18 18 19 22 22 23 25 24 25 25 25 24 24 23 19 17 17 14 14 14 15 16 16 17 18 19 19 19 18 16 11 20 26 24 22 24
30 29 30 29 23 23 27 28 25 25 23 23 22 19 18 20 21 22 22 24 23 24 25 25 24 22 21 17 16 16 14 14 14 15 16 19 20 21 21 20 19 20 18 14 11 18 23 22 22
33 32 32 28 22 22 29 29 26 27 24 25 23 18 18 22 21 19 20 22 24 25 24 26 25 22 19 18 18 16 16 16 15 15 17 19 21 23 24 22 23 24 24 17 16 16 18 21 23
36 35 35 30 25 24 28 28 25 28 27 27 25 21 20 22 19 15 19 22 24 23 24 28 26 24 19 17 17 17 17 18 18 18 19 22 25 25 24 23 24 24 24 23 19 22 22 17 24
38 37 36 32 27 25 25 28 29 30 29 27 25 23 22 24 18 13 16 22 22 23 25 27 28 24 21 20 17 18 18 20 21 20 22 23 23 23 23 26 25 25 24 24 22 23 22 23 22
37 37 36 32 26 22 26 27 31 33 30 30 27 24 26 25 20 17 17 23 21 24 26 27 30 25 19 20 18 17 20 21 23 24 25 24 24 22 25 24 22 18 20 24 23 24 26 23 26
38 37 35 29 23 19 27 32 35 35 33 33 29 23 27 28 23 17 19 23 22 23 25 25 28 28 24 22 19 19 20 23 25 26 24 24 23 22 25 22 21 23 24 27 26 26 27 27 22
38 35 32 26 25 26 32 35 38 38 35 35 32 25 30 29 23 20 21 25 24 24 25 25 28 28 26 24 22 20 22 23 26 25 25 23 23 24 25 25 27 27 27 27 27 27 22 20 26
36 32 32 29 28 32 34 36 37 39 37 38 37 29 32 31 27 21 23 25 24 25 25 26 29 29 26 27 24 25 24 25 27 24 21 21 22 23 25 27 28 30 30 27 25 22 19 26 28
39 35 35 32 32 34 34 36 39 39 40 42 40 35 36 35 31 25 24 26 27 24 25 26 29 29 27 27 25 25 27 28 29 25 20 19 21 21 23 25 28 31 27 33 29 32 28 28 31
47 44 41 37 36 37 38 36 35 38 40 42 41 36 38 39 32 30 29 27 28 26 24 26 27 30 28 26 26 25 29 30 30 26 22 20 20 19 23 27 28 25 31 32 28 31 33 24 28
46 44 42 41 39 39 37 31 35 37 36 40 42 40 41 42 36 35 33 29 28 25 23 25 25 30 27 28 26 26 30 31 30 26 22 23 23 21 24 25 27 27 29 21 24 30 35 23 36
50 47 45 44 42 39 39 37 37 37 37 39 41 43 44 43 41 39 39 36 31 26 25 24 27 30 27 28 27 27 30 29 27 24 21 22 23 21 24 24 25 30 23 20 21 31 34 29 39
54 52 50 46 42 39 41 38 39 40 40 40 43 45 46 45 44 44 42 39 31 28 26 28 28 31 29 28 27 27 29 27 26 25 22 21 22 23 24 26 23 29 19 22 29 28 33 32 33
59 55 50 46 42 41 42 35 40 43 44 44 44 45 46 45 46 45 43 39 35 32 28 28 29 29 28 29 28 27 29 26 25 23 21 22 23 26 27 27 23 28 15 22 25 31 34 25 36
58 53 48 43 45 44 44 41 42 42 43 45 45 46 46 45 45 45 43 43 41 35 31 30 30 29 28 29 30 29 28 26 24 22 22 22 22 26 27 26 22 24 16 21 24 35 40 35 37
55 51 48 48 49 48 44 43 44 43 43 41 42 45 47 45 45 46 47 46 44 39 36 31 32 31 30 30 31 31 28 25 25 23 23 23 22 25 27 24 22 20 23 21 27 34 32 37 33
52 50 48 48 48 48 46 44 45 45 44 43 43 43 44 45 45 46 48 48 46 43 39 35 35 32 32 34 32 33 29 26 25 24 23 23 25 26 27 25 22 20 24 22 31 33 32 40 31
47 46 47 47 45 46 48 46 46 46 46 44 42 43 44 44 43 46 47 47 47 44 40 36 36 33 35 35 32 33 30 25 26 24 22 24 24 23 26 25 21 22 21 19 22 27 32 38 35
51 43 42 43 45 46 45 46 47 44 44 43 44 44 43 42 43 44 46 49 47 43 41 36 35 33 38 37 35 35 30 26 25 23 22 25 25 21 26 25 22 22 20 17 20 24 26 32 32
37 37 41 45 47 49 45 46 46 42 40 41 38 39 42 43 42 41 42 43 43 41 40 35 35 35 39 38 36 35 31 26 24 23 23 26 27 24 26 25 20 25 22 16 15 23 34 36 33
31 35 39 42 42 46 44 45 43 46 44 37 36 41 42 43 41 40 41 39 38 37 36 31 33 37 37 36 36 36 31 27 22 22 23 26 25 27 26 25 19 27 18 19 16 23 27 26 23
33 32 34 38 42 43 42 42 43 45 42 41 40 39 42 44 45 46 45 43 40 40 37 32 33 38 36 36 38 38 29 26 20 21 22 22 25 27 23 24 22 20 26 21 17 27 24 25 21
29 31 32 36 40 40 41 42 42 42 42 41 44 44 42 44 47 47 46 45 45 42 42 33 37 40 38 38 38 37 30 24 19 19 17 19 24 19 21 22 21 23 26 23 23 24 28 32 25
34 34 30 33 37 39 41 41 40 39 39 39 44 45 47 45 47 50 49 48 47 45 43 35 40 45 40 40 39 33 30 23 20 18 14 16 16 14 17 17 20 25 29 31 28 29 32 26 23
33 33 32 34 35 37 39 38 38 39 39 41 44 44 45 47 48 48 48 47 48 47 40 39 41 46 42 43 40 32 29 23 21 17 12 12 13 8 9 15 20 24 29 33 32 32 32 29 27
32 34 34 33 33 34 35 34 35 36 38 41 43 45 46 47 50 50 46 51 47 41 38 44 45 46 45 45 33 33 30 25 21 17 11 10 11 9 9 10 14 14 15 21 22 26 27 28 29
29 29 31 31 29 31 32 34 35 34 35 40 42 45 48 44 46 50 48 40 35 36 41 46 47 44 44 38 35 33 30 26 21 18 12 11 11 12 7 7 3 7 11 10 17 26 31 34 34

GFSSGP_500_spd_108.txt.gz
Wind_Speed
27 27 26 26 26 22 23 25 22 21 20 18 17 16 16 15 17 17 16 16 18 18 18 19 20 20 21 20 18 16 15 15 14 13 12 9 10 9 10 12 10 12 15 18 21 22 23 22 21
28 30 31 30 27 24 23 26 24 24 23 20 19 16 16 17 18 17 15 16 20 19 18 18 19 21 21 21 19 16 15 16 13 12 11 10 10 11 12 12 12 14 14 14 18 21 22 23 23
31 32 33 31 27 22 25 28 28 28 24 21 21 18 15 17 18 18 15 17 20 21 20 19 21 21 22 22 21 19 14 14 13 12 12 13 13 14 15 15 15 14 15 15 17 20 21 23 24
32 33 33 31 24 24 26 30 30 30 28 25 22 20 14 19 19 18 14 16 20 21 22 22 21 20 22 21 19 18 16 15 15 12 13 15 15 16 16 16 18 17 15 17 19 15 16 20 23
35 35 36 30 24 25 28 32 32 32 30 28 23 20 17 21 22 16 13 16 21 22 23 22 21 20 19 19 18 15 16 16 16 15 15 17 18 19 18 18 19 18 20 23 16 12 11 13 21
38 38 38 34 26 28 29 33 32 31 31 27 25 22 19 22 26 16 13 16 20 22 23 24 20 20 20 18 17 16 16 17 18 17 18 20 21 20 19 17 19 18 21 20 21 16 14 17 19
38 39 40 38 30 31 29 33 31 31 33 30 26 25 23 26 26 19 15 16 22 23 22 24 23 21 19 17 16 16 18 18 20 21 21 22 23 21 18 17 19 19 19 22 21 14 15 20 18
37 38 38 39 30 29 31 32 35 36 36 30 29 28 27 25 27 19 16 16 23 26 23 23 25 24 21 17 15 16 19 20 22 22 23 24 26 22 19 16 16 17 18 17 18 19 18 21 22
42 41 37 35 30 29 30 35 38 39 40 35 33 30 27 27 25 20 19 19 23 26 26 24 24 26 25 19 16 17 20 21 22 24 24 26 24 23 21 18 16 17 18 19 20 23 25 25 26
44 39 34 35 32 31 34 38 39 40 41 40 37 31 27 26 27 21 21 23 24 27 26 25 25 27 27 26 17 17 20 21 22 24 26 27 24 22 23 23 21 21 22 24 22 23 26 27 27
39 37 36 37 33 35 37 38 40 41 42 42 39 35 32 29 29 24 23 25 25 27 26 26 25 26 29 27 21 21 20 21 22 22 26 27 23 21 22 23 22 23 25 25 23 25 25 28 28
43 40 39 38 33 36 38 40 42 41 44 45 40 40 36 33 36 31 28 28 28 26 28 27 26 27 29 27 25 24 21 23 24 22 25 25 23 23 21 24 22 24 25 26 23 22 25 24 23
49 46 44 42 38 38 40 40 40 42 44 43 44 41 38 36 37 36 32 29 28 29 31 29 27 28 29 28 26 24 23 25 25 24 24 23 22 23 22 23 23 23 23 27 24 30 30 28 27
56 53 49 46 46 43 41 39 40 41 39 41 44 43 41 40 40 40 35 32 30 32 32 30 28 29 29 29 27 25 24 26 27 27 25 23 21 22 23 23 24 24 24 26 26 29 27 30 33
60 59 52 50 48 47 46 44 42 41 40 41 42 41 43 43 43 43 39 35 32 34 36 29 31 33 31 30 27 26 25 26 27 28 25 24 23 22 21 23 23 25 26 26 28 26 21 32 35
61 62 60 53 51 47 45 41 44 43 42 40 40 44 46 46 46 44 41 38 38 37 36 33 32 34 33 32 27 25 25 27 27 28 25 25 24 23 22 23 25 26 28 25 22 23 25 32 36
68 64 63 60 58 50 46 44 45 49 44 45 46 47 48 48 46 44 43 41 42 40 36 33 32 36 36 33 27 27 26 26 27 29 26 25 24 23 24 25 26 26 27 24 18 18 30 27 43
68 69 67 67 60 54 48 47 50 45 46 49 49 48 47 46 46 43 44 43 42 39 37 35 34 36 37 33 27 28 27 27 28 29 28 26 24 25 25 26 26 27 26 20 19 26 29 34 36
68 70 70 66 64 60 52 50 49 50 48 49 47 46 47 46 44 47 44 43 43 42 41 38 38 37 38 35 30 31 29 30 29 30 29 27 25 26 27 28 28 26 23 21 17 16 21 31 40
67 69 68 66 67 61 55 53 52 52 49 48 47 45 42 42 43 44 43 43 44 44 43 41 39 38 39 37 34 33 32 33 30 32 29 28 27 27 28 29 28 26 25 19 22 19 25 26 32
61 59 64 66 65 60 58 57 55 52 50 49 48 45 43 41 41 44 45 45 45 45 45 43 41 39 39 41 39 36 33 30 30 33 30 30 28 28 28 28 28 27 23 21 21 23 24 33 36
57 59 59 63 57 56 54 57 54 54 51 48 46 44 42 42 42 44 46 46 47 47 46 45 43 41 39 41 42 38 35 31 31 32 30 30 28 29 28 29 27 28 22 21 24 23 22 28 34
51 48 49 53 53 52 53 53 49 52 47 45 43 43 42 41 43 44 46 46 45 45 44 46 45 42 40 42 43 40 36 31 31 32 30 29 29 30 30 31 30 27 26 25 23 14 21 29 32
39 42 44 41 43 49 48 50 46 48 45 43 38 38 40 40 42 43 44 44 43 43 43 44 43 44 42 42 44 41 37 34 32 30 30 29 29 31 29 30 32 28 26 26 26 21 19 24 23
36 34 30 33 40 46 47 44 39 47 44 41 38 38 39 40 42 44 45 44 42 40 40 42 41 39 40 43 46 42 38 37 33 29 29 27 29 28 27 33 27 23 25 28 21 18 18 19 20
24 20 21 23 24 26 38 37 40 40 41 37 33 36 38 39 42 45 46 48 46 45 45 46 43 39 41 44 47 42 40 40 33 29 28 27 26 25 27 24 20 22 26 25 24 20 14 20 21
30 32 26 25 25 27 33 37 36 33 32 33 32 35 38 40 42 45 48 48 47 47 46 44 44 43 42 47 48 43 44 41 34 28 29 25 23 23 20 19 18 23 26 27 27 26 19 21 24
26 23 26 27 28 28 28 30 30 31 30 32 33 36 39 39 41 43 47 48 50 49 46 48 46 44 43 48 50 46 47 42 33 29 29 25 22 19 15 15 19 21 24 25 27 27 25 23 24
27 27 28 27 24 25 24 21 28 29 28 30 33 37 39 41 44 46 47 50 52 48 46 48 46 43 42 50 52 49 48 42 34 30 28 24 21 18 13 14 12 17 21 23 26 30 32 30 29
24 22 22 21 24 25 27 25 31 27 27 30 34 38 40 42 44 44 44 44 45 46 49 52 51 42 45 53 54 51 48 41 32 31 29 24 20 17 14 12 11 10 17 18 15 21 22 24 31

GFSSGP_500_spd_111.txt.gz
Wind_Speed
29 28 27 27 26 26 23 21 27 25 25 23 22 21 18 19 16 17 18 15 15 16 16 14 13 14 14 15 17 18 18 18 16 15 15 13 12 14 16 14 13 14 15 15 17 21 23 24 24
32 31 30 30 29 25 20 20 31 26 31 23 22 23 20 18 21 17 18 17 18 16 14 13 11 14 15 16 17 18 19 18 15 15 14 14 14 13 12 14 15 14 14 14 16 16 17 23 24
35 34 34 33 32 26 17 22 35 33 28 26 25 24 23 20 21 18 18 16 20 17 15 14 13 16 17 16 16 17 19 18 15 14 15 14 14 15 14 16 16 16 16 14 15 16 18 18 24
36 36 36 36 32 24 27 27 35 32 31 29 27 25 22 22 24 21 19 17 20 19 15 16 14 16 17 17 17 17 17 17 15 15 15 15 17 17 16 17 17 16 16 16 14 15 20 18 22
36 37 37 38 31 25 29 34 37 32 34 31 30 26 24 22 24 25 18 17 20 21 18 17 15 16 18 19 17 17 16 15 15 15 17 18 20 20 18 19 20 19 17 16 19 21 20 13 15
39 37 39 38 32 28 30 34 37 33 32 31 28 27 29 26 25 25 17 17 21 23 21 19 18 15 17 20 18 18 16 16 15 16 19 20 21 21 21 21 20 19 17 18 20 19 20 16 14
41 40 40 39 37 31 29 39 37 34 35 35 31 28 29 29 29 24 16 17 20 25 24 20 22 19 17 18 18 19 18 17 17 17 20 22 21 20 22 24 23 19 19 18 20 22 17 19 21
44 45 43 39 38 34 29 43 37 37 38 40 32 28 32 36 25 24 18 19 21 27 28 22 24 25 20 18 18 19 19 19 20 19 21 23 22 22 22 22 22 21 17 17 18 17 19 21 20
48 48 47 40 37 35 35 41 37 39 38 46 38 34 39 26 28 25 20 21 25 28 30 27 25 28 26 21 18 17 20 20 21 21 22 24 23 24 22 23 24 21 19 17 17 17 18 20 23
54 51 48 43 40 41 37 42 37 43 43 45 41 41 36 32 30 26 23 24 25 28 30 29 28 29 29 28 20 17 19 21 22 22 23 24 25 23 24 23 24 25 24 21 19 20 21 22 24
52 53 51 45 46 48 40 44 40 48 43 47 47 44 40 36 34 29 26 24 25 29 28 31 31 29 30 30 24 21 18 21 21 22 22 24 24 24 24 23 23 23 21 23 24 24 23 24 25
54 51 50 49 48 48 41 44 47 47 47 50 49 48 41 38 36 33 30 28 28 28 29 32 34 32 30 31 30 24 20 22 22 22 23 24 24 25 23 23 24 22 22 24 23 23 25 26 27
55 53 52 52 51 49 42 46 48 48 49 49 49 49 44 40 37 36 34 32 31 29 32 34 35 34 30 31 32 30 23 23 24 23 24 25 25 26 23 23 25 24 24 25 23 24 25 28 26
62 59 57 55 56 52 47 46 46 45 46 46 45 49 47 42 40 40 39 36 33 31 34 34 35 35 30 33 32 33 28 25 25 24 24 23 26 25 23 23 24 25 26 27 26 26 24 28 29
65 67 62 59 58 57 52 51 48 45 43 45 44 45 44 43 43 42 41 39 34 33 34 35 35 34 32 33 34 36 31 29 25 26 25 23 25 25 25 24 21 22 23 25 26 28 30 30 25
68 68 69 62 64 61 62 52 49 47 48 46 42 45 45 46 46 43 42 38 36 36 36 34 35 34 33 35 37 35 34 31 28 27 25 24 25 26 26 25 22 22 22 24 29 31 30 28 24
71 70 69 69 67 64 64 58 50 49 52 51 47 45 46 47 48 46 42 38 40 39 36 36 35 31 32 35 38 35 36 33 31 30 26 26 25 27 28 26 24 24 23 25 29 29 29 30 27
68 72 69 68 60 68 67 65 58 51 50 52 44 47 48 49 48 47 44 45 48 40 38 37 35 33 32 36 38 36 36 33 34 34 28 27 27 28 28 29 27 28 26 26 29 28 32 28 33
61 65 63 67 58 62 71 66 60 55 54 51 50 53 50 51 49 47 48 51 44 42 41 40 38 35 34 36 38 36 36 35 36 36 32 28 29 30 29 30 30 30 29 26 29 27 25 33 29
61 65 64 64 49 59 71 73 63 59 56 54 56 52 50 49 48 49 51 48 45 45 44 43 41 38 36 37 38 38 38 37 36 36 34 31 29 31 31 31 31 32 31 28 30 27 26 18 21
56 58 56 63 64 71 69 70 67 66 65 60 57 52 51 50 50 49 48 45 45 45 45 43 43 40 40 38 36 39 39 37 38 35 38 31 29 32 31 32 32 33 32 28 28 24 23 25 23
51 52 52 60 69 64 62 63 62 64 66 67 64 55 52 50 52 48 48 46 44 44 45 45 43 41 41 40 37 38 38 37 38 38 39 31 30 31 31 31 33 35 32 30 29 24 26 24 23
48 46 49 54 57 57 59 59 61 45 63 67 62 54 52 51 49 49 48 47 45 46 47 46 44 44 44 41 38 38 40 39 40 40 38 31 27 30 31 32 33 37 33 32 30 31 26 24 23
44 45 46 49 50 54 51 55 56 54 54 52 54 55 51 50 47 46 47 47 48 48 46 44 44 43 44 42 40 39 41 42 42 40 38 32 27 29 30 32 34 35 34 34 34 30 28 29 27
42 39 39 41 44 46 37 42 47 25 43 31 46 45 39 40 41 43 47 49 49 48 44 42 42 42 42 40 39 39 41 44 43 43 39 32 29 28 29 31 33 33 36 37 33 28 30 31 33
30 31 31 30 30 37 28 25 29 40 35 35 35 32 33 37 40 42 46 48 47 46 43 41 40 41 42 41 40 39 40 44 44 44 41 35 29 28 28 31 32 33 31 28 25 27 22 22 20
26 28 24 23 22 18 23 21 31 31 28 31 26 28 31 34 39 42 46 47 46 45 43 42 40 42 45 43 40 39 41 45 45 46 44 36 29 27 27 30 30 29 25 22 23 26 28 23 17
20 23 29 27 23 18 13 14 16 24 30 25 23 25 30 34 37 41 43 43 46 46 45 43 42 43 44 40 40 39 42 45 46 47 47 36 29 27 26 29 28 23 21 20 23 27 28 26 23
27 24 30 24 25 12 9 15 23 24 24 22 24 29 30 33 35 38 40 42 45 46 47 42 42 43 43 42 42 42 44 45 48 50 49 37 30 27 27 27 25 19 18 22 25 27 30 28 30
21 17 20 23 20 22 17 12 22 22 19 18 23 26 30 29 31 34 38 42 45 46 48 46 44 43 46 45 43 43 44 44 50 51 49 37 30 28 27 27 23 19 18 19 25 27 29 31 34

GFSSGP_500_spd_114.txt.gz
Wind_Speed
28 29 29 29 28 26 24 18 15 19 32 24 25 21 21 21 28 26 16 17 14 17 15 14 13 13 12 12 13 14 15 16 16 17 16 16 16 16 16 18 18 18 17 17 16 14 16 19 22
30 31 31 32 31 29 23 11 21 29 38 31 22 26 20 25 30 27 21 18 16 17 17 15 12 13 11 11 12 13 13 15 15 16 15 15 15 16 17 18 19 19 19 17 17 17 17 16 19
32 33 34 34 35 30 22 8 11 32 43 28 26 25 24 27 33 22 20 20 18 19 17 14 12 11 10 11 13 15 14 14 15 16 15 15 16 16 16 18 19 21 22 19 18 17 16 19 16
35 36 38 38 35 28 24 20 25 36 48 31 28 29 27 30 34 28 21 20 19 20 17 13 12 11 11 11 12 14 15 15 16 15 16 16 15 16 17 18 19 21 21 21 20 16 11 11 16
37 38 40 40 36 28 24 23 34 40 42 37 30 26 34 31 34 30 23 21 18 21 20 15 14 13 12 12 13 14 14 16 16 14 14 15 17 17 19 20 21 22 20 23 23 22 21 21 19
43 39 42 40 36 29 25 26 34 41 32 37 31 24 32 40 30 31 24 22 19 23 21 19 16 17 13 15 14 14 16 16 17 17 17 17 18 18 19 20 20 21 21 21 23 25 22 19 19
45 43 45 43 40 34 19 15 39 42 35 36 34 31 29 39 35 31 26 22 21 24 24 20 19 20 18 16 15 16 16 16 17 19 19 19 18 19 19 21 20 20 22 20 24 23 21 21 21
48 46 47 47 44 41 30 18 39 44 36 35 38 38 30 40 40 24 30 23 23 25 26 24 22 23 21 19 18 18 19 17 17 19 21 20 19 20 20 21 21 21 21 21 23 21 20 18 19
47 52 53 50 46 41 38 34 42 45 41 38 38 44 40 42 36 26 32 25 24 26 29 27 27 27 25 23 19 19 21 18 19 19 22 22 22 21 20 21 21 21 22 23 22 18 19 18 20
53 54 52 47 44 44 42 40 32 49 42 37 43 49 41 39 37 32 34 26 23 27 29 30 29 29 28 26 24 21 23 19 20 22 23 22 22 22 22 21 22 21 19 23 25 22 21 20 21
55 54 49 47 47 44 46 47 41 51 47 41 43 49 44 41 40 36 34 30 26 28 30 31 32 29 31 29 27 26 25 23 21 21 23 23 23 24 23 21 23 22 20 20 21 24 24 24 25
61 57 55 51 49 48 49 52 52 57 49 47 43 51 48 43 38 36 35 34 33 29 30 31 31 30 32 31 28 29 29 24 23 22 23 23 24 25 23 22 22 21 21 20 21 24 24 24 25
64 62 59 57 53 52 51 54 53 54 55 56 49 51 51 40 33 35 35 35 35 36 32 31 32 30 33 32 29 30 28 29 24 24 24 23 25 25 23 22 21 21 21 23 21 23 22 22 24
64 64 64 62 59 57 55 57 53 51 51 54 54 51 49 49 40 38 38 37 37 35 36 35 30 31 33 33 30 30 31 30 27 25 25 25 25 25 25 23 22 21 21 21 20 22 23 24 26
63 68 68 68 64 63 61 61 54 50 49 49 50 48 48 50 47 41 39 38 37 33 33 42 31 32 33 35 31 30 33 31 30 28 27 27 26 26 25 24 24 23 22 20 18 21 23 25 27
65 66 70 62 67 68 64 61 52 51 49 48 48 50 48 48 48 42 39 39 37 34 36 39 38 30 32 36 31 31 33 32 29 28 30 29 27 27 25 25 26 24 23 22 22 24 26 26 29
66 65 64 66 67 67 67 61 55 53 55 51 54 52 48 49 48 46 44 43 36 37 40 36 39 29 29 35 34 31 32 34 32 28 30 32 29 29 26 24 25 26 25 24 25 27 28 29 27
71 71 67 66 69 68 67 67 63 57 57 55 57 55 51 48 51 51 48 45 40 41 42 38 37 35 29 31 34 33 32 31 35 32 31 33 31 30 30 25 25 27 28 27 26 28 28 31 31
60 61 61 60 63 60 49 64 61 58 63 60 58 54 50 51 52 49 49 45 46 48 42 39 39 35 32 29 32 34 35 30 36 35 33 33 32 33 32 27 26 28 30 30 29 29 32 32 30
62 60 59 52 55 41 52 53 61 50 67 63 58 60 54 49 50 50 48 50 50 52 45 42 43 39 36 32 32 36 36 33 36 37 34 32 31 34 32 28 26 28 31 32 30 29 32 31 30
61 61 57 51 48 51 43 53 58 62 61 63 62 60 57 54 51 49 50 53 53 49 45 46 44 42 39 36 33 36 33 35 36 35 36 34 34 32 32 30 28 28 31 32 32 29 32 31 28
56 52 51 45 50 52 47 53 60 60 59 59 59 64 62 61 53 51 50 56 53 44 46 47 44 40 40 37 37 35 34 36 37 37 36 36 36 31 33 31 28 29 30 32 34 30 29 29 28
43 36 36 44 51 55 55 56 48 54 55 57 59 55 53 61 53 53 56 56 52 49 48 48 43 41 42 42 40 37 36 37 37 38 36 35 38 33 33 30 28 28 30 32 35 33 29 31 29
29 36 38 45 50 53 44 47 49 52 54 52 49 49 48 60 61 60 59 57 53 51 52 48 45 43 42 42 42 39 37 35 36 39 37 35 37 35 33 30 30 28 29 32 36 35 33 33 30
39 42 43 44 46 39 40 39 37 36 30 34 33 24 36 54 61 60 62 51 54 55 53 50 47 43 44 43 41 39 37 36 37 39 39 34 36 35 33 30 30 28 29 32 37 38 35 27 29
42 39 40 42 41 36 30 32 30 27 22 21 30 45 47 48 48 39 51 58 59 54 52 52 48 45 44 42 39 38 37 36 36 37 35 32 34 35 33 29 30 29 29 32 36 35 28 24 25
32 31 23 24 24 20 23 22 22 21 26 35 38 40 31 36 37 44 53 55 48 47 51 51 47 44 43 40 38 37 39 35 36 38 35 32 34 36 34 29 31 28 28 31 34 27 24 24 23
18 18 28 24 16 15 13 15 18 23 32 32 29 32 38 37 38 40 45 48 41 42 45 47 45 42 42 39 38 37 41 39 39 37 37 33 35 39 33 30 30 28 28 30 30 23 22 22 23
20 22 25 22 22 12 12 13 18 16 31 29 33 39 33 35 35 31 30 30 38 42 42 41 42 41 42 41 41 36 40 39 38 38 38 35 36 39 35 30 31 28 27 28 27 25 23 22 24
20 21 25 25 26 21 14 15 17 16 22 30 40 30 32 25 23 30 34 35 39 40 39 39 41 39 41 39 40 40 39 41 39 40 40 39 37 39 37 30 31 27 26 28 25 25 26 28 27

GFSSGP_500_spd_117.txt.gz
Wind_Speed
28 29 28 27 26 24 21 13 7 11 19 26 33 30 25 24 26 29 24 19 16 16 17 15 13 13 14 12 12 12 14 14 14 15 17 17 17 17 16 16 16 17 19 21 20 19 19 19 21
28 28 28 29 28 26 20 13 18 14 21 25 31 27 27 27 31 31 30 20 22 19 19 15 13 12 15 12 11 11 11 12 12 12 15 16 16 17 18 18 18 19 20 21 20 18 16 17 18
33 31 32 33 33 28 21 13 12 10 22 33 34 33 30 31 32 32 31 22 25 22 20 18 13 13 13 11 9 9 10 12 13 13 13 15 16 16 16 18 19 20 21 21 21 20 19 18 17
37 40 38 40 37 29 25 18 18 19 27 36 39 35 25 30 35 33 23 26 25 24 21 20 14 13 13 11 10 10 10 11 12 13 13 13 14 15 17 18 21 21 21 21 21 18 16 17 14
40 41 44 45 42 35 28 21 29 26 31 37 40 36 32 34 37 37 26 27 26 24 23 21 17 14 13 13 11 12 12 10 10 12 14 13 13 17 18 19 19 21 21 21 20 22 20 19 23
43 42 44 43 41 36 31 26 27 23 31 38 39 28 35 39 38 36 26 27 28 24 25 24 18 17 15 15 15 13 14 13 11 12 14 15 15 17 18 20 20 19 21 20 20 20 19 19 22
44 44 44 42 42 42 33 25 31 35 30 39 40 30 32 39 40 39 24 25 29 26 27 26 22 19 19 16 16 17 17 16 14 13 14 17 17 18 19 20 20 19 21 21 19 20 21 21 20
46 47 46 47 45 41 32 27 33 43 35 35 43 39 33 42 42 38 25 28 29 26 28 28 25 21 20 20 19 18 19 20 18 16 14 17 18 19 21 20 20 21 20 21 20 19 19 18 18
49 52 48 49 47 39 32 32 36 39 44 46 45 47 37 41 43 37 28 25 28 27 29 29 27 25 22 22 20 20 20 21 21 20 17 17 18 19 21 21 20 21 21 21 20 19 21 17 15
56 55 49 48 44 44 39 39 37 41 46 52 49 49 50 41 43 39 35 27 30 26 27 29 29 27 27 26 23 21 21 21 22 23 21 19 18 19 22 21 21 20 21 20 21 19 20 21 18
60 52 54 50 47 47 45 44 42 44 51 52 52 47 49 50 41 40 38 32 31 31 29 29 29 29 30 29 26 24 22 22 23 22 23 21 20 20 22 22 22 20 20 19 21 19 19 20 21
65 61 62 56 52 51 52 47 48 49 52 50 54 50 51 51 44 44 39 33 33 31 31 28 29 30 31 29 28 27 25 21 23 22 23 23 22 22 22 23 21 21 20 18 19 20 20 20 23
61 61 65 63 58 56 55 55 50 51 53 57 57 54 53 51 51 43 37 37 37 33 32 30 30 30 32 33 28 30 27 24 23 23 22 23 24 23 22 22 21 20 19 17 18 21 21 19 21
58 61 62 64 64 62 60 61 57 53 51 57 58 54 53 54 50 44 38 39 39 37 32 31 31 30 33 33 30 30 28 27 25 25 23 22 24 24 24 22 21 20 18 17 16 18 18 17 20
60 65 64 64 60 68 63 66 66 57 55 54 54 55 50 51 52 46 41 41 39 40 37 35 34 30 29 33 33 32 29 27 28 28 24 22 24 25 24 23 23 22 18 15 17 18 20 19 20
65 70 68 58 64 67 64 71 61 62 60 55 51 53 47 46 46 48 42 40 41 39 36 37 37 31 28 30 34 33 31 28 29 30 26 24 24 26 24 24 24 23 21 17 17 18 22 22 23
74 74 69 63 67 65 64 65 63 63 62 57 54 51 48 45 46 46 43 40 39 39 37 37 40 33 25 27 32 33 33 28 31 30 28 26 27 27 24 26 25 24 25 20 19 20 22 24 25
80 81 73 68 66 65 62 63 65 63 59 60 55 54 51 49 47 46 45 43 39 39 37 39 42 39 27 23 29 33 33 31 31 32 28 27 28 30 27 28 26 26 27 25 21 22 23 25 26
80 84 77 69 63 63 61 60 60 61 55 56 55 52 53 55 52 51 51 46 43 41 42 43 39 37 33 28 31 35 36 35 30 34 31 30 28 31 30 31 28 26 28 27 24 23 24 26 30
74 80 83 72 63 53 46 48 52 52 57 56 55 55 55 56 56 53 48 50 48 45 45 45 38 37 38 35 29 34 38 37 30 33 36 31 30 31 32 32 29 27 28 28 27 24 24 25 32
66 70 79 72 59 45 40 43 46 52 49 51 56 55 57 56 55 55 49 51 47 46 47 47 41 40 42 37 34 34 38 36 31 33 36 36 34 32 35 33 29 28 29 30 29 26 25 27 31
60 62 65 55 52 44 46 47 41 44 45 50 48 51 55 49 48 46 53 56 51 51 48 48 46 44 44 40 38 34 34 34 34 36 37 36 35 32 33 32 29 27 28 31 29 28 27 28 30
44 51 54 42 45 52 51 44 41 45 49 47 49 48 46 53 55 48 53 62 55 49 51 54 45 46 45 44 41 37 34 32 34 37 37 38 38 32 31 31 28 25 29 31 31 29 28 30 30
17 36 27 28 43 50 45 46 38 38 34 35 37 37 40 50 45 44 48 52 62 57 52 50 46 49 46 43 42 39 37 33 34 38 40 39 38 33 32 31 28 25 28 31 32 28 30 33 31
35 29 29 34 42 37 38 38 34 36 38 41 42 44 45 53 52 60 57 59 64 59 58 55 52 43 43 46 43 43 40 37 34 36 40 38 37 32 32 33 29 24 26 30 32 28 31 33 32
27 21 27 27 32 30 41 42 31 32 32 34 42 42 45 48 49 57 58 56 58 61 56 57 49 51 45 47 45 44 44 39 37 37 38 36 34 30 32 34 27 23 25 29 30 27 31 31 31
26 22 24 30 23 30 29 27 24 24 30 34 35 38 38 43 40 42 40 37 40 47 52 51 53 53 51 46 47 45 44 42 37 38 37 35 32 30 29 31 25 22 25 28 29 27 29 28 29
19 18 20 25 20 16 16 16 20 33 24 29 37 45 38 43 42 37 33 38 41 41 44 49 52 52 49 48 48 46 44 39 41 38 37 36 32 33 32 30 29 24 24 27 28 27 27 26 27
13 19 24 26 22 15 15 20 32 35 30 32 34 35 36 43 42 41 42 38 36 38 44 45 48 47 44 43 43 43 42 36 43 39 39 39 35 34 34 32 31 25 24 27 28 28 27 25 25
17 16 23 20 15 19 18 16 24 31 31 33 32 36 30 38 45 31 32 34 36 35 40 50 51 49 48 42 40 43 40 38 42 40 39 41 38 34 35 31 31 26 25 28 28 29 26 25 26

GFSSGP_500_spd_120.txt.gz
Wind_Speed
31 30 30 29 27 25 18 15 16 22 20 22 21 17 22 27 28 28 28 26 22 19 21 22 19 15 13 12 15 14 13 14 13 14 14 12 13 15 15 16 16 16 17 19 19 19 18 17 16
36 34 32 32 30 28 15 14 18 23 23 22 24 23 24 29 32 31 30 29 22 21 23 22 19 15 13 13 13 13 12 13 12 12 13 12 12 14 15 17 18 17 18 19 20 20 19 19 17
36 37 36 37 35 28 18 16 23 24 27 26 21 24 28 28 32 32 32 30 24 23 25 24 21 15 15 14 14 13 11 12 11 11 12 13 12 13 15 16 18 19 21 21 21 19 19 18 18
35 36 37 37 35 30 25 18 26 28 32 37 36 26 29 34 34 33 29 26 25 27 25 25 22 17 15 15 15 14 12 12 11 11 11 13 13 13 14 16 18 20 21 21 20 19 18 19 18
37 37 37 35 34 30 31 21 26 31 34 36 39 39 35 36 37 35 31 28 27 30 28 26 25 20 17 17 15 14 13 12 13 11 12 12 13 14 15 16 17 20 20 20 20 18 19 19 19
39 38 36 33 33 33 35 24 30 34 37 39 43 43 39 36 37 37 31 29 28 28 29 28 27 25 21 18 17 16 16 15 16 14 13 13 13 14 15 16 17 19 18 18 20 19 18 18 18
43 42 40 38 38 38 33 28 31 35 36 41 43 46 41 42 40 38 32 31 26 27 29 29 28 28 25 20 18 17 18 18 18 17 17 16 14 14 14 16 17 18 18 17 19 20 20 19 18
46 47 44 43 42 39 28 27 32 37 38 39 44 48 46 39 42 41 35 28 25 25 28 26 29 30 26 23 20 18 18 19 20 19 18 19 17 15 14 15 17 18 18 18 18 20 20 20 19
51 49 46 46 46 40 30 33 32 39 42 44 43 48 48 47 42 43 41 30 24 26 26 26 29 30 28 25 22 18 18 19 20 21 19 19 18 17 16 16 17 18 19 19 19 19 18 19 20
52 52 53 50 45 44 40 39 35 41 44 47 50 49 50 51 46 39 39 35 26 27 30 27 26 30 28 27 25 22 19 20 21 21 20 19 19 19 18 18 18 17 18 19 19 18 17 18 19
54 54 52 52 50 47 47 45 37 46 47 48 50 51 52 52 51 45 40 37 32 32 34 31 27 30 28 28 28 25 22 22 22 23 21 19 19 20 19 19 19 19 18 19 19 17 16 17 18
57 56 57 56 54 51 50 50 47 48 49 52 53 56 57 56 54 49 42 34 32 33 34 37 29 30 29 29 30 27 24 23 22 23 24 20 19 20 20 19 18 18 18 19 19 17 16 17 19
60 57 54 58 57 56 58 56 57 52 50 55 57 58 60 58 56 49 40 35 31 29 33 34 33 31 31 30 31 29 28 26 22 23 25 21 20 21 21 20 18 17 17 19 18 17 15 16 18
59 61 62 59 57 58 62 60 63 50 51 52 57 59 60 60 54 52 46 37 33 31 30 30 35 32 33 32 32 31 30 28 26 23 25 24 23 23 23 20 19 18 16 18 18 16 13 14 16
64 67 65 64 59 58 66 69 65 50 57 55 55 58 61 60 57 54 50 41 35 37 33 32 33 35 33 32 34 32 30 30 28 25 25 26 25 25 24 21 19 19 18 18 19 17 13 15 17
72 74 73 62 64 60 68 73 61 61 63 59 58 58 59 57 56 54 49 44 37 43 39 33 31 30 33 34 35 34 33 29 28 27 27 28 28 26 26 24 21 20 19 19 20 19 16 16 19
77 85 84 73 67 68 73 74 60 64 64 63 62 62 58 56 54 53 49 43 34 39 41 36 31 32 30 32 33 33 36 29 28 27 29 31 30 28 27 27 23 22 21 21 22 21 19 18 21
84 88 87 87 76 77 77 79 64 70 65 64 62 62 60 57 54 51 51 48 40 35 40 38 35 35 31 31 30 32 30 31 30 28 30 32 32 31 28 27 27 25 25 22 22 24 22 20 22
84 87 89 87 79 81 84 81 69 68 63 63 61 62 62 58 54 55 51 50 46 39 39 40 37 37 33 28 28 33 33 35 31 29 32 32 32 31 30 29 29 29 26 27 23 24 24 22 23
59 66 73 77 77 76 85 77 72 69 65 59 56 57 57 55 56 56 53 52 49 45 42 41 39 40 37 34 31 34 37 35 33 30 30 30 33 34 32 32 30 30 27 28 25 24 25 25 25
40 40 48 65 63 67 67 77 72 65 61 61 60 57 55 54 52 55 53 52 50 48 48 47 45 45 42 40 37 35 35 33 35 34 32 34 38 37 33 33 32 30 27 29 28 25 26 27 26
43 36 38 53 56 52 50 46 65 66 57 55 52 53 49 51 51 53 55 54 51 51 52 48 47 45 44 44 41 38 37 37 35 37 37 37 37 38 35 33 33 31 28 29 28 26 26 28 28
38 32 29 37 42 36 46 50 41 40 45 51 44 39 40 47 52 51 48 54 57 56 55 56 46 41 50 44 45 39 36 37 34 34 38 38 38 39 39 34 33 32 31 30 28 25 26 29 29
23 15 14 22 35 46 41 42 43 38 30 35 36 33 34 41 49 50 53 51 52 53 55 57 53 47 48 45 45 42 41 38 36 36 37 38 39 41 40 37 33 34 33 31 29 26 26 29 29
9 13 19 27 33 31 29 39 34 32 33 26 33 34 40 46 53 51 42 45 50 49 50 51 52 55 52 51 46 48 48 42 39 36 39 39 40 42 41 38 35 34 36 32 29 25 26 28 30
12 17 19 18 18 21 25 20 33 38 31 34 38 49 49 61 48 53 48 45 47 47 50 49 51 52 51 50 45 47 49 47 44 38 39 40 40 40 40 37 35 35 37 31 30 25 25 28 29
14 9 16 8 16 16 18 24 27 33 37 34 41 44 51 55 58 57 54 51 51 48 49 52 55 56 51 48 48 48 50 49 50 42 40 41 41 40 39 35 34 34 34 30 31 25 26 27 28
7 8 9 9 3 13 15 17 26 25 29 31 34 37 44 43 47 49 52 51 55 58 60 62 61 63 62 57 49 48 52 50 50 43 41 43 42 40 38 36 33 34 33 30 30 26 26 27 27
15 11 7 7 6 9 11 16 21 24 26 29 28 30 40 46 43 47 56 55 47 47 52 51 50 49 46 47 44 45 52 51 51 47 45 46 43 41 38 37 35 36 35 31 30 27 27 27 26
10 15 19 17 10 2 14 18 25 25 25 24 32 33 29 44 47 47 48 40 36 33 36 42 40 44 42 46 42 42 47 49 47 46 45 47 44 41 39 39 37 38 35 34 32 28 28 27 26

GFSSGP_500_spd_123.txt.gz
Wind_Speed
35 34 33 33 32 32 24 19 18 21 21 22 23 24 22 26 23 22 23 27 27 23 23 24 25 20 19 17 15 14 14 14 14 14 14 14 14 13 12 12 13 14 14 15 16 18 19 17 17
35 35 35 36 37 33 21 21 18 20 21 23 24 26 27 21 25 24 26 30 31 25 23 25 27 22 19 17 15 13 13 14 14 14 13 12 14 14 13 14 14 15 16 17 17 19 20 18 18
33 34 33 33 31 28 18 20 21 21 22 23 25 28 29 27 28 28 30 29 30 26 24 24 28 23 19 17 16 14 14 15 14 13 11 11 12 12 12 14 15 16 17 17 18 19 19 17 16
33 33 31 29 28 27 20 23 25 25 27 27 29 32 32 34 34 33 34 33 31 27 26 26 27 23 22 18 17 15 15 17 14 13 12 12 12 12 12 13 14 15 16 18 17 18 18 17 17
35 34 33 29 28 25 25 24 29 30 30 32 35 36 38 41 38 36 40 37 31 30 29 28 27 26 26 19 18 16 16 17 16 14 14 15 14 13 13 14 14 14 16 17 17 17 17 17 17
40 37 36 33 31 31 30 26 32 34 35 36 40 40 42 41 37 36 36 36 33 33 30 29 29 28 28 24 19 18 19 17 17 17 16 16 17 16 14 13 13 14 15 17 17 19 18 18 19
41 41 40 40 39 36 31 27 32 33 36 39 42 44 44 42 38 36 38 36 36 35 29 29 30 29 30 29 22 20 21 19 17 18 18 18 17 17 15 14 13 13 13 16 17 19 20 20 19
44 46 47 45 43 38 28 29 32 35 38 40 44 46 46 43 41 41 41 38 35 31 29 26 28 29 30 29 25 22 20 20 19 19 19 19 18 17 17 15 13 13 14 15 17 19 20 20 19
45 48 45 43 41 39 32 34 34 36 40 44 48 46 49 45 45 45 42 34 31 30 30 28 26 27 31 29 25 24 21 20 18 18 20 20 20 18 17 17 16 14 14 15 17 18 19 20 17
49 50 50 45 44 45 41 39 38 41 44 45 48 48 51 53 51 49 44 35 33 27 28 31 29 25 30 31 27 25 23 21 19 18 20 21 21 19 17 17 17 16 15 15 17 18 18 18 18
50 50 50 51 49 48 48 43 41 43 46 47 48 50 50 52 54 51 50 41 34 32 29 29 33 29 28 31 30 28 25 23 21 20 21 23 22 21 19 18 17 17 16 15 16 18 19 18 17
54 54 54 53 52 54 53 49 48 49 46 50 54 52 51 53 56 52 52 48 37 32 28 30 31 31 29 31 31 29 26 24 23 22 23 24 22 20 20 20 18 17 17 16 17 17 19 18 17
54 53 51 52 53 54 55 55 55 51 50 52 55 56 55 56 58 57 52 50 43 33 29 29 28 27 26 30 32 30 29 28 25 21 25 24 23 20 22 22 19 18 18 18 18 18 19 19 16
54 56 57 52 53 56 58 58 59 47 51 55 57 59 58 58 58 60 58 55 48 34 30 32 34 26 26 27 30 31 32 30 26 23 25 24 24 22 22 22 21 18 18 19 19 18 18 19 17
58 60 59 55 58 60 62 63 60 47 51 53 60 61 63 61 61 60 61 58 50 36 29 32 35 34 28 25 26 30 31 30 29 28 26 25 25 25 23 22 22 19 19 20 22 20 19 20 20
62 65 68 56 62 66 68 69 56 58 59 57 59 63 65 66 64 62 62 58 54 39 32 30 35 35 33 27 27 29 30 31 32 29 27 26 27 28 24 22 24 21 20 21 22 22 22 21 22
69 72 76 71 73 75 76 80 62 70 67 65 63 61 65 66 66 65 64 59 55 42 33 31 36 35 35 30 30 31 32 32 32 31 28 27 29 30 27 23 25 23 23 22 23 23 23 23 23
79 86 87 90 81 87 89 94 84 78 80 73 69 64 65 66 65 65 64 59 57 45 35 34 38 36 37 35 34 34 33 32 33 31 28 30 31 31 29 27 26 24 25 25 25 23 23 24 24
90 93 98 97 89 96 98 99 100 88 87 81 74 68 63 67 65 65 62 60 58 50 42 38 40 38 38 38 36 32 32 31 32 32 33 33 34 32 31 31 29 28 28 28 27 26 24 23 26
81 86 77 58 54 58 74 95 96 91 91 89 78 72 66 64 69 67 63 61 59 56 48 40 41 39 38 36 34 33 35 33 34 36 36 33 33 34 34 36 33 31 30 29 28 28 26 25 26
47 48 49 58 47 54 57 65 83 84 87 90 85 71 68 62 66 69 71 70 66 64 57 47 42 43 42 41 38 34 37 41 41 36 36 35 35 37 38 39 35 32 30 30 29 30 29 27 27
40 44 53 56 61 64 56 68 65 63 74 79 82 73 65 62 63 68 72 74 75 70 62 59 48 48 46 47 44 42 41 48 43 43 41 33 37 39 41 40 36 34 32 31 31 33 31 29 29
50 49 48 58 51 46 45 53 44 28 38 65 68 63 55 60 61 65 68 70 67 63 62 64 50 49 50 50 48 49 50 50 44 40 34 36 39 42 43 42 39 36 34 33 33 35 33 32 31
34 37 44 36 30 35 16 35 18 19 15 39 36 41 50 55 58 62 62 60 63 60 60 57 48 49 49 49 47 46 50 42 36 34 35 37 38 41 42 42 40 38 34 34 35 37 36 35 33
36 32 18 20 14 13 4 10 15 14 15 29 47 45 42 44 48 53 57 59 56 57 57 52 52 50 51 53 51 49 52 45 41 39 39 39 40 41 40 41 40 39 35 35 37 38 39 36 35
21 17 18 12 14 9 8 6 21 20 20 27 40 45 44 38 37 40 41 44 48 48 52 51 49 48 49 48 46 46 50 48 46 43 45 41 43 44 45 42 40 40 39 37 37 40 39 36 35
6 13 15 8 8 6 3 3 10 21 19 26 39 44 41 39 45 44 44 46 47 48 50 49 46 45 45 45 42 41 43 46 50 52 50 46 49 42 47 45 43 42 41 41 38 40 37 36 34
11 10 13 18 13 4 1 8 11 17 22 17 12 19 44 46 39 42 46 46 45 47 48 47 46 48 46 45 46 47 48 49 49 51 55 47 47 46 46 48 45 41 42 41 39 38 37 35 34
10 13 13 13 11 1 4 4 9 17 21 21 20 25 27 29 35 42 46 46 54 52 54 52 51 53 54 52 53 54 55 59 60 62 60 54 47 49 47 48 46 43 41 42 39 37 38 38 35
11 15 19 16 12 5 9 6 13 13 22 23 24 28 29 30 34 35 40 47 55 46 51 50 50 52 52 57 57 63 66 63 63 64 60 58 52 49 49 48 47 46 41 43 40 37 40 39 35

GFSSGP_500_spd_126.txt.gz
Wind_Speed
37 36 36 36 36 35 26 22 23 22 22 21 19 20 21 23 25 25 24 23 21 20 21 21 22 22 20 19 19 15 10 9 9 11 12 11 10 10 10 9 10 10 12 12 13 14 15 15 14
36 35 35 35 34 32 21 22 22 24 23 21 20 22 25 25 26 27 27 25 24 24 24 25 24 24 23 19 19 15 11 11 10 11 12 11 10 10 10 10 10 12 13 13 12 13 14 14 14
37 35 34 32 30 31 19 20 22 23 23 23 25 25 27 26 28 27 24 24 26 27 27 25 26 27 26 20 19 16 13 13 12 12 12 12 11 10 11 11 12 13 13 14 13 13 12 13 13
38 38 37 35 29 27 16 22 25 27 27 27 27 29 29 29 30 30 27 26 29 31 32 28 27 28 28 23 19 17 15 14 13 14 13 12 13 14 13 12 12 13 13 13 14 14 14 13 12
34 34 34 32 31 24 22 24 27 28 28 28 31 30 32 34 34 32 29 30 35 34 35 30 29 29 29 26 22 18 17 15 15 14 15 14 14 14 15 15 13 14 14 14 15 15 14 12 14
35 34 36 35 33 30 26 25 30 29 30 32 35 37 36 36 37 37 39 36 37 34 32 30 31 31 30 29 25 21 19 17 16 15 15 15 16 17 16 16 15 15 15 15 15 16 15 14 15
36 36 37 38 36 31 27 27 29 31 34 35 40 42 41 41 40 39 37 37 37 34 31 30 30 31 31 29 27 24 20 19 18 17 16 16 17 17 16 17 16 16 15 15 16 16 16 16 15
38 40 41 40 40 37 27 28 30 33 35 39 41 44 44 44 45 44 40 41 40 34 33 26 26 29 31 32 29 24 22 20 19 17 16 16 18 18 17 17 17 17 16 15 16 16 17 17 15
42 43 42 43 40 39 35 32 34 35 37 40 45 44 44 44 47 45 45 42 39 37 32 26 26 28 30 29 31 26 23 20 19 18 16 16 17 20 19 17 16 17 17 16 15 16 15 17 16
44 43 43 43 44 44 44 40 38 39 38 40 46 48 46 47 48 50 46 47 43 35 32 26 24 26 27 26 27 28 26 22 20 18 17 16 16 20 20 18 17 17 17 17 16 16 15 17 17
48 48 46 48 49 49 48 45 43 41 41 43 45 51 49 49 51 52 51 46 49 41 33 29 26 28 28 28 27 27 25 23 21 18 18 17 16 19 19 19 17 17 17 18 17 16 16 17 17
49 48 49 49 51 53 54 53 45 43 39 44 48 52 51 51 51 54 53 49 46 46 36 32 30 28 30 27 26 28 26 23 24 21 19 18 18 20 19 18 18 17 17 17 18 17 16 16 17
51 52 50 53 53 52 53 53 52 45 44 45 49 55 54 53 53 54 56 56 52 48 39 33 30 30 29 27 26 27 27 25 24 22 20 20 21 21 20 18 18 18 17 17 17 17 18 16 17
52 54 56 55 56 58 59 55 57 48 44 45 49 52 57 56 56 57 58 58 52 50 45 37 33 30 27 28 28 28 28 28 26 23 21 22 23 22 21 19 19 18 17 17 17 17 19 18 17
54 57 56 56 59 59 64 63 60 59 60 52 48 50 58 59 59 58 59 60 56 53 50 42 36 35 32 29 28 29 30 29 28 26 24 24 24 24 23 21 18 18 17 18 19 18 19 20 18
58 58 60 60 60 61 67 66 63 66 68 63 54 55 57 62 62 59 60 61 62 59 56 47 40 37 34 30 30 29 31 30 29 28 28 26 25 26 25 24 21 19 18 18 20 20 20 22 21
56 60 62 62 64 69 75 72 66 74 72 69 68 62 60 60 67 58 60 64 66 64 60 51 43 37 36 36 31 32 32 32 31 32 31 30 27 27 26 27 26 22 20 19 21 22 21 23 23
61 63 66 66 68 78 85 86 76 81 87 81 79 77 69 63 65 66 66 66 68 67 64 56 45 40 35 38 36 34 35 36 34 35 34 32 29 29 30 30 28 26 23 21 23 24 23 24 24
66 73 77 77 79 87 93 96 96 89 99 96 95 93 86 73 66 74 74 70 69 69 66 59 46 39 39 40 39 37 35 37 36 35 36 36 34 34 33 31 30 30 27 26 25 26 25 26 25
70 77 77 78 75 80 92 102 94 93 103 105 105 103 99 89 75 72 77 75 71 70 67 62 48 42 40 40 39 39 38 38 38 38 39 39 36 38 38 34 33 33 32 28 28 29 27 26 26
69 60 55 58 60 54 64 71 70 67 72 71 73 86 99 97 81 74 78 79 74 72 68 62 54 47 44 41 43 40 41 39 39 40 37 38 40 45 43 37 35 35 34 30 29 30 31 30 28
55 43 49 52 58 62 51 67 68 64 69 71 70 66 74 93 87 75 76 79 75 71 69 66 61 53 48 46 45 42 39 40 40 43 44 47 48 47 45 41 38 34 36 34 34 33 32 32 30
33 39 40 44 22 33 23 40 35 16 7 10 31 50 47 74 76 72 75 78 76 72 70 68 64 59 52 47 44 43 44 44 46 49 48 49 54 50 49 41 39 36 38 38 38 34 34 32 34
34 39 40 25 32 35 37 37 23 16 7 5 10 16 23 47 62 68 71 77 75 72 67 66 65 61 57 49 48 49 50 52 52 52 59 56 51 39 40 39 38 38 39 39 40 38 35 34 36
38 37 24 22 33 31 25 25 20 12 16 6 11 14 23 38 49 59 66 72 72 73 71 69 70 67 64 60 56 54 56 53 53 51 51 47 53 47 40 41 39 39 39 36 37 36 37 36 36
33 26 26 32 35 27 23 26 14 28 26 9 13 20 20 28 42 54 55 61 67 65 64 67 65 63 64 62 52 55 58 57 53 53 53 53 43 38 38 36 38 40 40 37 37 35 37 37 38
25 24 23 32 34 34 26 27 25 25 24 14 18 18 19 25 41 43 48 56 59 64 60 61 59 54 53 50 52 56 57 56 53 51 52 53 55 43 41 43 42 44 43 41 39 39 38 39 39
19 22 22 27 37 31 20 20 27 18 20 20 4 18 28 24 25 35 43 47 52 55 58 53 52 55 53 52 50 50 48 49 47 45 42 40 42 43 43 44 42 47 48 47 45 43 40 40 39
16 17 21 24 29 30 25 31 10 11 8 6 10 5 20 27 29 32 36 41 46 50 54 54 53 52 52 50 45 43 44 41 41 43 43 43 43 46 43 45 45 49 51 52 49 44 42 40 40
16 19 19 21 20 26 27 14 12 12 9 8 8 4 12 26 31 24 36 40 41 45 43 44 46 45 45 48 48 44 47 49 49 51 50 50 51 52 54 55 55 54 55 52 50 45 42 42 40